[[{"header":{"parameterUnit":"m.s-1","parameterCategory":1,"la1":30.6,"la2":29.2853,"lo1":-89.7004,"lo2":-87.6739,"dy":0.0162,"dx":0.0183,"nx":112,"ny":82,"refTime":"2026-03-31T00:00:00:Z","depth":0,"parameterNumber":2,"parameterNumberName":"U-component_of_WINDS"},"data":[0.0,0.0,0.0,0.0,0.0,0.0,0.0,0.0,0.0,0.0,0.0,0.0,0.0,0.0,0.0,0.0,0.0,0.0,0.0,0.0,0.0,0.0,0.0,0.0,0.0,0.0,0.0,0.0,0.0,0.0,0.0,0.0,0.0,0.0,0.0,0.0,0.0,0.0,0.0,0.0,0.0,0.0,0.0,0.0,0.0,0.0,0.0,0.0,0.0,0.0,0.0,0.0,0.0,0.0,0.0,0.0,0.0,0.0,0.0,0.0,0.0,0.0,0.0,0.0,0.0,0.0,0.0,0.0,0.0,0.0,0.0,0.0,0.0,0.0,0.0,0.0,0.0,0.0,0.0,0.0,0.0,0.0,0.0,0.0,0.0,0.0,0.0,0.0,0.0,0.0,-2.1012,-2.1923,-2.2926,-2.3223,-2.2468,-2.0631,-1.8638,-1.6589,0.0,0.0,0.0,0.0,0.0,0.0,0.0,0.0,0.0,0.0,0.0,0.0,0.0,0.0,0.0,0.0,0.0,0.0,0.0,0.0,0.0,0.0,0.0,0.0,0.0,0.0,0.0,0.0,0.0,0.0,0.0,0.0,0.0,0.0,0.0,0.0,0.0,0.0,0.0,0.0,0.0,0.0,0.0,0.0,0.0,0.0,0.0,0.0,0.0,0.0,0.0,0.0,0.0,0.0,0.0,0.0,0.0,0.0,0.0,0.0,0.0,0.0,0.0,0.0,0.0,0.0,0.0,0.0,0.0,0.0,0.0,0.0,0.0,0.0,0.0,0.0,0.0,0.0,0.0,0.0,0.0,0.0,0.0,0.0,0.0,0.0,0.0,0.0,0.0,0.0,0.0,0.0,0.0,0.0,0.0,0.0,0.0,0.0,0.0,0.0,0.0,0.0,0.0,0.0,-2.1569,-2.4035,-2.4446,-2.423,-2.3368,-2.1632,-1.9441,-1.6804,0.0,0.0,0.0,0.0,0.0,0.0,0.0,0.0,0.0,0.0,0.0,0.0,0.0,0.0,0.0,0.0,0.0,0.0,0.0,0.0,0.0,0.0,0.0,0.0,0.0,0.0,0.0,0.0,0.0,0.0,0.0,0.0,0.0,0.0,0.0,0.0,0.0,0.0,0.0,0.0,0.0,0.0,0.0,0.0,0.0,0.0,0.0,0.0,0.0,0.0,0.0,0.0,0.0,0.0,0.0,0.0,0.0,0.0,0.0,0.0,0.0,0.0,0.0,0.0,0.0,0.0,0.0,0.0,0.0,0.0,0.0,0.0,0.0,0.0,0.0,0.0,0.0,0.0,0.0,0.0,0.0,0.0,0.0,0.0,0.0,0.0,0.0,0.0,0.0,0.0,0.0,0.0,0.0,0.0,0.0,0.0,0.0,0.0,0.0,0.0,0.0,0.0,0.0,-2.1055,-2.2468,-2.4978,-2.4568,-2.3733,-2.2865,-2.0827,-1.872,-1.6675,-1.6008,0.0,0.0,0.0,0.0,0.0,0.0,0.0,0.0,0.0,0.0,0.0,0.0,0.0,0.0,0.0,0.0,0.0,0.0,0.0,0.0,0.0,0.0,0.0,0.0,0.0,0.0,0.0,0.0,0.0,0.0,0.0,0.0,0.0,0.0,0.0,0.0,0.0,0.0,0.0,0.0,0.0,0.0,0.0,0.0,0.0,0.0,0.0,0.0,0.0,0.0,0.0,0.0,0.0,0.0,0.0,0.0,0.0,0.0,0.0,0.0,0.0,0.0,0.0,0.0,0.0,0.0,0.0,0.0,0.0,0.0,0.0,0.0,0.0,0.0,0.0,0.0,0.0,0.0,0.0,0.0,0.0,0.0,0.0,0.0,0.0,0.0,0.0,0.0,0.0,0.0,0.0,0.0,0.0,0.0,0.0,0.0,0.0,0.0,0.0,0.0,0.0,0.0,-2.2984,-2.3653,-2.5586,-2.4848,-2.3777,-2.2754,-2.0511,-1.8475,-1.6958,-1.6176,0.0,0.0,0.0,0.0,0.0,0.0,0.0,0.0,0.0,0.0,0.0,0.0,0.0,0.0,0.0,0.0,0.0,0.0,0.0,0.0,0.0,0.0,0.0,0.0,0.0,0.0,0.0,0.0,0.0,0.0,0.0,0.0,0.0,0.0,0.0,0.0,0.0,0.0,0.0,0.0,0.0,0.0,0.0,0.0,0.0,0.0,0.0,0.0,0.0,0.0,0.0,0.0,0.0,0.0,0.0,0.0,0.0,0.0,0.0,0.0,0.0,0.0,0.0,0.0,0.0,0.0,0.0,0.0,0.0,0.0,0.0,0.0,0.0,0.0,0.0,0.0,0.0,0.0,0.0,0.0,0.0,0.0,0.0,0.0,0.0,0.0,0.0,0.0,0.0,0.0,0.0,0.0,0.0,0.0,0.0,0.0,0.0,0.0,0.0,0.0,0.0,0.0,-2.3974,-2.5096,-2.6311,-2.6358,-2.5674,-2.4185,-2.2039,-2.0014,-1.8285,-1.6782,0.0,0.0,0.0,0.0,0.0,0.0,0.0,0.0,0.0,0.0,0.0,0.0,0.0,0.0,0.0,0.0,0.0,0.0,0.0,0.0,0.0,0.0,0.0,0.0,0.0,0.0,0.0,0.0,0.0,0.0,0.0,0.0,0.0,0.0,0.0,0.0,0.0,0.0,0.0,0.0,0.0,0.0,0.0,0.0,0.0,0.0,0.0,0.0,0.0,0.0,0.0,0.0,0.0,0.0,0.0,0.0,0.0,0.0,0.0,0.0,0.0,0.0,0.0,0.0,0.0,0.0,0.0,0.0,0.0,0.0,0.0,0.0,0.0,0.0,0.0,0.0,0.0,0.0,0.0,0.0,0.0,0.0,0.0,0.0,0.0,0.0,0.0,0.0,0.0,0.0,0.0,0.0,0.0,0.0,0.0,0.0,0.0,0.0,0.0,0.0,0.0,0.0,-2.3476,-2.4456,0.0,-2.5394,-2.4178,-2.3041,-2.1092,-1.9095,-1.7237,0.0,0.0,0.0,0.0,0.0,0.0,0.0,0.0,0.0,0.0,0.0,0.0,0.0,0.0,0.0,0.0,0.0,0.0,0.0,0.0,0.0,0.0,0.0,0.0,0.0,0.0,0.0,0.0,0.0,0.0,0.0,0.0,0.0,0.0,0.0,0.0,0.0,0.0,0.0,0.0,0.0,0.0,0.0,0.0,0.0,0.0,0.0,0.0,0.0,0.0,0.0,0.0,0.0,0.0,0.0,0.0,0.0,0.0,0.0,0.0,0.0,0.0,0.0,0.0,0.0,0.0,0.0,0.0,0.0,0.0,0.0,0.0,0.0,0.0,0.0,0.0,0.0,0.0,0.0,0.0,0.0,0.0,0.0,0.0,0.0,0.0,0.0,0.0,0.0,0.0,0.0,0.0,0.0,0.0,0.0,0.0,0.0,0.0,0.0,0.0,0.0,0.0,-2.2876,-2.3567,-2.4569,0.0,-2.5276,-2.3906,-2.2546,-2.0823,-1.8882,-1.6724,0.0,0.0,0.0,0.0,0.0,0.0,0.0,0.0,0.0,0.0,0.0,0.0,0.0,0.0,0.0,0.0,0.0,0.0,0.0,0.0,0.0,0.0,0.0,0.0,0.0,0.0,0.0,0.0,0.0,0.0,0.0,0.0,0.0,0.0,0.0,0.0,0.0,0.0,0.0,0.0,0.0,0.0,0.0,0.0,0.0,0.0,0.0,0.0,0.0,0.0,0.0,0.0,0.0,0.0,0.0,0.0,0.0,0.0,0.0,0.0,0.0,0.0,0.0,0.0,0.0,0.0,0.0,0.0,0.0,0.0,0.0,0.0,0.0,0.0,0.0,0.0,0.0,0.0,0.0,0.0,0.0,0.0,0.0,0.0,0.0,0.0,0.0,0.0,0.0,0.0,0.0,0.0,0.0,0.0,0.0,0.0,0.0,0.0,0.0,0.0,0.0,0.0,-2.3039,-2.4546,-2.5824,-2.6436,-2.6499,-2.5514,-2.3091,-2.1664,-1.9785,0.0,0.0,0.0,0.0,0.0,0.0,0.0,0.0,0.0,0.0,0.0,0.0,0.0,0.0,0.0,0.0,0.0,0.0,0.0,0.0,0.0,0.0,0.0,0.0,0.0,0.0,0.0,0.0,0.0,0.0,0.0,0.0,0.0,0.0,0.0,0.0,0.0,0.0,0.0,0.0,0.0,0.0,0.0,0.0,0.0,0.0,0.0,0.0,0.0,0.0,0.0,0.0,0.0,0.0,0.0,0.0,0.0,0.0,0.0,0.0,0.0,0.0,0.0,0.0,0.0,0.0,0.0,0.0,0.0,0.0,0.0,0.0,0.0,0.0,0.0,0.0,0.0,0.0,0.0,0.0,0.0,0.0,0.0,0.0,0.0,0.0,0.0,0.0,0.0,0.0,0.0,0.0,0.0,0.0,0.0,0.0,0.0,0.0,0.0,0.0,0.0,0.0,0.0,-2.3039,-2.4546,-2.5824,-2.6436,-2.5886,-2.4755,-2.302,-2.1631,-1.9559,-1.6567,0.0,0.0,0.0,0.0,0.0,0.0,0.0,0.0,0.0,0.0,0.0,0.0,0.0,0.0,0.0,0.0,0.0,0.0,0.0,0.0,0.0,0.0,0.0,0.0,0.0,0.0,0.0,0.0,0.0,0.0,0.0,0.0,0.0,0.0,0.0,0.0,0.0,0.0,0.0,0.0,0.0,0.0,0.0,0.0,0.0,0.0,0.0,0.0,0.0,0.0,0.0,0.0,0.0,0.0,0.0,0.0,0.0,0.0,0.0,0.0,0.0,0.0,0.0,0.0,0.0,0.0,0.0,0.0,0.0,0.0,0.0,0.0,0.0,0.0,0.0,0.0,0.0,0.0,0.0,0.0,0.0,0.0,0.0,0.0,0.0,0.0,0.0,0.0,0.0,0.0,0.0,0.0,0.0,0.0,0.0,0.0,0.0,0.0,0.0,0.0,0.0,0.0,-2.3066,-2.4766,-2.6109,-2.6461,-2.5955,-2.5036,-2.3572,-2.2164,-2.0023,-1.6869,0.0,0.0,0.0,0.0,0.0,0.0,0.0,0.0,0.0,0.0,0.0,0.0,0.0,0.0,0.0,0.0,0.0,0.0,0.0,0.0,0.0,0.0,0.0,0.0,0.0,0.0,0.0,0.0,0.0,0.0,0.0,0.0,0.0,0.0,0.0,0.0,0.0,0.0,0.0,0.0,0.0,0.0,0.0,0.0,0.0,0.0,0.0,0.0,0.0,0.0,0.0,0.0,0.0,0.0,0.0,0.0,0.0,0.0,0.0,0.0,0.0,0.0,0.0,0.0,0.0,0.0,0.0,0.0,0.0,0.0,0.0,0.0,0.0,0.0,0.0,0.0,0.0,0.0,0.0,0.0,0.0,0.0,0.0,0.0,0.0,0.0,0.0,0.0,0.0,0.0,0.0,0.0,0.0,0.0,0.0,0.0,0.0,0.0,0.0,0.0,0.0,0.0,-2.3094,-2.5107,-2.6499,-2.6499,-2.6499,-2.5918,-2.4498,-2.304,-2.0907,-1.7819,0.0,0.0,0.0,0.0,0.0,0.0,0.0,0.0,0.0,0.0,0.0,0.0,0.0,0.0,0.0,0.0,0.0,0.0,0.0,0.0,0.0,0.0,0.0,0.0,0.0,0.0,0.0,0.0,0.0,0.0,0.0,0.0,0.0,0.0,0.0,0.0,0.0,0.0,0.0,0.0,0.0,0.0,0.0,0.0,0.0,0.0,0.0,0.0,0.0,0.0,0.0,0.0,0.0,0.0,0.0,0.0,0.0,0.0,0.0,0.0,-2.2533,0.0,0.0,0.0,0.0,0.0,0.0,0.0,0.0,0.0,0.0,0.0,0.0,0.0,0.0,0.0,0.0,0.0,0.0,0.0,0.0,0.0,0.0,0.0,0.0,0.0,0.0,0.0,0.0,0.0,0.0,0.0,0.0,0.0,0.0,0.0,0.0,0.0,0.0,0.0,0.0,0.0,-2.3094,-2.5107,-2.6499,-2.6499,-2.6499,-2.6045,-2.4944,-2.3225,-2.1163,-1.8689,-1.6399,0.0,0.0,0.0,0.0,0.0,0.0,0.0,0.0,0.0,0.0,0.0,0.0,0.0,0.0,0.0,0.0,0.0,0.0,0.0,0.0,0.0,0.0,0.0,0.0,0.0,0.0,0.0,0.0,0.0,0.0,0.0,0.0,0.0,0.0,0.0,0.0,0.0,0.0,0.0,0.0,0.0,0.0,0.0,0.0,0.0,0.0,0.0,0.0,0.0,0.0,0.0,0.0,0.0,0.0,0.0,0.0,0.0,0.0,0.0,0.0,-2.3702,0.0,0.0,0.0,0.0,0.0,0.0,0.0,0.0,0.0,0.0,0.0,0.0,0.0,0.0,0.0,0.0,0.0,0.0,0.0,0.0,0.0,0.0,0.0,0.0,0.0,0.0,0.0,0.0,0.0,0.0,0.0,0.0,0.0,0.0,0.0,0.0,0.0,0.0,0.0,0.0,-2.3892,-2.5676,-2.6889,-2.6889,-2.6889,-2.6567,-2.5793,-2.377,-2.1767,-1.9917,-1.7226,0.0,0.0,0.0,0.0,0.0,0.0,0.0,0.0,0.0,0.0,0.0,0.0,0.0,0.0,0.0,0.0,0.0,0.0,0.0,0.0,0.0,0.0,0.0,0.0,0.0,0.0,0.0,0.0,0.0,0.0,0.0,0.0,0.0,0.0,0.0,0.0,0.0,0.0,0.0,0.0,0.0,0.0,0.0,0.0,0.0,0.0,0.0,0.0,0.0,0.0,0.0,0.0,0.0,-2.6884,-2.7263,-2.7241,-2.7781,-2.7996,-2.7968,-2.7085,-2.6801,-2.6914,-2.5965,0.0,0.0,0.0,0.0,0.0,0.0,0.0,0.0,0.0,0.0,0.0,0.0,0.0,0.0,0.0,0.0,0.0,0.0,0.0,0.0,0.0,0.0,0.0,0.0,-2.6145,-2.5708,-2.2214,0.0,0.0,0.0,0.0,0.0,0.0,0.0,0.0,0.0,0.0,0.0,-2.4712,-2.631,-2.7354,-2.7419,-2.7379,-2.714,-2.6675,-2.4354,-2.241,-2.1185,-1.8404,-1.6141,0.0,0.0,0.0,0.0,0.0,0.0,0.0,0.0,0.0,0.0,0.0,0.0,0.0,0.0,0.0,0.0,0.0,0.0,0.0,0.0,0.0,0.0,0.0,0.0,0.0,0.0,0.0,0.0,0.0,0.0,0.0,0.0,-2.1637,-2.2212,0.0,0.0,0.0,0.0,0.0,0.0,0.0,0.0,0.0,0.0,0.0,0.0,0.0,-2.5837,-2.6928,-2.7864,-2.8165,-2.779,-2.9782,-3.0498,-3.008,-3.0608,-3.0846,-3.0834,-3.0718,0.0,-2.7227,-2.7144,0.0,0.0,0.0,0.0,0.0,0.0,0.0,0.0,0.0,0.0,0.0,0.0,0.0,0.0,0.0,0.0,0.0,0.0,0.0,0.0,0.0,0.0,-2.7474,-2.733,-2.6907,-2.6252,0.0,-2.3937,-2.278,-2.1988,-2.1111,0.0,0.0,0.0,0.0,0.0,0.0,0.0,-2.4612,-2.6284,-2.7469,-2.7946,-2.757,-2.7291,-2.718,-2.4567,-2.2634,-2.2071,-1.9069,-1.7021,-1.6385,-1.4855,0.0,0.0,0.0,0.0,0.0,0.0,0.0,0.0,0.0,0.0,0.0,0.0,0.0,0.0,0.0,0.0,0.0,0.0,0.0,0.0,0.0,0.0,0.0,0.0,0.0,0.0,0.0,0.0,0.0,-2.2592,-2.371,-2.3194,-2.3911,-2.3607,0.0,0.0,0.0,0.0,0.0,0.0,0.0,0.0,0.0,-2.7551,-2.7515,-2.8038,-2.9196,-2.9946,-3.0344,-3.0432,-3.1386,-3.1901,-3.2001,-3.2227,-3.2382,-3.2382,-3.2382,-3.1461,-3.0006,-2.9576,-2.872,-2.7719,0.0,0.0,0.0,0.0,-2.9034,-2.9185,-3.1397,-3.2105,-3.1898,-3.1061,0.0,0.0,0.0,0.0,0.0,0.0,0.0,0.0,0.0,0.0,-2.984,-2.9548,-2.8905,-2.8172,-2.7595,-2.6659,-2.5288,0.0,-2.2613,-2.1929,-2.0103,0.0,0.0,0.0,0.0,-2.4324,-2.6043,-2.7401,-2.8298,-2.8499,-2.8348,-2.7959,-2.7331,-2.5096,-2.3363,-2.2634,-1.9986,-1.8154,-1.7447,-1.6229,-1.5245,0.0,0.0,0.0,0.0,0.0,0.0,0.0,0.0,0.0,0.0,0.0,0.0,0.0,0.0,0.0,0.0,0.0,0.0,0.0,0.0,0.0,0.0,0.0,0.0,0.0,0.0,0.0,0.0,-2.4418,-2.5422,-2.4238,-2.5796,-2.5647,0.0,0.0,0.0,0.0,0.0,0.0,-2.6484,-2.6622,-2.7589,-2.9617,-2.9732,-3.0244,-3.1235,-3.1637,-3.2026,-3.2441,-3.2441,-3.2667,-3.3124,-3.3124,-3.3124,-3.3124,-3.3124,-3.283,-3.2357,-3.1419,-3.0553,-2.9833,-2.9757,-2.9456,-2.9235,-3.0568,-3.128,-3.1919,-3.4323,-3.5429,-3.5564,-3.4397,-3.3679,-3.2781,-3.0176,0.0,0.0,0.0,0.0,-3.0861,-3.124,-3.1233,-3.1074,-3.0766,-3.0241,-2.9679,-2.9239,-2.8712,-2.7494,0.0,-2.4305,-2.3649,-2.1274,0.0,0.0,0.0,0.0,-2.5491,-2.7322,-2.835,-2.895,-2.9101,-2.8976,-2.8475,-2.7383,-2.5464,-2.3865,-2.2922,-2.0714,-1.916,-1.8525,-1.7535,-1.6668,-1.5937,0.0,0.0,0.0,0.0,0.0,0.0,0.0,0.0,0.0,0.0,0.0,0.0,0.0,0.0,0.0,0.0,0.0,0.0,0.0,0.0,0.0,0.0,0.0,0.0,0.0,0.0,0.0,0.0,0.0,-2.5488,-2.6946,0.0,0.0,0.0,0.0,-2.5532,-2.7373,-2.8625,-2.8895,-2.9361,-3.0094,-3.1266,-3.1763,-3.234,-3.2955,-3.3023,-3.3048,-3.3031,-3.3031,-3.3056,-3.3124,-3.3124,-3.3124,-3.3124,-3.3124,-3.3056,-3.2986,-3.1829,-3.1546,-3.1702,-3.1149,-3.0887,-3.1037,-3.2589,-3.3294,-3.3676,-3.5303,-3.6122,-3.6611,-3.7734,-3.6851,-3.5205,-3.4414,-3.326,0.0,0.0,-3.2418,-3.1689,-3.2338,-3.1225,-2.9896,-2.9856,-2.983,-2.9779,-2.9754,-2.9289,-2.8524,0.0,-2.6226,-2.5134,-2.3985,0.0,-2.3218,-2.3795,-2.4406,-2.5594,-2.7769,-2.8549,-2.9139,-2.9691,-2.9252,-2.846,-2.7394,-2.5444,-2.3852,-2.2784,-2.0933,-1.9863,-1.9824,-1.8613,-1.7734,-1.7328,-1.5596,0.0,0.0,0.0,0.0,0.0,0.0,0.0,0.0,0.0,0.0,0.0,0.0,0.0,0.0,0.0,0.0,0.0,0.0,0.0,0.0,0.0,0.0,0.0,0.0,0.0,0.0,0.0,0.0,-2.8451,-3.0392,0.0,-2.696,-2.8339,-2.9435,-2.9309,-3.0627,-3.1799,-3.2618,-3.3122,-3.3423,-3.35,-3.3734,-3.3579,-3.3111,-3.3432,-3.3608,-3.3608,-3.396,-3.4135,-3.4135,-3.4135,-3.4135,-3.411,-3.3759,-3.3608,-3.3545,-3.278,-3.2954,-3.3606,-3.2708,-3.2767,-3.345,-3.402,-3.4651,-3.5464,-3.6678,-3.7674,-3.8377,-3.8377,-3.7644,-3.6686,-3.6432,-3.5759,-3.4971,-3.4578,-3.4128,-3.3551,-3.2475,-3.1798,-3.1164,-3.0464,-3.0043,-2.9792,-2.9792,-2.9628,-2.9365,-2.8976,-2.7984,-2.6741,-2.5272,-2.546,-2.5624,-2.5109,-2.6113,-2.7344,-2.8449,-2.9139,-2.9566,-2.9767,-2.9616,-2.8881,-2.7412,-2.5816,-2.4255,-2.279,-2.1217,-2.0215,-1.9922,-1.9219,-1.8506,-1.7803,-1.6641,-1.5303,0.0,0.0,0.0,0.0,0.0,0.0,0.0,0.0,0.0,0.0,0.0,0.0,0.0,0.0,0.0,0.0,0.0,0.0,0.0,0.0,0.0,0.0,0.0,0.0,0.0,0.0,-3.1827,-3.0904,-3.3039,-3.3348,-3.0104,-3.1478,-3.2512,-3.2409,-3.3522,-3.4475,-3.5097,-3.5502,-3.555,-3.5238,-3.5412,-3.5037,-3.3922,-3.4472,-3.459,-3.4173,-3.455,-3.468,-3.468,-3.468,-3.468,-3.4655,-3.4336,-3.4173,-3.4148,-3.3784,-3.4478,-3.565,-3.4221,-3.4262,-3.521,-3.521,-3.5868,-3.6891,-3.7979,-3.8819,-3.9349,-3.8886,-3.8437,-3.8078,-3.8078,-3.7808,-3.7361,-3.6661,-3.5964,-3.5023,-3.3335,-3.2431,-3.1669,-3.0577,-3.0055,-2.9792,-2.9792,-2.9792,-2.9792,-2.9792,-2.9189,-2.826,-2.6942,-2.7344,-2.7582,-2.6829,-2.767,-2.8586,-2.9151,-2.9553,-2.9792,-2.9792,-2.9792,-2.9104,-2.7436,-2.5988,-2.4482,-2.2801,-2.1217,-2.0215,-1.9922,-1.9228,-1.8594,-1.8018,-1.7021,-1.5771,-1.4328,0.0,0.0,0.0,0.0,0.0,0.0,0.0,0.0,0.0,0.0,0.0,0.0,0.0,0.0,0.0,0.0,0.0,0.0,0.0,0.0,0.0,0.0,0.0,-2.9636,-3.1943,-3.3358,-3.273,-3.4645,-3.4852,-3.1805,-3.4274,-3.5668,-3.4813,-3.6091,-3.6712,-3.6328,-3.6316,-3.629,-3.6265,-3.6913,-3.6716,-3.5548,-3.6214,-3.5921,-3.4751,-3.4718,-3.4731,-3.4731,-3.4731,-3.4731,-3.4731,-3.4705,-3.4705,-3.4705,-3.4726,-3.6013,-3.7772,-3.5596,-3.5372,-3.6292,-3.6292,-3.6972,-3.8023,-3.9031,-3.9388,-3.9388,-3.9388,-3.9388,-3.9388,-3.9388,-3.9373,-3.9343,-3.9343,-3.7809,-3.5958,-3.4861,-3.3,-3.1163,-3.0068,-2.9817,-2.9817,-2.9792,-2.9792,-2.9792,-2.9792,-2.9792,-2.9616,-2.9013,-2.8913,-2.8913,-2.8913,-2.8913,0.0,-2.9716,-2.9792,-2.9792,-2.9792,-2.9792,-2.9116,-2.746,-2.6,-2.4493,-2.2801,-2.0946,-1.9912,-1.9912,-1.8711,-1.8047,-1.8027,-1.678,-1.5703,-1.4844,0.0,0.0,0.0,0.0,0.0,0.0,0.0,0.0,0.0,0.0,0.0,0.0,0.0,0.0,0.0,0.0,0.0,0.0,0.0,0.0,0.0,-2.9385,-3.1674,-3.2332,-3.4292,-3.5652,-3.5629,-3.6627,-3.6948,-3.6112,-3.6782,-3.7496,-3.8055,-3.845,-3.8627,-3.8531,-3.8531,-3.8385,-3.8075,-3.8261,-3.7682,-3.6227,-3.6809,-3.6462,-3.5282,-3.5717,-3.5906,-3.5906,-3.5906,-3.5906,-3.5893,-3.5445,-3.527,-3.5245,-3.4843,-3.6013,-3.7938,-3.6534,-3.7139,-3.8814,-3.8814,-3.918,-3.9654,-3.9465,-3.9388,-3.9388,-3.9388,-3.9388,-3.9388,-3.9388,-3.9065,-3.8519,-3.7842,-3.6865,-3.5656,-3.3894,-3.3013,-3.2187,-3.0743,-3.0394,-3.0281,-2.988,-2.9792,-2.9792,-2.9792,-2.9792,-2.9741,-2.9578,-2.9553,-2.9553,-2.9553,-2.9553,0.0,-2.9779,-2.9792,-2.9792,-2.9792,-2.9792,-2.9264,-2.7973,-2.6246,-2.4531,-2.2928,-2.0984,-1.9912,-1.9912,-1.9287,-1.8789,-1.8432,-1.7174,-1.6436,0.0,0.0,0.0,0.0,0.0,0.0,0.0,0.0,0.0,0.0,0.0,0.0,0.0,0.0,0.0,0.0,0.0,0.0,0.0,0.0,0.0,0.0,-3.1958,-3.4188,-3.537,-3.6552,-3.7436,-3.7842,-3.8223,-3.8472,-3.8472,-3.8472,-3.8745,-3.9337,-3.9388,-3.9388,-3.9388,-3.9679,-3.9721,-3.9498,-4.0026,-3.965,-3.8211,-3.8312,-3.7798,-3.6583,-3.6476,-3.6405,-3.6405,-3.6405,-3.6405,-3.6392,-3.6031,-3.5893,-3.5868,-3.5542,-3.6463,0.0,0.0,0.0,0.0,0.0,-4.0607,-4.0756,-4.0367,-4.0053,-3.9755,-3.9306,-3.8966,-3.8671,-3.8219,-3.7779,-3.735,-3.6826,-3.6065,-3.512,-3.3686,-3.3026,-3.2388,-3.1221,-3.0947,-3.0796,-3.0256,-3.0143,-3.0068,-2.9829,-2.9792,0.0,-2.9792,-2.9792,-2.9792,-2.9792,-2.9792,-2.9792,-2.9792,-2.9792,-2.9792,-2.9792,-2.9792,-2.9434,-2.8529,-2.6446,0.0,0.0,0.0,-1.9668,-1.9141,-1.8887,0.0,0.0,0.0,0.0,0.0,0.0,0.0,0.0,-1.6369,-1.6251,0.0,0.0,0.0,0.0,0.0,0.0,0.0,0.0,0.0,0.0,0.0,0.0,0.0,0.0,0.0,0.0,-3.4412,-3.6372,-3.8242,-3.8497,-3.8736,-3.9313,-3.9388,-3.9388,-3.9388,-3.9388,-3.9388,-3.9388,-3.9388,-3.9418,-3.9493,0.0,0.0,0.0,0.0,-4.1834,-4.0711,-4.0181,-3.9271,-3.8107,-3.693,-3.6405,-3.6405,-3.6405,-3.6405,-3.6405,-3.6405,-3.6405,-3.6405,-3.6405,-3.715,-3.8317,-3.8457,-3.9785,-4.1594,-4.1519,-4.1527,-4.1512,-4.1452,0.0,0.0,-3.9242,-3.8505,-3.7787,-3.6652,-3.6308,-3.6294,-3.6225,-3.5547,-3.4737,-3.4085,-3.3206,-3.2319,-3.1653,-3.1486,-3.1336,-3.0821,-3.0658,-3.047,-2.998,-2.9829,-2.9792,-2.9792,-2.9792,-2.9792,-2.9792,-2.9792,-2.9792,-2.9792,-2.9792,-2.9792,-2.9792,0.0,0.0,-2.9026,-2.6827,-2.5152,-2.4442,-2.1656,-1.9551,-1.8418,-1.8369,-1.8369,-1.8369,-1.832,-1.8672,-1.9434,-1.9434,-1.9648,-2.001,-1.7641,-1.7171,0.0,0.0,0.0,0.0,0.0,0.0,0.0,0.0,0.0,0.0,0.0,0.0,0.0,0.0,0.0,-3.3739,-3.5759,-3.7554,-3.9005,-3.923,-3.9275,-3.9373,-3.9388,-3.9388,-3.9388,-3.9388,-3.9388,-3.9388,-3.9388,-3.9649,-4.0187,-4.0337,-4.0891,-4.1991,-4.2261,-4.2095,-4.14,-4.0391,-3.9271,-3.8107,0.0,0.0,-3.6405,-3.6405,-3.6405,-3.6405,-3.6405,-3.6405,-3.6405,-3.6405,-3.7645,-3.9653,-4.0562,-4.1747,-4.2895,-4.241,-4.2216,-4.2126,-4.1602,-4.1332,-4.1024,-3.9818,-3.9362,-3.8964,-3.7391,-3.6931,0.0,-3.635,-3.6053,-3.5721,-3.4751,-3.4369,-3.3825,-3.2386,-3.2051,-3.1901,-3.1361,-3.0909,-3.0583,-3.0482,-3.0093,-2.9792,-2.9792,-2.9792,-2.9792,-2.9792,-2.9792,-2.9792,-2.9792,-2.9792,-2.9792,-2.9792,-2.9792,-2.9741,-2.9641,-2.8057,-2.6453,-2.5097,-2.2451,-2.083,-2.0576,-2.0576,-2.0576,-2.0576,-2.0254,-2.0194,-2.0351,-2.0351,-2.0547,-2.0908,-1.9736,-1.9492,0.0,0.0,0.0,0.0,0.0,0.0,0.0,0.0,0.0,0.0,0.0,-2.8098,-3.0167,0.0,-3.4158,-3.6118,-3.7255,-3.8257,-3.9239,-3.9388,-3.9388,-3.9388,-3.9388,-3.9388,-3.9388,-3.9388,-3.9388,-3.9388,-3.9723,-4.0053,-4.0382,-4.1025,-4.1722,-4.2381,-4.2671,-4.2709,-4.2452,-4.0746,-3.9593,-3.8961,-3.7243,-3.6709,-3.7243,-3.7243,-3.7243,-3.7243,-3.7243,-3.693,-3.6452,-3.7023,-3.8302,-4.0029,-4.1169,-4.229,-4.3245,-4.297,-4.2851,-4.2712,-4.1829,-4.1675,-4.1525,-3.9211,-3.863,-3.8487,-3.6492,-3.5716,-3.5426,-3.5123,-3.4875,-3.4526,-3.4024,-3.3911,-3.3678,-3.2832,-3.2641,-3.2491,-3.1926,-3.1599,-3.1336,-3.106,-3.057,-3.0206,-3.0206,-2.998,-2.9792,-2.9792,-2.9792,-2.9792,-2.9792,-2.9792,-2.9792,-2.9792,-2.9792,-2.9792,-2.9792,-2.784,-2.5994,-2.4439,-2.2574,-2.1455,-2.121,-2.119,-2.119,-2.119,-2.1016,-2.1006,-2.1271,-2.1271,-2.1455,-2.1824,-2.1416,-2.1221,0.0,0.0,0.0,0.0,0.0,0.0,0.0,-2.5037,-2.5567,-2.8368,-2.944,-3.0673,-3.3277,-3.5031,-3.65,-3.7862,-3.8376,-3.8781,-3.9298,-3.9388,-3.9388,-3.9388,-3.9388,-3.9388,-3.9388,-3.9388,-3.9388,-3.9388,-4.0023,-4.0457,-4.0591,-4.1752,-4.2455,-4.259,-4.306,-4.329,-4.329,-4.1057,-3.9899,-3.9855,-3.7736,-3.7196,-3.8107,-3.8334,-3.8334,-3.8107,-3.7848,-3.7368,-3.6803,-3.7984,-3.9125,-4.0318,-4.1476,-4.2508,-4.329,-4.329,-4.329,-4.3155,-4.2249,-4.2089,-4.1729,-3.8783,-3.7952,-3.7704,-3.5507,-3.4575,-3.4173,-3.396,-3.3583,-3.3206,-3.3149,-3.3124,-3.3124,-3.3124,-3.3124,-3.2955,-3.2478,-3.229,-3.2077,-3.1637,-3.1122,-3.0733,-3.0633,-3.0244,-2.9917,-2.9817,-2.9792,-2.9792,-2.9792,-2.9792,-2.9792,-2.9792,-2.9792,-2.9792,-2.9792,-2.7411,-2.5418,-2.4151,-2.2878,-2.1973,-2.158,-2.1561,-2.1561,-2.1561,-2.1561,-2.1777,-2.2129,-2.2129,-2.2305,-2.2637,-2.2637,-2.2451,-2.4735,-2.4073,-2.4103,-2.5734,-2.539,-2.5815,0.0,-3.0557,-3.0455,-3.317,-3.4707,-3.5396,-3.4868,-3.6566,-3.7827,-3.7114,-3.8281,-3.9334,-3.9373,-3.9388,-3.9388,-3.9388,-3.9388,-3.9388,-3.9388,-3.9388,-3.9388,-3.9388,-4.0023,-4.0651,-4.125,-4.2006,-4.2626,-4.317,-4.3245,-4.329,-4.329,-4.1057,-3.9899,-3.9899,-3.8559,-3.7984,-3.8153,-3.9227,-3.9094,-3.8017,-3.7023,-3.7103,-3.7984,-3.9183,-4.0347,-4.1504,-4.2684,-4.321,-4.329,-4.329,-4.329,-4.329,-4.3155,-4.2504,-4.1445,-4.0048,-3.8901,-3.7772,-3.5948,-3.537,-3.5107,-3.4173,-3.3859,-3.3696,-3.3206,-3.3124,-3.3124,-3.3124,-3.3124,-3.3056,-3.2993,-3.2579,-3.219,-3.2127,-3.1675,-3.116,-3.0696,-3.057,-3.0357,-2.9867,-2.9792,-2.9792,-2.9792,-2.9792,-2.9792,-2.9792,-2.9792,-2.9792,-2.9792,-2.7711,-2.633,-2.6192,-2.4163,-2.2935,-2.2886,-2.2886,-2.2886,-2.2886,-2.2886,-2.2906,-2.2955,-2.2955,-2.2984,-2.3023,-2.3023,-2.3003,-2.6941,-2.6737,-2.6707,-2.7545,-2.8177,-2.9298,-3.1899,-3.1989,-3.2294,-3.5096,-3.6037,-3.6334,-3.6354,-3.7797,-3.8698,0.0,-3.8143,-3.8708,-3.9301,-3.887,-3.8561,-3.8784,-3.917,-3.9388,-3.9388,-3.9388,-3.9388,-3.9388,-4.0382,-4.1085,-4.1407,-4.2357,-4.3045,-4.329,-4.329,-4.329,-4.329,-4.1057,-3.9899,-3.9899,-3.7997,-3.7815,-3.9183,-3.9681,-3.9972,-3.9974,-3.7507,-3.7474,-3.9183,-3.9681,-4.0575,-4.1726,-4.286,-4.329,-4.329,-4.329,-4.329,-4.321,-4.2548,-4.2412,-4.2167,-3.9653,-3.9006,-3.8742,-3.6662,-3.5805,-3.5408,-3.4944,-3.4625,-3.4248,-3.3696,-3.3558,-3.347,-3.3156,-3.3124,-3.3124,-3.3124,-3.288,-3.2717,-3.2717,-3.2252,-3.18,-3.1587,-3.1022,-3.0532,-3.0306,-2.9993,-2.9792,-2.9792,-2.9792,-2.9792,-2.9792,-2.9792,-2.9792,-2.9792,-2.8319,-2.7157,-2.6565,-2.4967,-2.38,-2.3135,-2.3091,-2.3091,-2.3091,-2.3091,-2.3091,-2.3091,-2.3091,-2.3091,-2.3091,-2.3091,-2.3091,-2.8137,-2.8457,-2.8771,-2.9505,-3.0881,-3.2303,-3.338,-3.3627,-3.4299,-3.657,-3.7044,-3.7153,-3.7473,-3.8374,-3.8913,-3.8335,-3.8062,-3.8289,-3.9271,-3.8583,-3.815,-3.8635,-3.8945,-3.9215,-3.9394,-3.9388,-3.9388,-3.9388,-4.0636,-4.1422,-4.1422,-4.2626,-4.329,-4.329,-4.329,-4.3155,-4.282,-4.0887,-3.9724,-3.936,-3.7678,-3.7782,-3.9404,-3.9768,-4.0532,-4.1462,-3.8604,-3.8527,-4.0361,-4.0361,-4.1042,-4.2152,-4.2981,-4.329,-4.329,-4.329,-4.329,-4.317,-4.2371,-4.2412,-4.2371,-3.9508,-3.8961,-3.9019,-3.7023,-3.6081,-3.5683,-3.5545,-3.5207,-3.4781,-3.4274,-3.4123,-3.3985,-3.3432,-3.3307,-3.3269,-3.3106,-3.3124,-3.3124,-3.3124,-3.2742,-3.2403,-3.224,-3.1574,-3.1009,-3.0859,-3.0369,-2.9967,-2.9817,-2.9792,-2.9792,-2.9792,-2.9792,-2.9792,-2.9792,-2.8767,-2.7643,-2.6565,-2.542,-2.4296,-2.3135,-2.3091,-2.3091,-2.3091,-2.3091,-2.3091,-2.3091,-2.3091,-2.3091,-2.3091,-2.3091,-2.3091,-2.763,-2.8109,-2.922,-3.1764,-3.2916,-3.3948,-3.5923,-3.6817,-3.7445,-3.8182,-3.8835,-3.9009,-3.7974,-3.8135,-3.8282,-3.7887,-3.8135,-3.8611,-3.9284,-3.8805,-3.8626,-3.9269,-3.8811,-3.8691,0.0,-3.9388,-3.9388,-3.9388,-4.0636,-4.1422,-4.1422,-4.2626,-4.329,-4.329,-4.329,-4.2765,-4.167,-4.049,-3.9316,-3.8153,-3.8062,-3.8075,-3.8198,-3.936,-4.0532,-4.1545,-4.0318,-4.0447,-4.1545,-4.1545,-4.2208,-4.325,-4.329,-4.329,-4.329,-4.329,-4.329,-4.329,-4.325,-4.2548,-4.1462,-4.0232,-3.9094,-3.7939,-3.6756,-3.6405,-3.6267,-3.5646,-3.5495,-3.5345,-3.4793,-3.47,-3.4562,-3.401,-3.3872,-3.3721,-3.3194,-3.3124,-3.3124,-3.3124,-3.3111,-3.2867,-3.2303,-3.219,-3.1976,-3.1449,-3.0922,-3.0394,-2.9867,-2.9792,-2.9792,-2.9792,-2.9792,-2.9792,-2.9792,-2.8767,-2.7643,-2.6565,-2.542,-2.4296,-2.3135,-2.3091,-2.3091,-2.3091,-2.3091,-2.3091,-2.3091,-2.3091,-2.3091,-2.3091,-2.3091,-2.3091,-2.8813,-3.0028,-3.1614,-3.338,-3.4666,-3.5878,-3.7404,-3.7913,-3.8123,-3.8347,-3.8571,-3.8361,-3.7168,-3.7392,-3.7689,-3.7547,-3.6844,-3.7057,-3.9088,-3.7978,-3.7397,-3.8594,-3.8527,0.0,0.0,0.0,0.0,-3.9388,-4.0636,-4.1422,-4.1422,-4.2626,-4.329,-4.329,-4.329,-4.3115,-4.2725,-4.0845,-4.0059,-4.0419,-4.0419,-4.0419,-4.0462,-4.0859,-4.1643,-4.2629,-4.0717,-4.0972,-4.2684,-4.1891,-4.229,-4.329,-4.329,-4.329,-4.329,-4.329,-4.329,-4.329,-4.329,-4.3036,-4.2548,-4.1393,-4.0218,-3.905,-3.7906,-3.7023,-3.6367,-3.6132,-3.6094,-3.5956,-3.537,-3.5219,-3.5082,-3.4575,-3.4449,-3.4299,-3.3746,-3.3621,-3.352,-3.3156,-3.3124,-3.3061,-3.2817,-3.2466,-3.2026,-3.1474,-3.0947,-3.0419,-2.9867,-2.9792,-2.9792,-2.9792,-2.9792,-2.9792,-2.9792,-2.9456,-2.8727,-2.7614,-2.6543,-2.5431,-2.4296,-2.3507,-2.3091,-2.3091,-2.3091,-2.3091,-2.3091,-2.3091,-2.3091,-2.3091,-2.3091,-2.3091,-3.0268,-3.1719,-3.335,-3.5402,-3.6522,-3.7449,-3.8512,-3.8556,-3.8317,-3.8078,-3.7868,-3.7389,-3.6327,-3.6252,-3.6522,-3.7,-3.6314,-3.6518,-3.8737,-3.7652,-3.7088,-3.8251,-3.8182,-3.7958,0.0,0.0,0.0,-3.9065,-4.0502,-4.1422,-4.1422,-4.2626,-4.329,-4.329,-4.329,-4.3115,-4.2684,-4.1225,-4.0661,-4.1,-4.1,-4.1211,-4.1587,-4.1587,-4.2208,-4.321,-4.174,-4.1961,-4.325,-4.2508,-4.2644,-4.329,-4.329,-4.329,-4.329,-4.329,-4.329,-4.329,-4.329,-4.329,-4.3115,-4.1988,-4.1127,-4.0232,-3.859,-3.7586,-3.693,-3.6499,-3.6405,-3.6329,-3.5931,-3.583,-3.5705,-3.5107,-3.4969,-3.4818,-3.4311,-3.4035,-3.3796,-3.3432,-3.3206,-3.3124,-3.3124,-3.2767,-3.2328,-3.1763,-3.1399,-3.0922,-3.0181,-3.0093,-3.0018,-2.9817,-2.9792,-2.9792,-2.9792,-2.9792,-2.9314,-2.8176,-2.7452,-2.6378,-2.4872,-2.4092,-2.3507,-2.3091,-2.3091,-2.3091,-2.3091,-2.3091,-2.3091,-2.3091,-2.3091,-2.3091,-3.1928,-3.317,-3.4502,-3.7614,-3.8422,-3.8601,-3.923,-3.8841,-3.8138,-3.7404,-3.6761,-3.6118,-3.5385,-3.4801,-3.4878,-3.6133,-3.6413,-3.6937,-3.8212,-3.7849,-3.7664,0.0,0.0,0.0,0.0,0.0,0.0,-3.8437,0.0,-4.1422,-4.1422,-4.2626,-4.329,-4.329,-4.329,-4.2765,-4.1726,-4.1684,-4.1127,-3.9986,-4.0029,-4.0618,-4.1684,-4.1684,-4.229,-4.329,-4.329,-4.329,-4.329,-4.329,-4.329,-4.329,-4.329,-4.329,-4.329,-4.329,-4.329,-4.329,-4.329,-4.329,-4.3115,-4.2029,-4.1629,-4.1197,-3.8934,-3.8198,-3.7848,-3.6803,-3.6452,-3.6405,-3.6405,-3.6405,-3.6279,-3.5658,-3.5545,-3.5395,-3.4843,-3.4349,-3.3972,-3.3947,-3.3495,-3.3106,-3.3081,-3.3124,-3.2893,-3.234,-3.2252,-3.1876,-3.0796,-3.0633,-3.0419,-2.9892,-2.9817,-2.9792,-2.9792,-2.9792,-2.9326,-2.8255,-2.8096,-2.7064,-2.4957,-2.4787,-2.4211,-2.3135,-2.3091,-2.3091,-2.3091,-2.3091,-2.3091,-2.3091,-2.3091,-2.3091,-3.3529,-3.5534,-3.7345,-3.8182,-3.8781,-3.9065,-3.8736,-3.8138,-3.7195,-3.5564,-3.4711,-3.3739,-3.2093,-3.2856,-3.3858,-3.4203,-3.5266,0.0,-3.8167,-3.7987,0.0,-3.9017,-3.8556,-3.8197,-3.8377,-3.8542,0.0,0.0,-4.0247,-4.1422,-4.1422,-4.2626,-4.329,-4.329,-4.329,-4.3155,-4.286,-4.286,-4.229,-4.1169,-4.2044,-4.2603,-4.286,-4.286,-4.3036,-4.329,-4.329,-4.329,-4.329,-4.329,-4.329,-4.329,-4.329,-4.329,-4.329,-4.329,-4.329,-4.329,-4.329,-4.329,-4.325,-4.2941,-4.229,-4.1504,-4.0887,-3.9508,-3.8017,-3.7756,-3.707,-3.6405,-3.6405,-3.6405,-3.6367,-3.6194,-3.6157,-3.6006,-3.5408,-3.5182,-3.4956,-3.4587,-3.406,-3.3558,-3.3156,-3.3124,-3.3074,-3.288,-3.2855,-3.2453,-3.1336,-3.0859,-3.0557,-3.0419,-3.0043,-2.9792,-2.9792,-2.9792,-2.9663,-2.9365,-2.7827,-2.6637,-2.6099,-2.4425,-2.3387,-2.3101,-2.3091,-2.3091,-2.3091,-2.3091,-2.3091,-2.3091,-2.3091,-2.3091,-3.5325,-3.7045,-3.8467,-3.8766,-3.8901,-3.8721,-3.7764,-3.6806,-3.5474,-3.32,-3.2228,-3.1255,-2.9535,-3.0836,-3.2287,-3.2587,-3.4381,0.0,-3.7754,-3.7763,-3.7943,0.0,-3.8631,0.0,-3.8392,-3.8661,-3.8841,0.0,-4.0412,-4.1422,-4.1422,-4.2626,-4.329,-4.329,-4.329,-4.329,-4.329,-4.329,-4.2981,-4.233,-4.2981,-4.329,-4.329,-4.329,-4.329,-4.329,0.0,-4.329,-4.329,-4.329,-4.329,-4.329,-4.329,-4.329,-4.329,-4.329,-4.3484,-4.3723,-4.3723,-4.3917,-4.4152,-4.3813,-4.3123,-4.2293,-4.21,-4.0886,-3.942,-3.8366,-3.7632,-3.7023,-3.6534,-3.6405,-3.6405,-3.6405,-3.6405,-3.6329,-3.5968,-3.5671,-3.5332,-3.4781,-3.4274,-3.3796,-3.3483,-3.3275,-3.3124,-3.3124,-3.3124,-3.2855,-3.2215,-3.165,-3.1223,-3.0984,-3.0683,-3.0407,-3.0168,-3.0156,-3.0043,-2.9804,-2.8171,-2.7005,-2.6524,-2.4798,-2.3594,-2.3091,-2.3091,-2.3091,-2.3091,-2.3091,-2.3091,-2.3091,-2.3091,-2.3091,-3.6926,-3.7958,-3.8646,-3.9155,-3.8766,-3.7898,-3.6537,-3.5147,-3.335,-3.0776,-2.9684,-2.8828,-2.757,-2.8921,-3.0507,-3.1241,-3.3634,-3.5818,-3.7105,-3.7434,-3.7749,-3.8317,-3.8467,-3.8527,-3.8527,-3.9065,-3.9388,-3.9388,-4.0561,-4.1332,-4.1422,-4.2626,-4.329,-4.329,-4.329,-4.329,-4.329,-4.329,-4.329,-4.329,-4.329,-4.329,-4.329,-4.329,-4.329,-4.329,-4.329,-4.329,-4.329,-4.329,-4.329,-4.329,-4.329,-4.329,-4.3305,-4.3394,-4.3783,-4.4332,-4.4407,-4.4811,-4.52,-4.4631,-4.4062,-4.3488,-4.3071,-4.2461,-4.1425,-3.9292,-3.8575,-3.8167,-3.6956,-3.6628,-3.6581,-3.6452,-3.6405,-3.6405,-3.6405,-3.5994,-3.5445,-3.4893,-3.4449,-3.4098,-3.4022,-3.3558,-3.3224,-3.3224,-3.3174,-3.3124,-3.3124,-3.2566,-3.2026,-3.1549,-3.1436,-3.121,-3.0758,-3.0721,-3.052,-3.003,-2.8934,-2.7894,-2.6964,-2.5699,-2.4483,-2.3432,-2.3266,-2.3179,-2.3179,-2.3179,-2.3208,-2.3266,-2.3266,-2.3266,-3.718,-3.8302,-3.9125,-3.8676,-3.8063,-3.709,-3.5267,-3.338,-3.1421,-2.9355,-2.7949,-2.6871,-2.6093,-2.759,-2.931,-3.0492,-3.2916,-3.5147,-3.6462,-3.7554,-3.8257,0.0,-3.8901,-3.9245,-3.9245,-3.9313,0.0,0.0,-4.0127,-4.0816,-4.1354,-4.2626,-4.329,-4.329,-4.329,-4.329,-4.329,-4.329,-4.329,-4.329,-4.329,-4.329,-4.329,-4.329,-4.329,-4.329,-4.329,0.0,-4.329,-4.329,-4.329,-4.329,-4.329,-4.329,-4.3364,-4.3902,-4.4212,-4.4392,-4.493,-4.52,-4.5274,-4.5155,-4.505,-4.4934,-4.4858,-4.4114,-4.307,-4.2081,-4.1088,-3.9946,-3.8226,-3.7802,-3.7586,-3.6628,-3.6405,-3.6405,-3.6405,-3.6329,-3.6056,-3.547,-3.5282,-3.5069,-3.4663,-3.4123,-3.3759,-3.3759,-3.337,-3.3124,-3.3124,-3.2566,-3.2177,-3.2077,-3.1662,-3.1348,-3.126,-3.1248,-3.121,-3.1122,-3.008,-2.9415,-2.9248,-2.7194,-2.5753,-2.519,-2.4177,-2.3682,-2.3682,-2.3682,-2.3857,-2.4153,-2.4153,-2.4153,-3.7749,-3.8646,-3.926,-3.8556,-3.7659,-3.6222,-3.3559,-3.142,-2.9313,-2.6996,-2.5734,-2.4941,-2.4627,-2.6198,-2.7874,-2.8816,-3.0911,-3.3125,-3.516,-3.6282,-3.727,-3.8272,-3.899,-3.9388,-3.9388,-3.9388,-3.9388,-3.9388,-4.0023,-4.0681,-4.1339,-4.2626,-4.329,-4.329,-4.329,-4.329,-4.329,-4.329,-4.329,-4.329,-4.329,-4.329,-4.329,-4.329,-4.329,-4.329,-4.329,0.0,-4.329,-4.329,-4.329,-4.329,-4.329,-4.329,-4.3364,-4.4062,-4.4526,-4.493,-4.5603,-4.6052,-4.6337,-4.6337,-4.5858,-4.5364,-4.5723,-4.5181,-4.429,-4.34,-4.2681,-4.1693,-3.9237,-3.8602,-3.826,-3.6738,-3.6405,-3.6405,-3.6405,-3.6405,-3.6329,-3.6019,-3.5683,-3.542,-3.5157,-3.4688,-3.4223,-3.3935,-3.3671,-3.3395,-3.3162,-3.283,-3.2667,-3.2667,-3.2428,-3.2152,-3.1838,-3.1813,-3.17,-3.1411,-3.0413,-2.9815,-2.9815,-2.8145,-2.6822,-2.5969,-2.5413,-2.4771,-2.4111,-2.4111,-2.4219,-2.4414,-2.4414,-2.4414,-3.7958,-3.8571,-3.8856,-3.8317,-3.7,-3.504,-3.1974,-2.9579,-2.729,-2.4874,-2.3759,-2.3281,-2.355,-2.4881,-2.6348,-2.7615,-2.9232,-3.124,-3.3919,-3.4981,-3.6163,-3.7958,-3.8781,0.0,-3.9373,-3.9388,0.0,-3.9388,-4.0157,0.0,-4.1587,-4.2566,-4.3155,-4.329,-4.329,-4.329,-4.329,-4.329,-4.329,-4.329,-4.329,-4.329,-4.329,-4.329,-4.329,-4.329,-4.329,0.0,0.0,-4.329,-4.329,-4.329,-4.329,-4.329,-4.3394,-4.4227,-4.4855,-4.5409,-4.6247,-4.6875,-4.7309,-4.7309,-4.6591,-4.5828,-4.6367,-4.6157,-4.5511,-4.4484,-4.3994,-4.3166,-4.0358,-3.9336,-3.8601,-3.6801,-3.6405,-3.6405,-3.6405,-3.6405,-3.6405,-3.6405,-3.6019,-3.5671,-3.5671,-3.5219,-3.4705,-3.4324,-3.4048,-3.3746,-3.3307,-3.3156,-3.3124,-3.3124,-3.3124,-3.2893,-3.2441,-3.239,-3.2215,-3.1775,-3.0977,-3.0501,-3.0501,-2.9398,-2.8285,-2.7248,-2.6679,-2.5933,-2.4957,-2.469,-2.46,-2.4697,-2.4697,-2.4697,-3.7165,-3.7539,-3.7584,-3.7524,-3.5624,-3.3215,-3.1091,-2.8158,-2.5465,-2.3999,-2.2712,-2.2218,-2.3385,-2.3744,-2.4881,-2.7993,-2.916,-3.0582,-3.3215,-3.4696,-3.6013,-3.7345,0.0,0.0,-3.9328,-3.9388,-3.9388,-3.9388,-4.0591,0.0,-4.2276,-4.2425,-4.2716,-4.3275,-4.329,-4.329,-4.329,-4.329,-4.329,-4.329,-4.329,-4.329,-4.329,-4.329,-4.329,-4.329,-4.329,0.0,0.0,-4.329,-4.329,-4.329,-4.329,-4.329,-4.3439,-4.4751,-4.5244,-4.5484,-4.677,-4.7249,-4.7309,-4.7309,-4.7219,-4.713,-4.7189,-4.7174,-4.6952,-4.6254,-4.5214,-4.3897,-4.1959,-4.0197,-3.8508,-3.6801,-3.6405,-3.6405,-3.6405,-3.6405,-3.6405,-3.6405,-3.6367,-3.6329,-3.6329,-3.583,-3.5408,-3.5357,-3.4537,-3.3884,-3.3834,-3.3382,-3.3124,-3.3124,-3.3124,-3.3056,-3.3006,-3.3006,-3.3023,-3.2973,-3.2832,-3.2789,-3.2789,-3.1588,-3.0678,-3.0217,-2.7984,-2.6777,-2.6685,-2.5555,-2.5215,-2.5567,-2.5567,-2.5567,-3.6013,-3.6821,-3.7315,-3.6941,-3.516,-3.2871,-3.0492,-2.7395,-2.4619,-2.3332,-2.2009,-2.15,-2.2823,-2.3062,-2.3864,-2.6393,-2.7021,-2.8113,-3.0761,-3.2273,-3.3872,-3.6013,-3.718,0.0,0.0,0.0,-3.9388,-3.9388,-3.9903,0.0,-4.1145,-4.2297,-4.306,-4.329,-4.329,-4.329,-4.329,-4.329,-4.329,-4.329,-4.329,-4.329,-4.329,-4.329,-4.329,-4.329,-4.329,0.0,0.0,-4.329,-4.329,-4.329,-4.329,-4.329,-4.3454,-4.4811,-4.5289,-4.5484,-4.683,-4.7309,-4.7309,-4.7309,-4.7309,-4.7309,-4.7309,-4.7309,-4.7249,-4.6995,-4.6545,-4.5537,-4.295,-4.0101,-3.7709,-3.7041,-3.6644,-3.6405,-3.6405,-3.6405,-3.6405,-3.6405,-3.6405,-3.6405,-3.6405,-3.6182,-3.5931,-3.5545,-3.5132,-3.4731,-3.4437,-3.4211,-3.3935,-3.3608,-3.3269,-3.3124,-3.3124,-3.3124,-3.3124,-3.3124,-3.3124,-3.3124,-3.3124,-3.2612,-3.1911,-3.0969,-2.9297,-2.8028,-2.7306,-2.6072,-2.5566,-2.5693,-2.5693,-2.5693,-3.4861,-3.5863,-3.6492,-3.6252,-3.4532,-3.2287,-2.9849,-2.6707,-2.3932,-2.2673,-2.1335,-2.0752,-2.1909,-2.2283,-2.2987,-2.4717,-2.551,-2.6752,-2.9262,-3.0717,-3.2407,-3.4906,0.0,-3.7375,0.0,-3.9185,-3.9388,-3.9388,0.0,0.0,-4.0367,-4.1893,-4.2851,-4.3045,-4.32,-4.329,-4.329,-4.329,-4.329,-4.329,-4.329,-4.329,-4.329,-4.329,-4.329,-4.329,-4.329,0.0,0.0,-4.329,-4.329,-4.329,-4.329,-4.329,-4.3454,-4.4811,-4.5289,-4.5484,-4.683,-4.7309,-4.7309,-4.7309,-4.7309,-4.7309,-4.7309,-4.7309,-4.7309,-4.7309,-4.6785,-4.5486,-4.2616,-3.9672,-3.7349,-3.7023,-3.6681,-3.6405,-3.6405,-3.6405,-3.6405,-3.6405,-3.6405,-3.6405,-3.6405,-3.6405,-3.6279,-3.5843,-3.5596,-3.5357,-3.4969,-3.4781,-3.4575,-3.4186,-3.3658,-3.3257,-3.3093,-3.3124,-3.3124,-3.3124,-3.3124,-3.3124,-3.3124,-3.3124,-3.2655,-3.1777,-3.0226,-2.8993,-2.8132,-2.6476,-2.5693,-2.5693,-2.5693,-2.5693,-3.38,-3.4533,-3.4698,-3.5355,-3.3484,-3.1017,-2.9056,-2.6019,-2.3251,-2.1964,-2.0632,-1.9914,-2.0602,-2.1261,-2.2128,-2.3415,-2.5285,-2.7275,-2.9322,-3.0717,-3.2243,0.0,0.0,-3.6028,-3.73,-3.8631,-3.9388,-3.9388,0.0,0.0,-4.0397,-4.104,-4.1737,-4.2396,-4.3,-4.329,-4.329,-4.329,-4.329,-4.329,-4.329,-4.329,-4.329,-4.329,-4.329,-4.329,0.0,0.0,0.0,-4.329,-4.329,-4.329,-4.329,-4.329,-4.3454,-4.4811,-4.5289,-4.5484,-4.683,-4.7309,-4.7309,-4.7309,-4.7309,-4.7309,-4.7309,-4.7309,-4.7309,-4.7309,-4.5494,-4.2977,-4.0554,-3.8965,-3.7726,-3.6681,-3.6417,-3.6405,-3.6405,-3.6405,-3.6405,-3.6405,-3.6405,-3.6405,-3.6405,-3.6405,-3.6405,-3.6405,-3.5893,-3.5495,-3.5495,-3.5019,-3.468,-3.4668,-3.4223,-3.3671,-3.3174,-3.3124,-3.3124,-3.3124,-3.3124,-3.3124,-3.3124,-3.3124,-3.3068,-3.3068,-3.0643,-2.9407,-2.9361,-2.6887,-2.5693,-2.5693,-2.5693,-2.5693,-3.0103,-3.1091,-3.1719,-3.1509,-3.0133,-2.8427,-2.6901,-2.4702,-2.2613,-2.1291,-2.0303,-1.9884,-2.0569,-2.0868,-2.1869,-2.4537,-2.551,-2.6782,-2.9262,0.0,0.0,-3.4279,-3.6671,-3.8297,0.0,0.0,-3.9388,0.0,0.0,0.0,-3.9723,-4.0352,-4.122,-4.2366,-4.2605,-4.288,-4.329,-4.329,-4.329,-4.329,-4.329,-4.329,-4.329,-4.329,-4.329,0.0,0.0,0.0,0.0,-4.329,-4.329,-4.329,-4.329,-4.329,-4.3409,-4.4302,-4.4915,-4.5424,-4.6322,-4.6935,-4.7309,-4.7309,-4.7309,-4.7309,-4.7309,-4.7309,-4.7309,-4.7309,-4.5448,-4.3312,-4.2548,-4.0215,-3.7914,-3.7563,-3.691,-3.6405,-3.6405,-3.6405,-3.6405,-3.6405,-3.6405,-3.6405,-3.6405,-3.6405,-3.6405,-3.6405,-3.6267,-3.6107,-3.6107,-3.5956,-3.5692,-3.5282,-3.5082,-3.465,-3.3721,-3.3294,-3.3124,-3.3124,-3.3124,-3.3124,-3.3124,-3.3124,-3.3124,-3.3124,-3.0643,-2.9407,-2.9407,-2.6935,-2.5693,-2.5693,-2.5693,-2.5693,-2.7395,-2.8786,-2.9699,-2.931,-2.8408,-2.718,-2.56,-2.3909,-2.2328,-2.0991,-2.0168,-1.9828,-2.0243,-2.0524,-2.145,-2.3759,-2.4739,-2.6078,-2.8513,0.0,0.0,-3.4562,0.0,0.0,0.0,-3.9275,-3.9388,0.0,0.0,0.0,-3.9388,-3.9813,-4.0516,-4.1632,-4.2141,-4.259,-4.297,-4.317,-4.329,-4.329,-4.329,-4.329,-4.329,-4.329,-4.329,0.0,0.0,0.0,0.0,-4.329,-4.329,-4.329,-4.329,-4.329,-4.3364,-4.4062,-4.4721,-4.5394,-4.6082,-4.6756,-4.7309,-4.7309,-4.7309,-4.7309,-4.7309,-4.7309,-4.7309,-4.7309,-4.5824,-4.406,-4.3355,-4.1154,-3.8819,-3.7887,-3.7174,-3.6669,-3.6455,-3.6405,-3.6405,-3.6405,-3.6405,-3.6405,-3.6405,-3.6405,-3.6405,-3.6405,-3.6405,-3.6405,-3.6405,-3.6405,-3.6279,-3.5893,-3.5621,-3.5219,-3.4575,-3.3822,-3.3307,-3.3093,-3.3124,-3.3124,-3.3124,-3.3124,-3.3124,-3.3124,-3.1101,-3.009,-3.0079,-2.7626,-2.6149,-2.5693,-2.5693,-2.5771,0.0,-2.7156,-2.8173,-2.8128,-2.7634,-2.6686,-2.4754,-2.3415,0.0,-2.0902,-2.0124,-1.9738,-1.9828,-2.0318,-2.0972,-2.1844,-2.3528,-2.5427,0.0,-2.9535,0.0,0.0,-3.6761,0.0,-3.8407,-3.9035,0.0,0.0,0.0,0.0,-3.9388,-3.9388,-3.9709,-4.0307,-4.1602,-4.2306,-4.2396,-4.297,-4.3245,-4.329,-4.329,-4.329,-4.329,-4.329,-4.329,0.0,0.0,0.0,0.0,-4.329,-4.329,-4.329,-4.329,-4.329,-4.3364,-4.4018,-4.4661,-4.5319,-4.6022,-4.6681,-4.7249,-4.7294,-4.7309,-4.7309,-4.7309,-4.7309,-4.7309,-4.7309,-4.6403,-4.4987,-4.3231,-4.1788,-4.0228,-3.7878,-3.7274,-3.7098,-3.6581,-3.6468,-3.6455,-3.6417,-3.6405,-3.6405,-3.6405,-3.6405,-3.6405,-3.6405,-3.6405,-3.6405,-3.6405,-3.6405,-3.6405,-3.6405,-3.5906,-3.5545,-3.5495,-3.4562,-3.3721,-3.3212,-3.3174,-3.3162,-3.3124,-3.3124,-3.3124,-3.3124,-3.1865,-3.1134,-3.0944,-2.8713,-2.6986,-2.5732,-2.5762,-2.6035,-2.1869,0.0,-2.3976,-2.3445,-2.3191,-2.2832,0.0,-2.1376,-2.0946,-2.0109,-1.9813,-2.0022,-2.1036,-2.0946,-2.157,-2.4253,-2.5495,-2.6826,-2.8858,0.0,0.0,-3.6746,-3.8138,-3.9005,-3.917,-3.9334,0.0,0.0,0.0,-3.9388,-3.9388,-3.9388,-3.9448,-3.9649,-4.0442,-4.1339,-4.2396,-4.2545,-4.2836,-4.329,-4.329,-4.329,-4.329,-4.329,-4.329,0.0,0.0,0.0,-4.329,-4.329,-4.329,-4.329,-4.329,-4.329,-4.3319,-4.3469,-4.3947,-4.4646,-4.5304,-4.5978,-4.6636,-4.7145,-4.7309,-4.7309,-4.7309,-4.7309,-4.7309,-4.7309,-4.6403,-4.5087,-4.3667,-4.2052,-4.0389,-3.8866,-3.814,-3.7663,-3.7111,-3.6985,-3.6908,-3.6493,-3.6405,-3.6405,-3.6405,-3.6405,-3.6405,-3.6405,-3.6405,-3.6405,-3.6405,-3.6405,-3.6405,-3.6405,-3.6292,-3.5994,-3.5533,-3.4868,-3.4299,-3.3746,-3.3709,-3.352,-3.3136,-3.3124,-3.3124,-3.3124,-3.1865,-3.0271,-2.8459,-2.8163,-2.7447,-2.624,-2.6562,-2.6592,-2.0243,-2.1445,-2.2613,-2.2254,-2.2164,-2.1979,-2.1321,-2.0912,-2.0494,-1.9842,-1.9708,-2.0022,-2.1051,-2.1201,-2.2019,-2.4709,-2.5959,0.0,0.0,0.0,-3.6312,-3.73,-3.8566,-3.9388,0.0,0.0,0.0,0.0,0.0,-3.9388,-3.9388,-3.9388,-3.9388,-3.9388,-3.9768,-4.0442,-4.1444,-4.1796,-4.2276,-4.2895,-4.2895,-4.3045,-4.329,-4.329,-4.329,0.0,0.0,0.0,-4.329,-4.329,-4.329,-4.329,-4.329,-4.329,-4.329,-4.329,-4.3708,-4.4407,-4.5065,-4.5948,-4.683,-4.7189,-4.7309,-4.7309,-4.7309,-4.7309,-4.7309,-4.7309,-4.6785,-4.5973,-4.4688,-4.3208,-4.1681,-4.0153,-3.9104,-3.8253,-3.7676,-3.7362,-3.7098,-3.6845,-3.6581,-3.6405,-3.6405,-3.6405,-3.6405,-3.6405,-3.6405,-3.6405,-3.6405,-3.6405,-3.6405,-3.6405,-3.6405,-3.6292,-3.5943,-3.5642,-3.5127,-3.4324,-3.4274,-3.4148,-3.3847,-3.3834,-3.3834,-3.3834,-3.2919,-3.1219,-2.8773,-2.8927,-2.8115,-2.6396,-2.6816,-2.7002,-1.9947,-2.1325,-2.2628,-2.2313,-2.2328,-2.2224,-2.1545,-2.0961,-2.0393,-1.9828,-1.9783,-2.0109,-2.0972,-2.1695,-2.2832,-2.4874,0.0,0.0,-3.2302,-3.4846,-3.6611,-3.733,-3.8497,0.0,0.0,0.0,0.0,0.0,0.0,-3.9388,-3.9388,-3.9388,-3.9388,-3.9388,-3.9388,-3.9694,-4.0247,-4.0905,-4.1602,-4.2246,-4.2246,-4.2506,-4.2991,-4.311,-4.314,-4.3155,0.0,0.0,-4.329,-4.329,-4.329,-4.329,-4.329,-4.329,-4.329,-4.329,-4.3648,-4.4272,-4.5035,-4.6187,-4.7309,-4.7309,-4.7309,-4.7309,-4.7309,-4.7309,-4.7309,-4.7309,-4.7309,-4.7019,-4.5734,-4.4442,-4.3033,-4.1311,-3.9934,-3.8843,-3.8266,-3.7776,-3.7412,-3.7324,-3.6983,-3.6656,-3.6656,-3.6593,-3.6531,-3.6531,-3.6468,-3.6405,-3.6405,-3.6405,-3.6405,-3.6405,-3.6405,-3.6405,-3.6405,-3.6405,-3.6015,-3.5027,-3.4889,-3.4768,-3.468,-3.468,-3.468,-3.468,-3.4261,-3.2798,-3.0305,-3.0456,-2.9176,-2.6592,-2.7206,-2.757,-2.1081,-2.2044,-2.2283,-2.0591,-2.0587,-2.0842,-2.0154,-1.9932,-1.9828,-1.9723,-2.0154,-2.1077,-2.2832,-2.3693,-2.4993,0.0,0.0,-3.154,0.0,0.0,-3.6088,-3.727,0.0,0.0,0.0,0.0,0.0,0.0,0.0,-3.9388,-3.9388,-3.9388,-3.9388,-3.9388,-3.9388,-3.9433,-3.9574,-4.0217,-4.0876,-4.1572,-4.1572,-4.1579,-4.1698,-4.2291,-4.2545,-4.259,0.0,-4.329,-4.329,-4.329,-4.329,-4.329,-4.329,-4.329,-4.329,-4.329,-4.3364,-4.3618,-4.487,-4.6187,-4.7309,-4.7309,-4.7309,-4.7309,-4.7309,-4.7309,-4.7309,-4.7309,-4.7309,-4.7019,-4.5734,-4.4442,-4.3143,-4.183,-4.0514,-3.9421,-3.8856,-3.868,-3.8467,-3.7977,-3.7814,-3.7751,-3.7751,-3.7362,-3.7061,-3.7061,-3.6707,-3.6405,-3.6405,-3.6405,-3.6405,-3.6405,-3.6405,-3.6405,-3.6405,-3.6405,-3.6342,-3.6166,-3.568,-3.5157,-3.4738,-3.468,-3.468,-3.468,-3.4638,-3.3344,-3.0822,-3.2248,-3.1085,-2.7532,-2.9105,-2.9042,-2.0456,-2.1096,-2.1485,-2.0917,-2.153,-2.2188,-2.1874,-2.1565,-2.1415,-2.1744,-2.2054,-2.2652,-2.3902,-2.5285,-2.7215,-3.0223,0.0,-3.344,-3.4384,-3.5385,-3.6252,0.0,0.0,0.0,0.0,0.0,0.0,0.0,0.0,0.0,-3.9388,-3.9388,-3.9388,-3.9388,-3.9388,-3.9388,-3.9388,-3.9723,-4.0202,-4.0846,-4.0846,-4.104,-4.1384,-4.1737,-4.2066,-4.2425,0.0,-4.3015,-4.329,-4.329,-4.329,-4.329,-4.329,-4.329,-4.329,-4.329,-4.3738,-4.4481,-4.5095,-4.6187,-4.7309,-4.7309,-4.7309,-4.7309,-4.7309,-4.7309,-4.7309,-4.7309,-4.7309,-4.7164,-4.6594,-4.5494,-4.421,-4.293,-4.1654,-4.049,-3.9511,-3.9082,-3.8844,-3.853,-3.8216,-3.8002,-3.8002,-3.7801,-3.7525,-3.7224,-3.6973,-3.6744,-3.6455,-3.6405,-3.6405,-3.6405,-3.6405,-3.6405,-3.6405,-3.6405,-3.6405,-3.6405,-3.6119,-3.5881,-3.5617,-3.5604,-3.5604,-3.5604,-3.5316,-3.424,-3.24,-3.3112,-3.1848,-2.8819,-2.9808,-2.9505,-2.0082,-2.0543,-2.1122,-2.1934,-2.2652,-2.3266,-2.3729,-2.3355,-2.3137,-2.3909,-2.4193,-2.4507,-2.5196,-2.7186,0.0,-3.2302,-3.3858,-3.4711,-3.4711,-3.5609,-3.6312,-3.6477,0.0,0.0,0.0,0.0,0.0,0.0,0.0,0.0,-3.9185,-3.9334,-3.9388,-3.9388,-3.9388,-3.9388,-3.9388,-3.9388,-3.9679,-4.0172,-4.0172,-4.0427,-4.0935,-4.1085,-4.1467,-4.1961,-4.2261,-4.2641,-4.312,-4.323,-4.329,-4.329,-4.329,-4.329,-4.329,-4.329,-4.4167,-4.5289,-4.5289,-4.6187,-4.7309,-4.7309,-4.7309,-4.7309,-4.7309,-4.7309,-4.7309,-4.7309,-4.7309,-4.7309,-4.7309,-4.6344,-4.507,-4.3787,-4.2558,-4.1269,-3.9981,-3.9371,-3.9108,-3.9108,-3.8705,-3.8404,-3.8404,-3.8291,-3.8065,-3.7651,-3.7462,-3.7224,-3.6845,-3.6795,-3.6744,-3.6619,-3.6606,-3.6556,-3.6417,-3.6405,-3.6405,-3.6405,-3.6405,-3.6405,-3.6405,-3.6405,-3.6405,-3.6405,-3.5956,-3.5098,-3.3875,-3.4054,-3.2667,-2.9865,-3.0459,-2.9859,-2.1216,-2.159,-2.1919,-2.3161,-2.2637,-2.2308,-2.4111,-2.4007,-2.3894,-2.5196,-2.5944,-2.6572,-2.727,-2.9983,-3.2437,-3.329,-3.4547,-3.5429,-3.5429,0.0,0.0,0.0,0.0,0.0,0.0,0.0,0.0,0.0,0.0,0.0,-3.8467,-3.9065,-3.9388,-3.9388,-3.9388,-3.9388,-3.9388,-3.9388,-3.9403,-3.9448,-3.9448,-3.9514,-3.9589,-4.0187,-4.0502,-4.0606,-4.1871,-4.2425,-4.2515,-4.309,-4.329,-4.329,-4.329,-4.329,-4.329,-4.329,-4.4167,-4.5289,-4.5289,-4.6187,-4.7309,-4.7309,-4.7309,-4.7309,-4.7309,-4.7309,-4.7309,-4.7309,-4.7309,-4.7309,-4.7309,-4.6344,-4.507,-4.3787,-4.2558,-4.1269,-3.9981,-3.9659,-3.9634,-3.9634,-3.9597,-3.9572,-3.9572,-3.9145,-3.8844,-3.8806,-3.8291,-3.7939,-3.7889,-3.7889,-3.7688,-3.7174,-3.7123,-3.6923,-3.6455,-3.6405,-3.6405,-3.6405,-3.6405,-3.6405,-3.6405,-3.6405,-3.6405,-3.6405,-3.6367,-3.5665,-3.4326,-3.5605,-3.4132,-3.0265,-3.156,-3.0773,-2.0322,-2.1051,-2.1919,-2.2823,-2.3266,-2.3902,-2.5495,-2.5959,-2.6581,-2.8293,-2.8846,-2.9235,-2.9909,-3.139,-3.2856,-3.3933,-3.4891,-3.5504,-3.5504,0.0,0.0,0.0,0.0,0.0,0.0,0.0,0.0,0.0,0.0,0.0,-3.7778,-3.8422,-3.8781,-3.8781,-3.9185,-3.9388,-3.9388,-3.9388,-3.9388,-3.9388,-3.9388,-3.9388,-3.9388,-3.9679,-4.0008,-4.0442,-4.1392,-4.2021,-4.2455,-4.306,-4.329,-4.329,-4.329,-4.329,-4.329,-4.329,-4.3858,-4.4751,-4.5155,-4.5903,-4.677,-4.7174,-4.7309,-4.7309,-4.7309,-4.7309,-4.7309,-4.7309,-4.7309,-4.7309,-4.7309,-4.6931,-4.6062,-4.3975,-4.3122,-4.2217,-4.0173,-3.9697,-3.9697,-3.9697,-3.9697,-3.9697,-3.9697,-3.9521,-3.927,-3.8969,-3.873,-3.8417,-3.8052,-3.8002,-3.7927,-3.7713,-3.7387,-3.7098,-3.6885,-3.6606,-3.6405,-3.6405,-3.6405,-3.6405,-3.6405,-3.6405,-3.6405,-3.6405,-3.6405,-3.6156,-3.5619,-3.6156,-3.4739,-3.1582,-3.2079,-3.0876,-1.9708,-2.0382,-2.1321,-2.2433,-2.3355,-2.4582,-2.6737,-2.7764,-2.8783,-3.0731,-3.1135,-3.1285,-3.1735,-3.2348,0.0,0.0,-3.4921,-3.5504,0.0,0.0,0.0,0.0,0.0,0.0,0.0,0.0,0.0,0.0,0.0,0.0,0.0,-3.7734,-3.8182,-3.8377,-3.8856,-3.92,-3.9388,-3.9388,-3.9388,-3.9388,-3.9388,-3.9388,-3.9388,-3.9388,-3.9664,-4.0127,-4.0786,-4.1482,-4.2141,-4.2761,-4.315,-4.329,-4.329,-4.329,-4.329,-4.329,-4.3708,-4.4407,-4.5065,-4.5753,-4.6384,-4.71,-4.7309,-4.7309,-4.7309,-4.7309,-4.7309,-4.7309,-4.7309,-4.7309,-4.7309,-4.7309,-4.6785,-4.4595,-4.3787,-4.293,-4.0743,-3.9981,-3.9697,-3.9697,-3.9697,-3.9697,-3.9697,-3.9697,-3.9572,-3.9182,-3.9132,-3.8981,-3.8592,-3.8542,-3.8467,-3.8304,-3.7776,-3.7374,-3.7199,-3.6835,-3.6593,-3.6417,-3.6405,-3.6405,-3.6405,-3.6405,-3.6405,-3.6405,-3.6405,-3.6405,-3.6405,-3.6405,-3.4993,-3.228,-3.228,-3.0876,-1.9708,-1.9708,-2.0217,-2.2209,-2.2718,-2.3781,-2.7709,-2.9116,-3.0148,-3.2123,-3.2512,-3.2527,-3.2497,-3.3066,0.0,-3.3499,-3.4637,0.0,0.0,0.0,0.0,0.0,0.0,0.0,0.0,0.0,0.0,0.0,0.0,0.0,0.0,-3.706,-3.7704,-3.8347,-3.8377,-3.8721,-3.9373,-3.9388,-3.9388,-3.9388,-3.9388,-3.9388,-3.9388,-3.9388,-3.9388,-3.9454,-4.0113,-4.0771,-4.1467,-4.2141,-4.2746,-4.329,-4.329,-4.329,-4.329,-4.329,-4.3708,-4.4407,-4.5065,-4.5738,-4.6384,-4.7085,-4.7309,-4.7309,-4.7309,-4.7309,-4.7309,-4.7309,-4.7309,-4.7309,-4.7309,-4.7309,-4.6975,-4.5689,-4.4442,-4.317,-4.1887,-4.0605,-3.9697,-3.9697,-3.9697,-3.9697,-3.9697,-3.9697,-3.9697,-3.9697,-3.9697,-3.9697,-3.9697,-3.9697,-3.9484,-3.8931,-3.8366,-3.7789,-3.7236,-3.7186,-3.6996,-3.6443,-3.6405,-3.6405,-3.6405,-3.6405,-3.6405,-3.6405,-3.6405,-3.6405,-3.6405,-3.6405,-3.4993,-3.228,-3.228,-3.0876,-1.9708,-2.0726,-2.1954,-2.2553,-2.444,-2.6581,-2.8218,-2.9445,-3.0926,-3.338,-3.3903,-3.3754,-3.329,-3.3739,0.0,-3.4219,-3.4921,0.0,0.0,0.0,0.0,0.0,0.0,0.0,0.0,0.0,0.0,0.0,0.0,0.0,0.0,-3.6402,-3.6851,-3.7045,-3.7928,-3.8497,-3.8691,-3.917,-3.9388,-3.9388,-3.9388,-3.9388,-3.9388,-3.9388,-3.9388,-3.9454,-4.0113,-4.0771,-4.1459,-4.2581,-4.3125,-4.329,-4.329,-4.329,-4.329,-4.329,-4.3424,-4.3738,-4.49,-4.5424,-4.5783,-4.6935,-4.7309,-4.7309,-4.7309,-4.7309,-4.7309,-4.7309,-4.7309,-4.7309,-4.7309,-4.7309,-4.6975,-4.5689,-4.5115,-4.4256,-4.207,-4.1319,-4.0794,-3.989,-3.9697,-3.9697,-3.9697,-3.9697,-3.9697,-3.9697,-3.9697,-3.9697,-3.9697,-3.9697,-3.9634,-3.9471,-3.8944,-3.8379,-3.7814,-3.7412,-3.6996,-3.6443,-3.6405,-3.6405,-3.6405,-3.6405,-3.6405,-3.6405,-3.6405,-3.6405,-3.6405,-3.6405,-3.4993,-3.228,-3.228,-3.0876,-2.0019,-2.0976,-2.2143,-2.3191,-2.5136,-2.732,-2.931,-3.0761,-3.2228,-3.4114,-3.4503,-3.4384,-3.3963,-3.4234,0.0,-3.4503,0.0,0.0,0.0,0.0,0.0,0.0,0.0,0.0,0.0,0.0,0.0,0.0,0.0,0.0,0.0,-3.5878,-3.6207,-3.6477,-3.7225,-3.7883,-3.8392,-3.8796,-3.9155,-3.9388,-3.9388,-3.9388,-3.9388,-3.9388,-3.9388,-3.9454,-4.0113,-4.0771,-4.1459,-4.2521,-4.309,-4.329,-4.329,-4.329,-4.329,-4.329,-4.329,-4.3439,-4.4541,-4.508,-4.5469,-4.6561,-4.71,-4.7309,-4.7309,-4.7309,-4.7309,-4.7309,-4.7309,-4.7309,-4.7309,-4.7309,-4.7121,-4.6344,-4.5403,-4.421,-4.2689,-4.1555,-4.0605,-3.9839,-3.9697,-3.9697,-3.9697,-3.9697,-3.9697,-3.9697,-3.9697,-3.9697,-3.9697,-3.9697,-3.9697,-3.9697,-3.9396,-3.8969,-3.8391,-3.7826,-3.7274,-3.6769,-3.6531,-3.6405,-3.6405,-3.6405,-3.6405,-3.6405,-3.6405,-3.6405,-3.6405,-3.587,-3.4459,-3.228,-3.1724,-3.0369,-2.0513,-2.0778,-2.148,-2.3977,-2.5277,-2.6946,-3.0658,-3.2497,-3.3589,-3.4279,-3.4474,-3.4503,-3.4503,-3.4563,-3.4593,0.0,0.0,0.0,0.0,0.0,0.0,0.0,0.0,0.0,0.0,0.0,0.0,0.0,0.0,0.0,0.0,-3.5504,-3.5774,-3.6372,-3.6447,-3.7045,-3.8212,-3.8332,-3.8706,-3.9334,-3.9394,-3.9388,-3.9388,-3.9388,-3.9388,-3.9454,-4.0113,-4.0771,-4.1467,-4.2126,-4.2746,-4.329,-4.329,-4.329,-4.329,-4.329,-4.329,-4.3394,-4.4092,-4.4706,-4.5334,-4.6082,-4.6726,-4.7234,-4.7294,-4.7309,-4.7309,-4.7309,-4.7309,-4.7309,-4.7309,-4.7309,-4.7266,-4.7164,-4.5358,-4.3598,-4.3361,-4.1505,-3.9839,-3.9749,-3.9697,-3.9697,-3.9697,-3.9697,-3.9697,-3.9697,-3.9697,-3.9697,-3.9697,-3.9697,-3.9697,-3.9697,-3.9697,-3.9471,-3.8969,-3.8391,-3.7852,-3.7299,-3.6832,-3.6531,-3.648,-3.643,-3.6405,-3.6405,-3.6405,-3.6405,-3.6405,-3.5078,-3.3662,-3.228,-3.0916,-2.9555,-2.0359,-2.147,-2.2637,-2.4216,-2.6692,-2.922,-3.1077,-3.2123,-3.2916,-3.3574,-3.4113,-3.4503,-3.4503,-3.4921,-3.528,0.0,0.0,0.0,0.0,0.0,0.0,0.0,0.0,0.0,0.0,0.0,0.0,0.0,0.0,0.0,-3.5504,-3.5504,-3.5564,-3.5714,-3.6222,-3.6611,-3.6896,-3.7883,-3.8467,0.0,-3.9155,-3.9388,-3.9388,-3.9388,-3.9388,-3.9454,-4.0113,-4.0771,-4.1467,-4.2126,-4.2746,-4.329,-4.329,-4.329,-4.329,-4.329,-4.329,-4.3394,-4.4092,-4.4407,-4.4721,-4.5891,-4.6384,-4.6636,-4.7145,-4.7309,-4.7309,-4.7309,-4.7309,-4.7309,-4.7309,-4.7309,-4.7062,-4.6062,-4.5403,-4.4442,-4.2461,-4.1604,-4.0882,-3.989,-3.9697,-3.9697,-3.9697,-3.9697,-3.9697,-3.9697,-3.9697,-3.9697,-3.9697,-3.9697,-3.9697,-3.9697,-3.9697,-3.9471,-3.8969,-3.8755,-3.8442,-3.7864,-3.7713,-3.7462,-3.7023,-3.6631,-3.6405,-3.6405,-3.6405,-3.6405,-3.6405,-3.5078,-3.3662,-3.228,-3.0916,-2.9555,-2.0737,-2.1919,-2.3242,-2.548,-2.7829,-2.9834,-3.0793,-3.154,-3.2108,-3.2452,-3.332,-3.4098,-3.4444,-3.4771,0.0,0.0,0.0,0.0,0.0,0.0,0.0,0.0,0.0,0.0,0.0,0.0,0.0,0.0,0.0,-3.5504,-3.5504,-3.5504,-3.5504,-3.5504,-3.5833,-3.6178,-3.6492,-3.715,-3.7793,-3.8392,-3.8751,-3.9095,-3.9388,-3.9388,-3.9388,-3.9403,-3.9783,-4.0307,-4.0965,-4.1662,-4.2321,-4.2895,-4.317,-4.329,-4.329,-4.329,-4.329,-4.3349,-4.3678,-4.4007,-4.4436,-4.514,-4.5756,-4.6396,-4.6741,-4.7055,-4.7309,-4.7309,-4.7309,-4.7309,-4.7309,-4.7309,-4.6829,-4.4918,-4.4503,-4.3975,-4.2035,-4.1119,-4.0503,-3.9839,-3.9697,-3.9697,-3.9697,-3.9697,-3.9697,-3.9697,-3.9697,-3.9697,-3.9697,-3.9697,-3.9697,-3.9697,-3.9697,-3.9584,-3.9295,-3.907,-3.8793,-3.8442,-3.8165,-3.7877,-3.7588,-3.7299,-3.6897,-3.6417,-3.6405,-3.6405,-3.6405,-3.4362,-3.3005,-3.223,-3.0266,-2.8953,-2.0842,-2.2158,-2.3766,-2.6821,-2.8528,-2.9609,-3.0342,-3.0913,-3.1361,-3.1481,-3.2452,-3.3499,-3.4038,0.0,0.0,0.0,0.0,0.0,0.0,0.0,0.0,0.0,0.0,0.0,0.0,0.0,0.0,0.0,0.0,-3.5504,-3.5504,-3.5504,-3.5504,-3.5504,-3.5504,-3.5774,-3.6312,-3.6432,-3.7015,-3.8063,-3.8287,-3.8751,-3.9388,-3.9388,-3.9388,-3.9388,-3.9388,-3.9783,-4.0442,-4.1115,-4.1811,-4.247,-4.3075,-4.329,-4.329,-4.329,-4.329,-4.329,-4.329,-4.3648,-4.4167,-4.4272,-4.514,-4.6172,-4.6249,-4.6785,-4.7309,-4.7309,-4.7309,-4.7309,-4.7309,-4.7309,-4.6638,-4.4116,-4.3504,-4.3074,-4.1604,-4.0465,-3.9697,-3.9697,-3.9697,-3.9697,-3.9697,-3.9697,-3.9697,-3.9697,-3.9697,-3.9697,-3.9697,-3.9697,-3.9697,-3.9697,-3.9697,-3.9697,-3.9697,-3.927,-3.9057,-3.9057,-3.8567,-3.8253,-3.8165,-3.8153,-3.7676,-3.6719,-3.6606,-3.6505,-3.6405,-3.3639,-3.228,-3.2241,-2.9565,-2.8291,-1.9588,-2.2113,-2.4859,-2.7061,-2.8184,-2.9041,-3.0238,-3.0567,-3.0806,0.0,-3.2093,-3.2677,0.0,0.0,0.0,0.0,0.0,0.0,0.0,0.0,0.0,0.0,0.0,0.0,0.0,0.0,0.0,0.0,-3.5504,-3.5504,-3.5504,-3.5504,-3.5504,-3.5504,-3.5504,-3.5549,-3.5639,-3.6207,-3.6567,-3.6746,-3.7868,-3.8751,-3.9388,-3.9388,-3.9388,-3.9388,-3.9388,-3.9783,-4.0442,-4.1115,-4.1811,-4.247,-4.3075,-4.329,-4.329,-4.329,-4.329,-4.329,-4.329,-4.3349,-4.3514,-4.4122,-4.4825,-4.5544,-4.6142,-4.6785,-4.7309,-4.7309,-4.7309,-4.7309,-4.7309,-4.7309,-4.6638,-4.4116,-4.3504,-4.2834,-4.0453,-3.9839,-3.9697,-3.9697,-3.9697,-3.9697,-3.9697,-3.9697,-3.9697,-3.9697,-3.9697,-3.9697,-3.9697,-3.9697,-3.9697,-3.9697,-3.9697,-3.9697,-3.9697,-3.9622,-3.9584,-3.9584,-3.9509,-3.9245,-3.8781,-3.8755,-3.8454,-3.7801,-3.7312,-3.6835,-3.6405,-3.3639,-3.228,-3.2241,-2.9565,-2.8291,-2.0154,-2.2398,-2.4522,-2.6551,-2.7555,-2.8263,-2.922,-2.9729,-3.0178,-3.0821,-3.118,0.0,0.0,0.0,0.0,0.0,0.0,0.0,0.0,0.0,0.0,0.0,0.0,0.0,0.0,0.0,0.0,0.0,-3.5504,-3.5504,-3.5504,-3.5504,-3.5504,-3.5504,-3.5504,-3.5504,-3.5504,-3.5789,-3.6297,-3.7015,-3.7943,-3.8751,-3.9388,-3.9388,-3.9388,-3.9388,-3.9388,-3.9589,-3.9933,-4.095,-4.1587,-4.1946,-4.294,-4.329,-4.329,-4.329,-4.329,-4.329,-4.329,-4.329,-4.3349,-4.3633,-4.4212,-4.487,-4.5544,-4.6217,-4.683,-4.7204,-4.7309,-4.7309,-4.7309,-4.7309,-4.6829,-4.5024,-4.4022,-4.2978,-4.1169,-4.0224,-3.9697,-3.9697,-3.9697,-3.9697,-3.9697,-3.9697,-3.9697,-3.9697,-3.9697,-3.9697,-3.9697,-3.9697,-3.9697,-3.9697,-3.9697,-3.9697,-3.9697,-3.9697,-3.9697,-3.9697,-3.9697,-3.9584,-3.9346,-3.9333,-3.9069,-3.8504,-3.7626,-3.6697,-3.5746,-3.3419,-3.1927,-3.1122,-2.9207,-2.8291,-2.0378,-2.2009,-2.334,-2.533,-2.6477,-2.7315,-2.8143,0.0,-2.9505,0.0,0.0,0.0,0.0,0.0,0.0,0.0,0.0,0.0,0.0,0.0,0.0,0.0,0.0,0.0,0.0,0.0,0.0,0.0,-3.5504,-3.5504,-3.5504,-3.5504,-3.5504,-3.5504,-3.5504,-3.5504,-3.5504,-3.5504,-3.6073,-3.718,-3.7823,-3.8497,-3.917,-3.9298,-3.9388,-3.9388,-3.9388,-3.9388,-3.9514,-4.0846,-4.1422,-4.1504,-4.2821,-4.329,-4.329,-4.329,-4.329,-4.329,-4.329,-4.329,-4.329,-4.329,-4.3738,-4.4436,-4.5095,-4.5783,-4.6456,-4.7115,-4.7309,-4.7309,-4.7309,-4.7309,-4.6975,-4.5689,-4.4442,-4.3074,-4.1455,-4.0364,-3.9697,-3.9697,-3.9697,-3.9697,-3.9697,-3.9697,-3.9697,-3.9697,-3.9697,-3.9697,-3.9697,-3.9697,-3.9697,-3.9697,-3.9697,-3.9697,-3.9697,-3.9697,-3.9697,-3.9697,-3.9697,-3.9697,-3.9697,-3.9697,-3.9496,-3.9082,-3.8115,-3.6863,-3.5375,-3.3428,-3.1819,-3.0444,-2.9003,-2.8291,-1.9241,-2.0318,-2.1316,-2.3266,-2.4747,-2.6048,0.0,0.0,0.0,0.0,0.0,0.0,0.0,0.0,0.0,0.0,0.0,0.0,0.0,0.0,0.0,0.0,0.0,0.0,0.0,0.0,0.0,0.0,-3.5504,-3.5504,-3.5504,-3.5504,-3.5504,-3.5504,-3.5504,-3.5504,-3.5504,-3.5504,-3.5848,-3.6537,-3.7165,-3.7808,-3.8467,-3.9125,-3.9388,-3.9388,-3.9388,-3.9388,-3.9514,-4.0846,-4.1422,-4.1504,-4.2821,-4.329,-4.329,-4.329,-4.329,-4.329,-4.329,-4.329,-4.329,-4.329,-4.3738,-4.4436,-4.5095,-4.5783,-4.6456,-4.7115,-4.7309,-4.7309,-4.7309,-4.7309,-4.6975,-4.5689,-4.4442,-4.2834,-4.0313,-3.9736,-3.9697,-3.9697,-3.9697,-3.9697,-3.9697,-3.9697,-3.9697,-3.9697,-3.9697,-3.9697,-3.9697,-3.9697,-3.9697,-3.9697,-3.9697,-3.9697,-3.9697,-3.9697,-3.9697,-3.9697,-3.9697,-3.9697,-3.9697,-3.9697,-3.9685,-3.9647,-3.9082,-3.7825,-3.577,-3.4016,-3.2386,-3.0915,-2.9153,-2.8291,-1.8222,-1.9522,-2.0957,-2.2099,-2.3355,-2.4552,-2.548,-2.6527,-2.75,-2.8184,0.0,0.0,0.0,0.0,0.0,0.0,0.0,0.0,0.0,0.0,0.0,0.0,0.0,0.0,0.0,0.0,0.0,0.0,0.0,-3.5504,-3.5504,-3.5504,-3.5504,-3.5504,-3.5504,-3.5504,-3.5504,-3.5504,-3.5833,-3.6492,-3.7105,-3.7749,-3.8407,-3.9095,-3.9388,-3.9388,-3.9388,-3.9388,-3.9448,-4.0382,-4.0995,-4.1512,-4.2372,-4.297,-4.329,-4.329,-4.329,-4.329,-4.329,-4.329,-4.329,-4.329,-4.3738,-4.4436,-4.5095,-4.5783,-4.6456,-4.7115,-4.7309,-4.7309,-4.7309,-4.7309,-4.6785,-4.4688,-4.3834,-4.2786,-4.0275,-3.9697,-3.9697,-3.9697,-3.9697,-3.9697,-3.9697,-3.9697,-3.9697,-3.9697,-3.9697,-3.9697,-3.9697,-3.9697,-3.9697,-3.9697,-3.9697,-3.9697,-3.9697,-3.9697,-3.9697,-3.9697,-3.9697,-3.9697,-3.9697,-3.9697,-3.9697,-3.9697,-3.9496,-3.8405,-3.6458,-3.4263,-3.2471,-3.1,-2.9163,-2.8291,-1.7654,-1.8835,-2.0303,-2.1425,-2.2338,-2.3251,-2.435,0.0,-2.6437,0.0,0.0,0.0,0.0,0.0,0.0,0.0,0.0,0.0,0.0,0.0,0.0,0.0,0.0,0.0,0.0,0.0,0.0,0.0,0.0,0.0,-3.5504,-3.5504,-3.5504,-3.5504,-3.5504,-3.5504,-3.5504,-3.5504,-3.5729,-3.6163,-3.6806,-3.7434,-3.8078,-3.8766,-3.92,-3.9388,-3.9388,-3.9388,-3.9433,-4.0127,-4.0786,-4.1482,-4.2141,-4.2761,-4.329,-4.329,-4.329,-4.329,-4.329,-4.329,-4.329,-4.329,-4.3738,-4.4436,-4.5095,-4.5783,-4.6456,-4.7115,-4.7309,-4.7309,-4.7309,-4.7309,-4.6638,-4.4116,-4.3504,-4.2786,-4.0275,-3.9697,-3.9697,-3.9697,-3.9697,-3.9697,-3.9697,-3.9697,-3.9697,-3.9697,-3.9697,-3.9697,-3.9697,-3.9697,-3.9697,-3.9697,-3.9697,-3.9697,-3.9697,-3.9697,-3.9697,-3.9697,-3.9697,-3.9697,-3.9697,-3.9697,-3.9697,-3.9697,-3.9697,-3.9059,-3.7761,-3.5028,-3.2944,-3.1505,-2.9593,-2.8721,0.0,0.0,0.0,-2.1126,0.0,0.0,-2.4051,0.0,-2.5719,0.0,0.0,0.0,0.0,0.0,0.0,0.0,0.0,0.0,0.0,0.0,0.0,0.0,0.0,0.0,0.0,0.0,0.0,0.0,-3.5504,-3.5504,-3.5504,-3.5504,-3.5504,-3.5504,-3.5504,-3.5504,-3.5504,-3.5504,-3.5504,-3.5519,-3.6178,-3.6806,-3.7434,-3.8093,-3.8766,-3.9388,-3.9388,-3.9388,-3.9433,-4.0113,-4.0771,-4.1482,-4.2126,-4.2746,-4.329,-4.329,-4.329,-4.329,-4.329,-4.329,-4.329,-4.3319,-4.3768,-4.4466,-4.5125,-4.5813,-4.6486,-4.713,-4.7309,-4.7309,-4.7309,-4.7309,-4.6638,-4.4116,-4.3504,-4.2786,-4.0275,-3.9697,-3.9697,-3.9697,-3.9697,-3.9697,-3.9697,-3.9697,-3.9697,-3.9697,-3.9697,-3.9697,-3.9697,-3.9697,-3.9697,-3.9697,-3.9697,-3.9697,-3.9697,-3.9697,-3.9697,-3.9697,-3.9697,-3.9697,-3.9697,-3.9697,-3.9697,-3.9697,-3.9697,-3.9697,-3.9685,-3.6255,-3.3835,-3.2419,-3.0464,-2.9636,-1.7637,0.0,0.0,0.0,0.0,0.0,0.0,0.0,0.0,0.0,0.0,0.0,0.0,0.0,0.0,0.0,0.0,0.0,0.0,0.0,0.0,0.0,0.0,0.0,0.0,0.0,0.0,0.0,-3.5504,-3.5504,-3.5504,-3.5504,-3.5504,-3.5504,-3.5504,-3.5504,-3.5504,-3.5504,-3.5504,-3.5519,-3.6178,-3.6806,-3.7434,-3.8093,-3.8766,-3.9388,-3.9388,-3.9388,-3.9388,-3.9619,-4.0367,-4.1437,-4.1617,-4.2342,-4.329,-4.329,-4.329,-4.329,-4.329,-4.329,-4.3364,-4.3883,-4.4481,-4.5155,-4.5828,-4.6501,-4.707,-4.7249,-4.7309,-4.7309,-4.7309,-4.7309,-4.6638,-4.4116,-4.3504,-4.2786,-4.0275,-3.9697,-3.9697,-3.9697,-3.9697,-3.9697,-3.9697,-3.9697,-3.9697,-3.9697,-3.9697,-3.9697,-3.9697,-3.9697,-3.9697,-3.9697,-3.9697,-3.9697,-3.9697,-3.9697,-3.9697,-3.9697,-3.9697,-3.9697,-3.9697,-3.9697,-3.9697,-3.9697,-3.9697,-3.9697,-3.9685,-3.6255,-3.4376,-3.3932,-3.0953,-2.9736,-1.8117,-1.8897,-1.966,-1.957,0.0,0.0,0.0,-2.1724,0.0,0.0,0.0,0.0,0.0,0.0,0.0,0.0,0.0,0.0,0.0,0.0,0.0,0.0,0.0,0.0,0.0,-3.534,-3.5504,-3.5504,-3.5504,-3.5504,-3.5504,-3.5504,-3.5504,-3.5504,-3.5504,-3.5504,-3.5504,-3.5504,-3.5504,-3.5504,-3.5893,-3.6552,-3.7419,-3.7808,-3.8512,-3.9388,-3.9388,-3.9388,-3.9388,-3.9388,-4.0187,-4.1422,-4.1422,-4.2177,-4.329,-4.329,-4.329,-4.329,-4.329,-4.3469,-4.3768,-4.4182,-4.4945,-4.5798,-4.6202,-4.6785,-4.7309,-4.7309,-4.7309,-4.7309,-4.7309,-4.6916,-4.6018,-4.3975,-4.3074,-4.2168,-4.0121,-3.9697,-3.9697,-3.9697,-3.9697,-3.9697,-3.9697,-3.9697,-3.9697,-3.9697,-3.9697,-3.9697,-3.9697,-3.9697,-3.9697,-3.9697,-3.9697,-3.9697,-3.9697,-3.9697,-3.9697,-3.9697,-3.9697,-3.9697,-3.9697,-3.9697,-3.9697,-3.9697,-3.9697,-3.9089,-3.7873,-3.5875,-3.4263,-3.3003,-3.1057,-3.0254,-1.8807,-1.9301,-1.9947,-2.0468,-2.0243,0.0,-2.1231,-2.153,-2.1934,0.0,0.0,0.0,0.0,0.0,0.0,0.0,0.0,0.0,0.0,0.0,0.0,0.0,0.0,0.0,-3.4339,-3.4996,-3.5385,-3.5385,-3.5459,-3.5504,-3.5504,-3.5504,-3.5504,-3.5504,-3.5504,-3.5504,-3.5504,-3.5504,-3.5504,-3.5504,-3.5504,-3.6178,-3.7404,-3.7404,-3.8138,-3.9388,-3.9388,-3.9388,-3.9388,-3.9388,-4.0187,-4.1422,-4.1422,-4.2177,-4.329,-4.329,-4.329,-4.329,-4.329,-4.3723,-4.4332,-4.4407,-4.5289,-4.6294,-4.6369,-4.6845,-4.7309,-4.7309,-4.7309,-4.7309,-4.7309,-4.6344,-4.507,-4.3787,-4.2558,-4.1269,-3.9981,-3.9697,-3.9697,-3.9697,-3.9697,-3.9697,-3.9697,-3.9697,-3.9697,-3.9697,-3.9697,-3.9697,-3.9697,-3.9697,-3.9697,-3.9697,-3.9697,-3.9697,-3.9697,-3.9697,-3.9697,-3.9697,-3.9697,-3.9697,-3.9697,-3.9697,-3.9697,-3.9697,-3.9697,-3.8307,-3.5563,-3.5398,-3.3754,-3.0889,-3.0889,-3.0889,-1.9513,-1.9989,-2.0423,-1.9989,0.0,0.0,-2.0292,-2.0513,-2.1126,0.0,0.0,0.0,0.0,0.0,0.0,0.0,0.0,0.0,0.0,0.0,0.0,0.0,0.0,0.0,-3.3619,-3.4277,-3.4713,-3.4713,-3.519,-3.5504,-3.5504,-3.5504,-3.5504,-3.5504,-3.5504,-3.5504,-3.5504,-3.5504,-3.5504,-3.5504,-3.5504,-3.6178,-3.7404,-3.7404,-3.8138,-3.9388,-3.9388,-3.9388,-3.9388,-3.9388,-4.0187,-4.1422,-4.1422,-4.2177,-4.329,-4.329,-4.329,-4.329,-4.329,-4.3723,-4.4407,-4.493,-4.5663,-4.6384,-4.695,-4.7204,-4.7309,-4.7309,-4.7309,-4.7309,-4.7309,-4.6344,-4.507,-4.3787,-4.2558,-4.1269,-3.9981,-3.9697,-3.9697,-3.9697,-3.9697,-3.9697,-3.9697,-3.9697,-3.9697,-3.9697,-3.9697,-3.9697,-3.9697,-3.9697,-3.9697,-3.9697,-3.9697,-3.9697,-3.9697,-3.9697,-3.9697,-3.9697,-3.9697,-3.9697,-3.9697,-3.9697,-3.9697,-3.9697,-3.9697,-3.8804,-3.7079,-3.589,-3.3754,-3.0889,-3.0889,-3.0889,-1.9798,-1.9962,-2.0198,-2.0198,0.0,0.0,0.0,0.0,-2.0483,0.0,0.0,0.0,0.0,0.0,0.0,0.0,0.0,0.0,0.0,0.0,0.0,0.0,0.0,0.0,-3.2976,-3.3604,-3.4159,-3.4474,-3.5115,-3.5504,-3.5504,-3.5504,-3.5504,-3.5504,-3.5504,-3.5504,-3.5504,-3.5504,-3.5504,-3.5504,-3.5504,-3.6178,-3.7404,-3.7404,-3.8138,-3.9388,-3.9388,-3.9388,-3.9388,-3.9388,-4.0187,-4.1422,-4.1422,-4.2177,-4.329,-4.329,-4.329,-4.329,-4.329,-4.3947,-4.4855,-4.5185,-4.5978,-4.6875,-4.7204,-4.7309,-4.7309,-4.7309,-4.7309,-4.7309,-4.7309,-4.5869,-4.4303,-4.3646,-4.2035,-4.0453,-3.9839,-3.9697,-3.9697,-3.9697,-3.9697,-3.9697,-3.9697,-3.9697,-3.9697,-3.9697,-3.9697,-3.9697,-3.9697,-3.9697,-3.9697,-3.9697,-3.9697,-3.9697,-3.9697,-3.9697,-3.9697,-3.9697,-3.9697,-3.9697,-3.9697,-3.9697,-3.9697,-3.9697,-3.9697,-3.8961,-3.7518,-3.6757,-3.5288,-3.3098,-3.3098,-3.2711,0.0,0.0,0.0,0.0,0.0,-2.0453,0.0,0.0,0.0,0.0,0.0,0.0,0.0,0.0,0.0,0.0,0.0,0.0,0.0,0.0,0.0,0.0,0.0,0.0,-3.2108,-3.2602,-3.335,-3.4429,-3.4756,-3.51,-3.5489,-3.5504,-3.5504,-3.5504,-3.5504,-3.5504,-3.5504,-3.5504,-3.5504,-3.5504,-3.5504,-3.6178,-3.7404,-3.7404,-3.8138,-3.9388,-3.9388,-3.9388,-3.9388,-3.9559,-4.0307,-4.1422,-4.1422,-4.2177,-4.329,-4.329,-4.329,-4.329,-4.329,-4.4197,-4.5289,-4.5289,-4.6202,-4.7309,-4.7309,-4.7309,-4.7309,-4.7309,-4.7309,-4.7309,-4.7309,-4.5584,-4.3787,-4.3551,-4.1739,-3.9981,-3.9736,-3.9697,-3.9697,-3.9697,-3.9697,-3.9697,-3.9697,-3.9697,-3.9697,-3.9697,-3.9697,-3.9697,-3.9697,-3.9697,-3.9697,-3.9697,-3.9697,-3.9697,-3.9697,-3.9697,-3.9697,-3.9697,-3.9697,-3.9697,-3.9697,-3.9697,-3.9697,-3.9697,-3.9697,-3.9129,-3.7914,-3.7914,-3.7037,-3.5288,-3.5013,-3.4236,0.0,0.0,0.0,0.0,-2.2383,0.0,0.0,0.0,0.0,0.0,0.0,0.0,0.0,0.0,0.0,0.0,0.0,0.0,0.0,0.0,0.0,0.0,0.0,0.0,0.0,-3.0806,-3.1854,-3.4324,-3.3469,-3.3634,-3.5415,-3.5504,-3.5504,-3.5504,-3.5504,-3.5504,-3.5504,-3.5504,-3.5504,-3.5504,-3.5504,-3.6178,-3.7404,-3.7404,-3.8138,-3.9388,-3.9388,-3.9388,-3.9433,-4.0053,-4.0726,-4.1422,-4.1422,-4.2177,-4.329,-4.329,-4.329,-4.329,-4.329,-4.4197,-4.5289,-4.5289,-4.6202,-4.7309,-4.7309,-4.7309,-4.7309,-4.7309,-4.7309,-4.7309,-4.7309,-4.6255,-4.4872,-4.3787,-4.2412,-4.1082,-3.9929,-3.9697,-3.9697,-3.9697,-3.9697,-3.9697,-3.9697,-3.9697,-3.9697,-3.9697,-3.9697,-3.9697,-3.9697,-3.9697,-3.9697,-3.9697,-3.9697,-3.9697,-3.9697,-3.9697,-3.9697,-3.9697,-3.9697,-3.9697,-3.9697,-3.9697,-3.9697,-3.9697,-3.9697,-3.9633,-3.9465,-3.9465,-3.8031,-3.5288,-3.3957,-3.3237,0.0,0.0,0.0,0.0,0.0,0.0,-2.0707,0.0,-2.0154,0.0,0.0,0.0,0.0,0.0,0.0,0.0,0.0,0.0,0.0,0.0,0.0,0.0,0.0,0.0,0.0,0.0,0.0,0.0,-3.2826,-3.3215,-3.4816,-3.5295,-3.5504,-3.5504,-3.5504,-3.5504,-3.5504,-3.5504,-3.5504,-3.5504,-3.5504,-3.6178,-3.7404,-3.7404,-3.8138,-3.9388,-3.9388,-3.9388,-3.9433,-4.0127,-4.0786,-4.1452,-4.1841,-4.2521,-4.329,-4.329,-4.329,-4.3349,-4.3738,-4.4511,-4.5424,-4.6202,-4.6845,-4.7309,-4.7309,-4.7309,-4.7309,-4.7309,-4.7309,-4.7309,-4.7309,-4.6344,-4.507,-4.3787,-4.2558,-4.1269,-3.9981,-3.9697,-3.9697,-3.9697,-3.9697,-3.9697,-3.9697,-3.9697,-3.9697,-3.9697,-3.9697,-3.9697,-3.9697,-3.9697,-3.9697,-3.9697,-3.9697,-3.9697,-3.9697,-3.9697,-3.9697,-3.9697,-3.9697,-3.9697,-3.9697,-3.9697,-3.9697,-3.9697,-3.9697,-3.9697,-3.9697,-3.9697,-3.9089,-3.782,-3.721,-3.5999,-2.4881,0.0,0.0,0.0,0.0,0.0,0.0,0.0,0.0,0.0,0.0,0.0,0.0,0.0,0.0,0.0,0.0,0.0,0.0,0.0,0.0,0.0,0.0,0.0,0.0,0.0,0.0,0.0,0.0,-3.2332,-3.4399,-3.4951,-3.531,-3.5489,-3.5504,-3.5504,-3.5504,-3.5504,-3.5504,-3.5504,-3.5684,-3.6342,-3.7419,-3.7599,-3.8317,-3.9388,-3.9388,-3.9388,-3.9484,-4.0322,-4.095,-4.1459,-4.2336,-4.291,-4.329,-4.329,-4.329,-4.3394,-4.4092,-4.487,-4.5768,-4.692,-4.7309,-4.7309,-4.7309,-4.7309,-4.7309,-4.7309,-4.7309,-4.7309,-4.7309,-4.6344,-4.507,-4.3787,-4.2558,-4.1269,-3.9981,-3.9697,-3.9697,-3.9697,-3.9697,-3.9697,-3.9697,-3.9697,-3.9697,-3.9697,-3.9697,-3.9697,-3.9697,-3.9697,-3.9697,-3.9697,-3.9697,-3.9697,-3.9697,-3.9697,-3.9697,-3.9697,-3.9697,-3.9697,-3.9697,-3.9697,-3.9697,-3.9697,-3.9697,-3.9697,-3.9697,-3.9697,-3.9697,-3.9697,-3.9297,-3.7926,0.0,0.0,0.0,-2.4388,0.0,0.0,0.0,0.0,-2.1635,0.0,0.0,0.0,0.0,0.0,0.0,0.0,0.0,0.0,0.0,0.0,0.0,0.0,0.0,0.0,0.0,0.0,0.0,0.0,-2.9415,0.0,-3.4294,-3.4533,-3.4816,-3.5489,-3.5504,-3.5504,-3.5504,-3.5504,-3.5504,-3.5519,-3.6148,-3.6791,-3.7434,-3.8063,-3.8751,-3.9388,-3.9388,-3.9388,-3.9514,-4.0816,-4.1392,-4.1504,-4.2791,-4.3275,-4.329,-4.329,-4.329,-4.3394,-4.4092,-4.5185,-4.6396,-4.7085,-4.7309,-4.7309,-4.7309,-4.7309,-4.7309,-4.7309,-4.7309,-4.7309,-4.7309,-4.6344,-4.507,-4.3787,-4.2558,-4.1269,-3.9981,-3.9697,-3.9697,-3.9697,-3.9697,-3.9697,-3.9697,-3.9697,-3.9697,-3.9697,-3.9697,-3.9697,-3.9697,-3.9697,-3.9697,-3.9697,-3.9697,-3.9697,-3.9697,-3.9697,-3.9697,-3.9697,-3.9697,-3.9697,-3.9697,-3.9697,-3.9697,-3.9697,-3.9697,-3.9697,-3.9697,-3.9697,-3.9697,-3.9697,-3.8243,-3.7518,0.0,0.0,-2.9175,-2.6303,0.0,0.0,0.0,0.0,0.0,0.0,0.0,0.0,0.0,0.0,0.0,0.0,0.0,0.0,0.0,0.0,0.0,0.0,0.0,0.0,0.0,0.0,0.0,0.0,-2.925,0.0,-3.3036,-3.4039,-3.4608,-3.4816,-3.5265,-3.5504,-3.5504,-3.5504,-3.5504,-3.5519,-3.6178,-3.6806,-3.7434,-3.8093,-3.8766,-3.9388,-3.9388,-3.9388,-3.9514,-4.0846,-4.1422,-4.1504,-4.2821,-4.329,-4.329,-4.329,-4.329,-4.3454,-4.4586,-4.5843,-4.701,-4.7234,-4.7309,-4.7309,-4.7309,-4.7309,-4.7309,-4.7309,-4.7309,-4.7309,-4.7309,-4.6975,-4.6107,-4.4022,-4.317,-4.2266,-4.0173,-3.9697,-3.9697,-3.9697,-3.9697,-3.9697,-3.9697,-3.9697,-3.9697,-3.9697,-3.9697,-3.9697,-3.9697,-3.9697,-3.9697,-3.9697,-3.9697,-3.9697,-3.9697,-3.9697,-3.9697,-3.9697,-3.9697,-3.9697,-3.9697,-3.9697,-3.9697,-3.9697,-3.9697,-3.9697,-3.9697,-3.9697,-3.9697,-3.9697,-3.9193,-3.8413,-2.9666,-3.0028,0.0,-2.7555,-2.6641,0.0,-2.3281,0.0,0.0,0.0,0.0,0.0,0.0,0.0,0.0,0.0,0.0,0.0,0.0,0.0,0.0,0.0,0.0,0.0,0.0,0.0,-2.6072,-2.8083,-2.8438,-2.9579,0.0,0.0,-3.4264,-3.4503,-3.5145,-3.5504,-3.5504,-3.5504,-3.5504,-3.5519,-3.6402,-3.703,-3.7434,-3.8347,-3.899,-3.9388,-3.9388,-3.9388,-3.9514,-4.0846,-4.1422,-4.1504,-4.2821,-4.329,-4.329,-4.329,-4.3589,-4.4182,-4.5274,-4.6381,-4.7309,-4.7309,-4.7309,-4.7309,-4.7309,-4.7309,-4.7309,-4.7309,-4.7309,-4.7309,-4.7309,-4.6638,-4.5539,-4.3882,-4.2786,-4.169,-4.0032,-3.9697,-3.9697,-3.9697,-3.9697,-3.9697,-3.9697,-3.9697,-3.9697,-3.9697,-3.9697,-3.9697,-3.9697,-3.9697,-3.9697,-3.9697,-3.9697,-3.9697,-3.9697,-3.9697,-3.9697,-3.9697,-3.9697,-3.9697,-3.9697,-3.9697,-3.9697,-3.9697,-3.9697,-3.9697,-3.9697,-3.9697,-3.9697,-3.9697,-3.9697,-3.8908]},{"header":{"parameterUnit":"m.s-1","parameterCategory":1,"la1":30.6,"la2":29.2853,"lo1":-89.7004,"lo2":-87.6739,"dy":0.0162,"dx":0.0183,"nx":112,"ny":82,"refTime":"2026-03-31T00:00:00:Z","depth":0,"parameterNumber":3,"parameterNumberName":"V-component_of_WINDS"},"data":[0.0,0.0,0.0,0.0,0.0,0.0,0.0,0.0,0.0,0.0,0.0,0.0,0.0,0.0,0.0,0.0,0.0,0.0,0.0,0.0,0.0,0.0,0.0,0.0,0.0,0.0,0.0,0.0,0.0,0.0,0.0,0.0,0.0,0.0,0.0,0.0,0.0,0.0,0.0,0.0,0.0,0.0,0.0,0.0,0.0,0.0,0.0,0.0,0.0,0.0,0.0,0.0,0.0,0.0,0.0,0.0,0.0,0.0,0.0,0.0,0.0,0.0,0.0,0.0,0.0,0.0,0.0,0.0,0.0,0.0,0.0,0.0,0.0,0.0,0.0,0.0,0.0,0.0,0.0,0.0,0.0,0.0,0.0,0.0,0.0,0.0,0.0,0.0,0.0,0.0,2.482,2.6069,2.8757,3.0678,3.1211,3.0587,2.8976,2.6229,0.0,0.0,0.0,0.0,0.0,0.0,0.0,0.0,0.0,0.0,0.0,0.0,0.0,0.0,0.0,0.0,0.0,0.0,0.0,0.0,0.0,0.0,0.0,0.0,0.0,0.0,0.0,0.0,0.0,0.0,0.0,0.0,0.0,0.0,0.0,0.0,0.0,0.0,0.0,0.0,0.0,0.0,0.0,0.0,0.0,0.0,0.0,0.0,0.0,0.0,0.0,0.0,0.0,0.0,0.0,0.0,0.0,0.0,0.0,0.0,0.0,0.0,0.0,0.0,0.0,0.0,0.0,0.0,0.0,0.0,0.0,0.0,0.0,0.0,0.0,0.0,0.0,0.0,0.0,0.0,0.0,0.0,0.0,0.0,0.0,0.0,0.0,0.0,0.0,0.0,0.0,0.0,0.0,0.0,0.0,0.0,0.0,0.0,0.0,0.0,0.0,0.0,0.0,0.0,2.4649,2.8581,2.9459,2.9989,3.0592,2.9911,2.842,2.5999,0.0,0.0,0.0,0.0,0.0,0.0,0.0,0.0,0.0,0.0,0.0,0.0,0.0,0.0,0.0,0.0,0.0,0.0,0.0,0.0,0.0,0.0,0.0,0.0,0.0,0.0,0.0,0.0,0.0,0.0,0.0,0.0,0.0,0.0,0.0,0.0,0.0,0.0,0.0,0.0,0.0,0.0,0.0,0.0,0.0,0.0,0.0,0.0,0.0,0.0,0.0,0.0,0.0,0.0,0.0,0.0,0.0,0.0,0.0,0.0,0.0,0.0,0.0,0.0,0.0,0.0,0.0,0.0,0.0,0.0,0.0,0.0,0.0,0.0,0.0,0.0,0.0,0.0,0.0,0.0,0.0,0.0,0.0,0.0,0.0,0.0,0.0,0.0,0.0,0.0,0.0,0.0,0.0,0.0,0.0,0.0,0.0,0.0,0.0,0.0,0.0,0.0,0.0,2.4009,2.6248,2.9702,3.1094,3.1566,3.1042,3.095,2.9527,2.6175,2.5372,0.0,0.0,0.0,0.0,0.0,0.0,0.0,0.0,0.0,0.0,0.0,0.0,0.0,0.0,0.0,0.0,0.0,0.0,0.0,0.0,0.0,0.0,0.0,0.0,0.0,0.0,0.0,0.0,0.0,0.0,0.0,0.0,0.0,0.0,0.0,0.0,0.0,0.0,0.0,0.0,0.0,0.0,0.0,0.0,0.0,0.0,0.0,0.0,0.0,0.0,0.0,0.0,0.0,0.0,0.0,0.0,0.0,0.0,0.0,0.0,0.0,0.0,0.0,0.0,0.0,0.0,0.0,0.0,0.0,0.0,0.0,0.0,0.0,0.0,0.0,0.0,0.0,0.0,0.0,0.0,0.0,0.0,0.0,0.0,0.0,0.0,0.0,0.0,0.0,0.0,0.0,0.0,0.0,0.0,0.0,0.0,0.0,0.0,0.0,0.0,0.0,0.0,2.6499,2.8188,3.0492,3.2164,3.2651,3.1535,3.151,3.0002,2.6365,2.5149,0.0,0.0,0.0,0.0,0.0,0.0,0.0,0.0,0.0,0.0,0.0,0.0,0.0,0.0,0.0,0.0,0.0,0.0,0.0,0.0,0.0,0.0,0.0,0.0,0.0,0.0,0.0,0.0,0.0,0.0,0.0,0.0,0.0,0.0,0.0,0.0,0.0,0.0,0.0,0.0,0.0,0.0,0.0,0.0,0.0,0.0,0.0,0.0,0.0,0.0,0.0,0.0,0.0,0.0,0.0,0.0,0.0,0.0,0.0,0.0,0.0,0.0,0.0,0.0,0.0,0.0,0.0,0.0,0.0,0.0,0.0,0.0,0.0,0.0,0.0,0.0,0.0,0.0,0.0,0.0,0.0,0.0,0.0,0.0,0.0,0.0,0.0,0.0,0.0,0.0,0.0,0.0,0.0,0.0,0.0,0.0,0.0,0.0,0.0,0.0,0.0,0.0,2.7217,2.9909,3.1286,3.1552,3.1635,3.159,3.0195,2.8451,2.6419,2.4418,0.0,0.0,0.0,0.0,0.0,0.0,0.0,0.0,0.0,0.0,0.0,0.0,0.0,0.0,0.0,0.0,0.0,0.0,0.0,0.0,0.0,0.0,0.0,0.0,0.0,0.0,0.0,0.0,0.0,0.0,0.0,0.0,0.0,0.0,0.0,0.0,0.0,0.0,0.0,0.0,0.0,0.0,0.0,0.0,0.0,0.0,0.0,0.0,0.0,0.0,0.0,0.0,0.0,0.0,0.0,0.0,0.0,0.0,0.0,0.0,0.0,0.0,0.0,0.0,0.0,0.0,0.0,0.0,0.0,0.0,0.0,0.0,0.0,0.0,0.0,0.0,0.0,0.0,0.0,0.0,0.0,0.0,0.0,0.0,0.0,0.0,0.0,0.0,0.0,0.0,0.0,0.0,0.0,0.0,0.0,0.0,0.0,0.0,0.0,0.0,0.0,0.0,2.6535,2.9146,0.0,3.2284,3.2452,3.1568,3.1642,3.0191,2.6417,0.0,0.0,0.0,0.0,0.0,0.0,0.0,0.0,0.0,0.0,0.0,0.0,0.0,0.0,0.0,0.0,0.0,0.0,0.0,0.0,0.0,0.0,0.0,0.0,0.0,0.0,0.0,0.0,0.0,0.0,0.0,0.0,0.0,0.0,0.0,0.0,0.0,0.0,0.0,0.0,0.0,0.0,0.0,0.0,0.0,0.0,0.0,0.0,0.0,0.0,0.0,0.0,0.0,0.0,0.0,0.0,0.0,0.0,0.0,0.0,0.0,0.0,0.0,0.0,0.0,0.0,0.0,0.0,0.0,0.0,0.0,0.0,0.0,0.0,0.0,0.0,0.0,0.0,0.0,0.0,0.0,0.0,0.0,0.0,0.0,0.0,0.0,0.0,0.0,0.0,0.0,0.0,0.0,0.0,0.0,0.0,0.0,0.0,0.0,0.0,0.0,0.0,2.3741,2.6638,2.928,0.0,3.2351,3.2604,3.1828,3.1913,3.0439,2.6699,0.0,0.0,0.0,0.0,0.0,0.0,0.0,0.0,0.0,0.0,0.0,0.0,0.0,0.0,0.0,0.0,0.0,0.0,0.0,0.0,0.0,0.0,0.0,0.0,0.0,0.0,0.0,0.0,0.0,0.0,0.0,0.0,0.0,0.0,0.0,0.0,0.0,0.0,0.0,0.0,0.0,0.0,0.0,0.0,0.0,0.0,0.0,0.0,0.0,0.0,0.0,0.0,0.0,0.0,0.0,0.0,0.0,0.0,0.0,0.0,0.0,0.0,0.0,0.0,0.0,0.0,0.0,0.0,0.0,0.0,0.0,0.0,0.0,0.0,0.0,0.0,0.0,0.0,0.0,0.0,0.0,0.0,0.0,0.0,0.0,0.0,0.0,0.0,0.0,0.0,0.0,0.0,0.0,0.0,0.0,0.0,0.0,0.0,0.0,0.0,0.0,0.0,2.3909,2.7805,3.0776,3.1436,3.1511,3.1789,3.2447,3.0442,2.8587,0.0,0.0,0.0,0.0,0.0,0.0,0.0,0.0,0.0,0.0,0.0,0.0,0.0,0.0,0.0,0.0,0.0,0.0,0.0,0.0,0.0,0.0,0.0,0.0,0.0,0.0,0.0,0.0,0.0,0.0,0.0,0.0,0.0,0.0,0.0,0.0,0.0,0.0,0.0,0.0,0.0,0.0,0.0,0.0,0.0,0.0,0.0,0.0,0.0,0.0,0.0,0.0,0.0,0.0,0.0,0.0,0.0,0.0,0.0,0.0,0.0,0.0,0.0,0.0,0.0,0.0,0.0,0.0,0.0,0.0,0.0,0.0,0.0,0.0,0.0,0.0,0.0,0.0,0.0,0.0,0.0,0.0,0.0,0.0,0.0,0.0,0.0,0.0,0.0,0.0,0.0,0.0,0.0,0.0,0.0,0.0,0.0,0.0,0.0,0.0,0.0,0.0,0.0,2.3909,2.7805,3.0776,3.1436,3.1966,3.2334,3.2497,3.1844,3.0335,2.7778,0.0,0.0,0.0,0.0,0.0,0.0,0.0,0.0,0.0,0.0,0.0,0.0,0.0,0.0,0.0,0.0,0.0,0.0,0.0,0.0,0.0,0.0,0.0,0.0,0.0,0.0,0.0,0.0,0.0,0.0,0.0,0.0,0.0,0.0,0.0,0.0,0.0,0.0,0.0,0.0,0.0,0.0,0.0,0.0,0.0,0.0,0.0,0.0,0.0,0.0,0.0,0.0,0.0,0.0,0.0,0.0,0.0,0.0,0.0,0.0,0.0,0.0,0.0,0.0,0.0,0.0,0.0,0.0,0.0,0.0,0.0,0.0,0.0,0.0,0.0,0.0,0.0,0.0,0.0,0.0,0.0,0.0,0.0,0.0,0.0,0.0,0.0,0.0,0.0,0.0,0.0,0.0,0.0,0.0,0.0,0.0,0.0,0.0,0.0,0.0,0.0,0.0,2.3938,2.8054,3.1047,3.1466,3.191,3.2117,3.2075,3.2023,3.0686,2.7596,0.0,0.0,0.0,0.0,0.0,0.0,0.0,0.0,0.0,0.0,0.0,0.0,0.0,0.0,0.0,0.0,0.0,0.0,0.0,0.0,0.0,0.0,0.0,0.0,0.0,0.0,0.0,0.0,0.0,0.0,0.0,0.0,0.0,0.0,0.0,0.0,0.0,0.0,0.0,0.0,0.0,0.0,0.0,0.0,0.0,0.0,0.0,0.0,0.0,0.0,0.0,0.0,0.0,0.0,0.0,0.0,0.0,0.0,0.0,0.0,0.0,0.0,0.0,0.0,0.0,0.0,0.0,0.0,0.0,0.0,0.0,0.0,0.0,0.0,0.0,0.0,0.0,0.0,0.0,0.0,0.0,0.0,0.0,0.0,0.0,0.0,0.0,0.0,0.0,0.0,0.0,0.0,0.0,0.0,0.0,0.0,0.0,0.0,0.0,0.0,0.0,0.0,2.4019,2.8378,3.1511,3.1511,3.1511,3.1511,3.1497,3.1423,3.0138,2.7179,0.0,0.0,0.0,0.0,0.0,0.0,0.0,0.0,0.0,0.0,0.0,0.0,0.0,0.0,0.0,0.0,0.0,0.0,0.0,0.0,0.0,0.0,0.0,0.0,0.0,0.0,0.0,0.0,0.0,0.0,0.0,0.0,0.0,0.0,0.0,0.0,0.0,0.0,0.0,0.0,0.0,0.0,0.0,0.0,0.0,0.0,0.0,0.0,0.0,0.0,0.0,0.0,0.0,0.0,0.0,0.0,0.0,0.0,0.0,0.0,2.2435,0.0,0.0,0.0,0.0,0.0,0.0,0.0,0.0,0.0,0.0,0.0,0.0,0.0,0.0,0.0,0.0,0.0,0.0,0.0,0.0,0.0,0.0,0.0,0.0,0.0,0.0,0.0,0.0,0.0,0.0,0.0,0.0,0.0,0.0,0.0,0.0,0.0,0.0,0.0,0.0,0.0,2.4019,2.8378,3.1511,3.1511,3.1511,3.1736,3.2288,3.1748,3.0578,2.8641,2.6762,0.0,0.0,0.0,0.0,0.0,0.0,0.0,0.0,0.0,0.0,0.0,0.0,0.0,0.0,0.0,0.0,0.0,0.0,0.0,0.0,0.0,0.0,0.0,0.0,0.0,0.0,0.0,0.0,0.0,0.0,0.0,0.0,0.0,0.0,0.0,0.0,0.0,0.0,0.0,0.0,0.0,0.0,0.0,0.0,0.0,0.0,0.0,0.0,0.0,0.0,0.0,0.0,0.0,0.0,0.0,0.0,0.0,0.0,0.0,0.0,2.4491,0.0,0.0,0.0,0.0,0.0,0.0,0.0,0.0,0.0,0.0,0.0,0.0,0.0,0.0,0.0,0.0,0.0,0.0,0.0,0.0,0.0,0.0,0.0,0.0,0.0,0.0,0.0,0.0,0.0,0.0,0.0,0.0,0.0,0.0,0.0,0.0,0.0,0.0,0.0,0.0,2.4795,2.9022,3.1974,3.1974,3.1974,3.2014,3.2066,3.1977,3.1086,2.9183,2.7904,0.0,0.0,0.0,0.0,0.0,0.0,0.0,0.0,0.0,0.0,0.0,0.0,0.0,0.0,0.0,0.0,0.0,0.0,0.0,0.0,0.0,0.0,0.0,0.0,0.0,0.0,0.0,0.0,0.0,0.0,0.0,0.0,0.0,0.0,0.0,0.0,0.0,0.0,0.0,0.0,0.0,0.0,0.0,0.0,0.0,0.0,0.0,0.0,0.0,0.0,0.0,0.0,0.0,3.0588,3.1501,3.2392,3.3035,3.3365,3.3184,3.0016,2.8552,2.8176,2.5852,0.0,0.0,0.0,0.0,0.0,0.0,0.0,0.0,0.0,0.0,0.0,0.0,0.0,0.0,0.0,0.0,0.0,0.0,0.0,0.0,0.0,0.0,0.0,0.0,2.6664,2.7328,2.3562,0.0,0.0,0.0,0.0,0.0,0.0,0.0,0.0,0.0,0.0,0.0,2.5984,2.9869,3.2527,3.2677,3.2557,3.2273,3.172,3.2173,3.1636,2.9632,2.931,2.8028,0.0,0.0,0.0,0.0,0.0,0.0,0.0,0.0,0.0,0.0,0.0,0.0,0.0,0.0,0.0,0.0,0.0,0.0,0.0,0.0,0.0,0.0,0.0,0.0,0.0,0.0,0.0,0.0,0.0,0.0,0.0,0.0,1.8603,2.0309,0.0,0.0,0.0,0.0,0.0,0.0,0.0,0.0,0.0,0.0,0.0,0.0,0.0,2.8695,2.9842,3.2195,3.3197,3.29,3.5257,3.6186,3.5848,3.6477,3.6761,3.6746,3.6205,0.0,3.1738,3.0279,0.0,0.0,0.0,0.0,0.0,0.0,0.0,0.0,0.0,0.0,0.0,0.0,0.0,0.0,0.0,0.0,0.0,0.0,0.0,0.0,0.0,0.0,2.9527,2.9501,3.028,3.067,0.0,2.6411,2.3589,2.267,2.1671,0.0,0.0,0.0,0.0,0.0,0.0,0.0,2.7275,3.0437,3.2736,3.3305,3.2856,3.2452,3.2392,3.2453,3.21,3.1158,3.0369,2.9482,2.8451,2.5794,0.0,0.0,0.0,0.0,0.0,0.0,0.0,0.0,0.0,0.0,0.0,0.0,0.0,0.0,0.0,0.0,0.0,0.0,0.0,0.0,0.0,0.0,0.0,0.0,0.0,0.0,0.0,0.0,0.0,1.8957,2.0116,2.0296,2.0422,2.0296,0.0,0.0,0.0,0.0,0.0,0.0,0.0,0.0,0.0,2.9935,3.1306,3.2612,3.3883,3.5374,3.6163,3.6267,3.7404,3.8018,3.8138,3.8407,3.8506,3.8506,3.8506,3.7494,3.5681,3.3577,3.1618,2.9725,0.0,0.0,0.0,0.0,2.7372,2.7096,2.8208,2.7847,2.6766,2.6063,0.0,0.0,0.0,0.0,0.0,0.0,0.0,0.0,0.0,0.0,3.1377,3.2317,3.3179,3.3574,3.2886,3.0939,2.8583,0.0,2.5447,2.4408,2.1605,0.0,0.0,0.0,0.0,2.7193,2.9114,3.1871,3.3724,3.4039,3.3784,3.332,3.2572,3.3228,3.3211,3.21,3.1984,3.1444,3.0296,2.818,2.6471,0.0,0.0,0.0,0.0,0.0,0.0,0.0,0.0,0.0,0.0,0.0,0.0,0.0,0.0,0.0,0.0,0.0,0.0,0.0,0.0,0.0,0.0,0.0,0.0,0.0,0.0,0.0,0.0,2.0489,2.1569,2.1209,2.2424,2.2741,0.0,0.0,0.0,0.0,0.0,0.0,2.8153,2.9697,3.1528,3.3698,3.4889,3.6043,3.7225,3.7704,3.8167,3.8661,3.8661,3.8931,3.9388,3.9388,3.9388,3.9388,3.9388,3.9125,3.8476,3.6143,3.4382,3.3061,3.1911,3.1176,3.0874,3.1654,3.1144,3.029,3.1867,3.1345,2.9842,2.8863,2.826,2.7507,2.5264,0.0,0.0,0.0,0.0,2.7605,2.9388,3.1301,3.3033,3.4244,3.5019,3.537,3.4846,3.4218,3.2766,0.0,2.8966,2.7935,2.4259,0.0,0.0,0.0,0.0,2.9003,3.1086,3.3193,3.4578,3.4758,3.4608,3.4161,3.3366,3.41,3.4242,3.3351,3.3555,3.3186,3.2087,3.0448,2.8942,2.7604,0.0,0.0,0.0,0.0,0.0,0.0,0.0,0.0,0.0,0.0,0.0,0.0,0.0,0.0,0.0,0.0,0.0,0.0,0.0,0.0,0.0,0.0,0.0,0.0,0.0,0.0,0.0,0.0,0.0,2.4721,2.5571,0.0,0.0,0.0,0.0,2.6497,2.7977,2.9837,3.2092,3.4076,3.5786,3.7097,3.7853,3.8542,3.9275,3.9269,3.9298,3.9364,3.9364,3.9394,3.9388,3.9388,3.9388,3.9388,3.9388,3.9394,3.9224,3.7849,3.6369,3.4978,3.4293,3.4004,3.3946,3.3747,3.3439,3.3166,3.2993,3.1888,3.0721,3.1662,3.0922,2.9541,2.8813,2.7908,0.0,0.0,2.964,3.1619,3.2268,3.3853,3.5314,3.5424,3.5472,3.5489,3.5459,3.4906,3.3993,0.0,3.1255,2.9953,2.8521,0.0,2.7609,2.817,2.8958,3.0434,3.302,3.4023,3.4726,3.5385,3.4861,3.4756,3.538,3.494,3.4868,3.5506,3.4839,3.4404,3.4336,3.2239,3.0717,2.9937,2.7012,0.0,0.0,0.0,0.0,0.0,0.0,0.0,0.0,0.0,0.0,0.0,0.0,0.0,0.0,0.0,0.0,0.0,0.0,0.0,0.0,0.0,0.0,0.0,0.0,0.0,0.0,0.0,0.0,2.6823,2.8465,0.0,2.7615,2.8339,2.8926,2.9054,3.0361,3.1868,3.3556,3.4751,3.6077,3.7616,3.7879,3.8458,3.9373,3.9843,4.0053,4.0053,4.0472,4.0681,4.0681,4.0681,4.0681,4.0651,4.0232,4.0053,3.9978,3.9065,3.7992,3.6916,3.7378,3.7118,3.6504,3.6402,3.5883,3.5079,3.4353,3.3258,3.2202,3.2202,3.1587,3.0783,3.057,3.0005,2.9606,3.0391,3.1272,3.2258,3.3776,3.4626,3.5302,3.5985,3.5804,3.5504,3.5504,3.531,3.4996,3.4532,3.335,3.1869,3.0118,3.0342,3.0537,2.9924,3.112,3.2587,3.3979,3.4726,3.5235,3.5474,3.5295,3.527,3.5564,3.537,3.5374,3.5687,3.5398,3.5013,3.4506,3.3288,3.2053,3.0835,2.8822,2.6573,0.0,0.0,0.0,0.0,0.0,0.0,0.0,0.0,0.0,0.0,0.0,0.0,0.0,0.0,0.0,0.0,0.0,0.0,0.0,0.0,0.0,0.0,0.0,0.0,0.0,0.0,2.7363,2.8257,3.0408,3.1166,2.9583,3.0665,3.1534,3.164,3.2372,3.3438,3.4868,3.5347,3.6097,3.7214,3.7479,3.8069,3.9195,3.983,4.0321,4.0726,4.1175,4.1422,4.1422,4.1422,4.1422,4.1392,4.092,4.0726,4.0696,4.0262,3.9228,3.798,3.8595,3.8219,3.7266,3.7266,3.6579,3.5547,3.4498,3.367,3.3018,3.2629,3.2252,3.1951,3.1951,3.1725,3.1559,3.2222,3.2883,3.3601,3.452,3.5238,3.5795,3.6119,3.5818,3.5504,3.5504,3.5504,3.5504,3.5504,3.4786,3.3679,3.2108,3.2587,3.2871,3.1973,3.2976,3.4068,3.4741,3.522,3.5504,3.5504,3.5504,3.5542,3.5595,3.5606,3.5621,3.5704,3.5398,3.5013,3.4506,3.3305,3.2205,3.1207,2.9482,2.7385,2.488,0.0,0.0,0.0,0.0,0.0,0.0,0.0,0.0,0.0,0.0,0.0,0.0,0.0,0.0,0.0,0.0,0.0,0.0,0.0,0.0,0.0,0.0,0.0,2.4813,2.6804,2.8428,2.9149,3.1401,3.2216,3.058,3.1891,3.3261,3.421,3.3951,3.446,3.6012,3.6079,3.6132,3.6186,3.6753,3.7608,3.8793,3.9348,4.0246,4.1414,4.1467,4.1482,4.1482,4.1482,4.1482,4.1482,4.1452,4.1452,4.1452,4.1384,4.0085,3.8103,3.7923,3.7193,3.6213,3.6213,3.5548,3.4538,3.3484,3.3124,3.3124,3.3124,3.3124,3.3124,3.3124,3.3111,3.3086,3.3086,3.457,3.5802,3.4634,3.5856,3.7056,3.5833,3.5534,3.5534,3.5504,3.5504,3.5504,3.5504,3.5504,3.5295,3.4653,3.4533,3.4533,3.4533,3.4533,0.0,3.5415,3.5504,3.5504,3.5504,3.5504,3.5557,3.5625,3.5622,3.5637,3.5704,3.4946,3.4489,3.4489,3.2408,3.1258,3.1224,2.899,2.7131,2.571,0.0,0.0,0.0,0.0,0.0,0.0,0.0,0.0,0.0,0.0,0.0,0.0,0.0,0.0,0.0,0.0,0.0,0.0,0.0,0.0,0.0,2.4657,2.6578,2.713,2.8775,3.0584,3.2292,3.3489,3.4005,3.3528,3.3926,3.3984,3.3447,3.335,3.3504,3.394,3.394,3.4486,3.5662,3.5835,3.703,3.9362,3.9995,4.0942,4.2141,4.2566,4.2791,4.2791,4.2791,4.2791,4.2776,4.2336,4.2126,4.2096,4.1617,4.0085,3.8104,3.8837,3.7959,3.6273,3.6273,3.5355,3.4018,3.3336,3.3124,3.3124,3.3124,3.3124,3.3124,3.3124,3.278,3.2609,3.3333,3.3633,3.3985,3.5175,3.587,3.6301,3.6235,3.6222,3.6088,3.5609,3.5504,3.5504,3.5504,3.5504,3.5444,3.525,3.522,3.522,3.522,3.522,0.0,3.5489,3.5504,3.5504,3.5504,3.5504,3.5738,3.6291,3.5878,3.561,3.5646,3.4923,3.4489,3.4489,3.3406,3.2544,3.2005,2.9822,2.8467,0.0,0.0,0.0,0.0,0.0,0.0,0.0,0.0,0.0,0.0,0.0,0.0,0.0,0.0,0.0,0.0,0.0,0.0,0.0,0.0,0.0,0.0,2.6816,2.8687,2.9679,3.067,3.1833,3.3333,3.3817,3.4037,3.4037,3.4037,3.3755,3.3154,3.3124,3.3124,3.3124,3.3294,3.385,3.4792,3.5257,3.6492,3.863,3.976,4.089,4.2084,4.2897,4.329,4.329,4.329,4.329,4.3275,4.294,4.2776,4.2746,4.2357,4.1123,0.0,0.0,0.0,0.0,0.0,3.5066,3.4198,3.3872,3.3608,3.3507,3.3943,3.3947,3.3839,3.4262,3.4166,3.4,3.4567,3.4828,3.512,3.6045,3.6599,3.6931,3.688,3.6881,3.6701,3.6058,3.5923,3.5833,3.5549,3.5504,0.0,3.5504,3.5504,3.5504,3.5504,3.5504,3.5504,3.5504,3.5504,3.5504,3.5504,3.5504,3.5548,3.5705,3.5658,0.0,0.0,0.0,3.4066,3.3152,3.2713,0.0,0.0,0.0,0.0,0.0,0.0,0.0,0.0,2.828,2.8077,0.0,0.0,0.0,0.0,0.0,0.0,0.0,0.0,0.0,0.0,0.0,0.0,0.0,0.0,0.0,0.0,2.8875,3.052,3.2089,3.2303,3.2503,3.3061,3.3124,3.3124,3.3124,3.3124,3.3124,3.3124,3.3124,3.3149,3.3212,0.0,0.0,0.0,0.0,3.6126,3.7387,3.9057,4.049,4.1587,4.2765,4.329,4.329,4.329,4.329,4.329,4.329,4.329,4.329,4.329,4.2548,4.118,3.8964,3.6777,3.4901,3.4839,3.4768,3.4756,3.4705,0.0,0.0,3.5256,3.5284,3.5083,3.6017,3.6308,3.6294,3.6225,3.6891,3.7496,3.7034,3.7616,3.8176,3.7639,3.7524,3.7345,3.6731,3.6537,3.6312,3.5729,3.5549,3.5504,3.5504,3.5504,3.5504,3.5504,3.5504,3.5504,3.5504,3.5504,3.5504,3.5504,0.0,0.0,3.4668,3.52,3.5343,3.4745,3.4741,3.3863,3.1901,3.1816,3.1816,3.1816,3.1732,3.2341,3.366,3.366,3.4032,3.4658,3.0478,2.9666,0.0,0.0,0.0,0.0,0.0,0.0,0.0,0.0,0.0,0.0,0.0,0.0,0.0,0.0,0.0,2.831,3.0005,3.1512,3.2729,3.2918,3.2955,3.3111,3.3124,3.3124,3.3124,3.3124,3.3124,3.3124,3.3124,3.3269,3.3721,3.3847,3.4311,3.5157,3.5382,3.6271,3.7936,3.9261,4.049,4.1587,0.0,0.0,4.329,4.329,4.329,4.329,4.329,4.329,4.329,4.329,4.2085,4.0088,3.8661,3.7261,3.5994,3.5508,3.5345,3.527,3.4831,3.4605,3.4729,3.5931,3.6227,3.6255,3.6825,3.7011,0.0,3.635,3.6369,3.6668,3.7429,3.7754,3.7981,3.8171,3.8197,3.8018,3.7375,3.6836,3.6447,3.6327,3.5863,3.5504,3.5504,3.5504,3.5504,3.5504,3.5504,3.5504,3.5504,3.5504,3.5504,3.5504,3.5504,3.5444,3.5325,3.5431,3.5506,3.5429,3.6017,3.6169,3.5729,3.5729,3.5729,3.5729,3.5081,3.489,3.516,3.516,3.5588,3.6304,3.4184,3.3761,0.0,0.0,0.0,0.0,0.0,0.0,0.0,0.0,0.0,0.0,0.0,2.4479,2.5426,0.0,2.8662,3.0306,3.126,3.2102,3.2998,3.3124,3.3124,3.3124,3.3124,3.3124,3.3124,3.3124,3.3124,3.3124,3.3332,3.3608,3.3884,3.4424,3.4931,3.5483,3.5805,3.6396,3.723,3.9006,4.0202,4.0788,4.2467,4.2981,4.2467,4.2467,4.2467,4.2467,4.2467,4.2765,4.325,4.2684,4.1435,3.9768,3.8559,3.7415,3.6367,3.6056,3.5956,3.5999,3.6281,3.5831,3.5466,3.7783,3.7961,3.7493,3.8877,3.9063,3.8746,3.8414,3.8059,3.7927,3.8457,3.8583,3.8657,3.8868,3.8901,3.8721,3.8048,3.7659,3.7345,3.7015,3.6432,3.5998,3.5998,3.5729,3.5504,3.5504,3.5504,3.5504,3.5504,3.5504,3.5504,3.5504,3.5504,3.5504,3.5504,3.5875,3.6109,3.6147,3.6928,3.7161,3.6829,3.6795,3.6795,3.6795,3.64,3.6383,3.6749,3.6749,3.7161,3.7895,3.7094,3.6755,0.0,0.0,0.0,0.0,0.0,0.0,0.0,2.1957,2.2919,2.4015,2.5704,2.7377,2.8673,2.9656,3.0763,3.2266,3.2416,3.2541,3.3048,3.3124,3.3124,3.3124,3.3124,3.3124,3.3124,3.3124,3.3124,3.3124,3.3583,3.3947,3.406,3.4956,3.5545,3.5658,3.6132,3.6405,3.6405,3.8707,3.9899,3.9942,4.2003,4.2508,4.1587,4.1378,4.1378,4.1587,4.185,4.233,4.29,4.1726,4.0604,3.9448,3.8257,3.7196,3.6405,3.6405,3.6405,3.6534,3.7461,3.6992,3.6515,3.9466,3.9645,3.9044,4.1026,4.1205,4.0726,4.0472,4.0023,3.9574,3.9418,3.9388,3.9388,3.9388,3.9388,3.9275,3.8706,3.8482,3.8227,3.7704,3.709,3.6626,3.6507,3.6043,3.5654,3.5534,3.5504,3.5504,3.5504,3.5504,3.5504,3.5504,3.5504,3.5504,3.5504,3.6375,3.6897,3.6924,3.7795,3.8058,3.7472,3.7438,3.7438,3.7438,3.7438,3.7719,3.8328,3.8328,3.8633,3.9208,3.9208,3.8886,2.1172,2.02,2.0225,2.1594,2.1305,2.171,0.0,2.5812,2.5782,2.7833,2.9252,3.0432,3.1533,3.1856,3.2307,3.3417,3.3277,3.3006,3.3111,3.3124,3.3124,3.3124,3.3124,3.3124,3.3124,3.3124,3.3124,3.3124,3.3583,3.411,3.4613,3.5169,3.5768,3.6304,3.6367,3.6405,3.6405,3.8707,3.9899,3.9899,4.1169,4.1726,4.1545,4.0532,4.0661,4.167,4.2684,4.2589,4.1726,4.0575,3.939,3.8198,3.7023,3.6499,3.6405,3.6405,3.6405,3.6405,3.6534,3.7111,3.806,3.9527,4.0548,4.1311,4.209,4.2246,4.1931,4.0726,4.0352,4.0157,3.9574,3.9388,3.9388,3.9388,3.9388,3.9394,3.932,3.8826,3.8362,3.8287,3.7749,3.7135,3.6582,3.6432,3.6178,3.5594,3.5504,3.5504,3.5504,3.5504,3.5504,3.5504,3.5504,3.5504,3.5504,3.6858,3.769,3.7668,3.9046,3.9825,3.974,3.974,3.974,3.974,3.974,3.9774,3.9859,3.9859,3.991,3.9977,3.9977,3.9943,2.301,2.2435,2.241,2.3113,2.3696,2.4639,2.6826,2.7564,2.8196,2.958,3.0915,3.1794,3.1742,3.2282,3.276,0.0,3.3524,3.3797,3.3197,3.3641,3.3669,3.2689,3.2867,3.3124,3.3124,3.3124,3.3124,3.3124,3.3884,3.4474,3.4668,3.5542,3.6119,3.6405,3.6405,3.6405,3.6405,3.8707,3.9899,3.9899,4.174,4.1906,4.0575,4.0116,3.9798,3.9713,4.2208,4.2263,4.0575,4.0116,3.9183,3.7984,3.6849,3.6405,3.6405,3.6405,3.6405,3.6499,3.715,3.7276,3.7553,4.0088,4.0746,4.0915,4.2455,4.2671,4.2291,4.1737,4.1265,4.0816,4.0157,3.9993,3.9888,3.9514,3.9388,3.9388,3.9388,3.9185,3.899,3.899,3.8437,3.7898,3.7644,3.6971,3.6387,3.6118,3.5744,3.5504,3.5504,3.5504,3.5504,3.5504,3.5504,3.5504,3.5504,3.6492,3.7293,3.7764,3.8816,3.961,4.007,4.0096,4.0096,4.0096,4.0096,4.0096,4.0096,4.0096,4.0096,4.0096,4.0096,4.0096,2.3925,2.3879,2.4142,2.4757,2.5912,2.7165,2.8009,2.9103,3.0146,3.0891,3.199,3.2726,3.236,3.263,3.2869,3.2886,3.3527,3.3801,3.3172,3.3614,3.3604,3.2563,3.2679,3.2905,3.3056,3.3124,3.3124,3.3124,3.4098,3.468,3.468,3.5768,3.6405,3.6405,3.6405,3.6534,3.6896,3.8885,4.0073,4.0404,4.2029,4.1961,4.0361,4.0029,3.9227,3.8243,4.1127,4.1225,3.9404,3.9404,3.8693,3.754,3.6709,3.6405,3.6405,3.6405,3.6405,3.6546,3.7322,3.7276,3.7322,4.0204,4.0788,4.076,4.2684,4.3,4.262,4.2455,4.2051,4.1542,4.0846,4.0666,4.0502,3.9843,3.9694,3.9649,3.9454,3.9388,3.9388,3.9388,3.902,3.8616,3.8422,3.7629,3.6956,3.6776,3.6193,3.5714,3.5534,3.5504,3.5504,3.5504,3.5504,3.5504,3.5504,3.6165,3.6934,3.7764,3.8497,3.9262,4.007,4.0096,4.0096,4.0096,4.0096,4.0096,4.0096,4.0096,4.0096,4.0096,4.0096,4.0096,2.3133,2.3534,2.4519,2.6653,2.762,2.8486,3.0143,3.0962,3.149,3.2039,3.2659,3.339,3.4417,3.3296,3.2768,3.4339,3.3296,3.247,3.3036,3.2634,3.2483,3.3023,3.2566,3.2466,0.0,3.3124,3.3124,3.3124,3.4098,3.468,3.468,3.5768,3.6405,3.6405,3.6405,3.693,3.8017,3.9271,4.0447,4.1545,4.1629,4.1643,4.1504,4.0404,3.9227,3.8153,3.9448,3.9316,3.8153,3.8153,3.7507,3.6452,3.6405,3.6405,3.6405,3.6405,3.6405,3.6405,3.6452,3.715,3.8243,3.9536,4.0661,4.1767,4.2941,4.329,4.3125,4.2575,4.2396,4.2216,4.1557,4.1354,4.119,4.0531,4.0367,4.0187,3.9559,3.9388,3.9388,3.9388,3.9373,3.917,3.8497,3.8362,3.8108,3.7479,3.6851,3.6222,3.5594,3.5504,3.5504,3.5504,3.5504,3.5504,3.5504,3.6165,3.6934,3.7764,3.8497,3.9262,4.007,4.0096,4.0096,4.0096,4.0096,4.0096,4.0096,4.0096,4.0096,4.0096,4.0096,4.0096,2.4123,2.5197,2.6527,2.8009,2.9089,3.0105,3.1386,3.1813,3.1989,3.2177,3.2365,3.2403,3.2026,3.1795,3.1836,3.2424,3.354,3.4031,3.3237,3.4121,3.4268,3.2672,3.2328,0.0,0.0,0.0,0.0,3.3124,3.4098,3.468,3.468,3.5768,3.6405,3.6405,3.6405,3.6581,3.6977,3.893,3.9711,3.9288,3.9288,3.9288,3.9244,3.8859,3.8075,3.7057,3.9064,3.8796,3.7023,3.7802,3.7415,3.6405,3.6405,3.6405,3.6405,3.6405,3.6405,3.6405,3.6405,3.6675,3.715,3.8347,3.9522,4.0703,4.1823,4.2684,4.3245,4.306,4.3015,4.2851,4.2246,4.2066,4.1901,4.1205,4.1055,4.0876,4.0217,4.0068,3.9948,3.9514,3.9388,3.9313,3.911,3.8691,3.8167,3.7509,3.6881,3.6252,3.5594,3.5504,3.5504,3.5504,3.5504,3.5504,3.5504,3.5733,3.6196,3.698,3.7732,3.8513,3.9262,3.9808,4.0096,4.0096,4.0096,4.0096,4.0096,4.0096,4.0096,4.0096,4.0096,4.0096,2.5398,2.6615,2.7984,2.964,3.0645,3.1424,3.2315,3.2353,3.2152,3.1951,3.1775,3.1373,3.0482,3.0419,3.0645,3.1047,3.2554,3.3463,3.2866,3.3753,3.3911,3.2382,3.2039,3.1851,0.0,0.0,0.0,3.278,3.3985,3.468,3.468,3.5768,3.6405,3.6405,3.6405,3.6581,3.7023,3.8527,3.9094,3.8738,3.8738,3.8514,3.8107,3.8107,3.7507,3.6499,3.7997,3.7782,3.6452,3.7196,3.707,3.6405,3.6405,3.6405,3.6405,3.6405,3.6405,3.6405,3.6405,3.6405,3.6581,3.7723,3.8604,3.9536,4.1112,4.2111,4.2765,4.321,4.329,4.32,4.2821,4.2701,4.2551,4.1931,4.1767,4.1587,4.0891,4.0561,4.0277,3.9843,3.9574,3.9388,3.9388,3.905,3.8527,3.7853,3.7419,3.6851,3.5968,3.5863,3.5774,3.5534,3.5504,3.5504,3.5504,3.5504,3.5799,3.6554,3.71,3.7847,3.8854,3.9411,3.9808,4.0096,4.0096,4.0096,4.0096,4.0096,4.0096,4.0096,4.0096,4.0096,2.6791,2.7833,2.895,3.1562,3.224,3.239,3.2918,3.2591,3.2001,3.1386,3.0846,3.0306,2.9691,2.9202,2.9201,3.0319,3.0622,3.1062,3.2064,3.1829,3.1744,0.0,0.0,0.0,0.0,0.0,0.0,3.2252,0.0,3.468,3.468,3.5768,3.6405,3.6405,3.6405,3.693,3.7984,3.803,3.8604,3.9812,3.9768,3.9139,3.803,3.803,3.7415,3.6405,3.6405,3.6405,3.6405,3.6405,3.6405,3.6405,3.6405,3.6405,3.6405,3.6405,3.6405,3.6405,3.6405,3.6405,3.6581,3.7678,3.8062,3.8501,4.076,4.1504,4.185,4.29,4.325,4.329,4.329,4.329,4.314,4.259,4.2455,4.2276,4.1617,4.0935,4.0487,4.0457,3.9918,3.9454,3.9424,3.9388,3.92,3.8542,3.8437,3.7988,3.6701,3.6507,3.6252,3.5624,3.5534,3.5504,3.5504,3.5504,3.5814,3.6492,3.6615,3.7336,3.8799,3.8908,3.9315,4.007,4.0096,4.0096,4.0096,4.0096,4.0096,4.0096,4.0096,4.0096,2.8134,2.9817,3.1336,3.2039,3.2541,3.278,3.2503,3.2001,3.121,2.9842,2.9126,2.831,2.6929,2.757,2.8411,2.8699,3.0791,0.0,3.2239,3.3168,0.0,3.2958,3.2353,3.2051,3.2202,3.234,0.0,0.0,3.3771,3.468,3.468,3.5768,3.6405,3.6405,3.6405,3.6534,3.6849,3.6849,3.7415,3.8559,3.7691,3.7116,3.6849,3.6849,3.6675,3.6405,3.6405,3.6405,3.6405,3.6405,3.6405,3.6405,3.6405,3.6405,3.6405,3.6405,3.6405,3.6405,3.6405,3.6405,3.6452,3.6756,3.7415,3.8198,3.8801,4.0204,4.167,4.1932,4.2644,4.329,4.329,4.329,4.3245,4.3135,4.309,4.291,4.2291,4.2021,4.1752,4.122,4.0591,3.9993,3.9514,3.9388,3.9328,3.9185,3.9155,3.8676,3.7345,3.6776,3.6417,3.6252,3.5804,3.5504,3.5504,3.5504,3.5587,3.5782,3.6844,3.769,3.8064,3.9183,3.9901,4.0113,4.0096,4.0096,4.0096,4.0096,4.0096,4.0096,4.0096,4.0096,2.9641,3.1085,3.2277,3.2528,3.2641,3.2491,3.1687,3.0884,2.9767,2.7858,2.7042,2.6226,2.4782,2.5875,2.7092,2.7344,2.9755,0.0,3.182,3.2682,3.3129,0.0,3.2416,0.0,3.2215,3.2441,3.2591,0.0,3.3909,3.468,3.468,3.5768,3.6405,3.6405,3.6405,3.6405,3.6405,3.6405,3.6709,3.7368,3.6709,3.6405,3.6405,3.6405,3.6405,3.6405,0.0,3.6405,3.6405,3.6405,3.6405,3.6405,3.6405,3.6405,3.6405,3.6405,3.6568,3.6769,3.6769,3.6933,3.7048,3.6845,3.6993,3.75,3.8241,3.9226,4.029,4.1322,4.207,4.2684,4.3155,4.329,4.329,4.329,4.329,4.32,4.2865,4.2605,4.2201,4.1542,4.0846,4.0277,3.9903,3.9568,3.9388,3.9388,3.9388,3.9155,3.8392,3.7719,3.721,3.6926,3.6567,3.6237,3.5953,3.5938,3.5804,3.5519,3.6631,3.7427,3.7793,3.8924,3.9756,4.0096,4.0096,4.0096,4.0096,4.0096,4.0096,4.0096,4.0096,4.0096,3.0984,3.1851,3.2428,3.2855,3.2528,3.18,3.0658,2.9427,2.7984,2.5824,2.4908,2.4136,2.3083,2.4268,2.5598,2.6273,2.8222,3.0055,3.1135,3.1411,3.1675,3.2152,3.2277,3.2328,3.2328,3.278,3.3124,3.3124,3.4035,3.4605,3.468,3.5768,3.6405,3.6405,3.6405,3.6405,3.6405,3.6405,3.6405,3.6405,3.6405,3.6405,3.6405,3.6405,3.6405,3.6405,3.6405,3.6405,3.6405,3.6405,3.6405,3.6405,3.6405,3.6405,3.6417,3.6493,3.682,3.7199,3.7262,3.76,3.7927,3.745,3.6973,3.6897,3.8358,3.8569,3.8714,4.0688,4.1367,4.1744,4.2795,4.3076,4.3115,4.325,4.329,4.329,4.329,4.2895,4.2336,4.1677,4.1055,4.0636,4.0546,3.9993,3.9508,3.9508,3.9448,3.9388,3.9388,3.8811,3.8167,3.7599,3.7464,3.7195,3.6656,3.6611,3.6372,3.5789,3.6456,3.7185,3.7889,3.8735,3.9468,4.0079,4.0197,4.0248,4.0248,4.0248,4.0299,4.04,4.04,4.04,3.1198,3.2139,3.283,3.2453,3.1938,3.1122,2.9527,2.8009,2.6424,2.4632,2.3452,2.2548,2.1895,2.315,2.4594,2.5586,2.762,2.9427,3.0595,3.1512,3.2102,0.0,3.2641,3.293,3.293,3.3061,0.0,0.0,3.3671,3.4248,3.47,3.5768,3.6405,3.6405,3.6405,3.6405,3.6405,3.6405,3.6405,3.6405,3.6405,3.6405,3.6405,3.6405,3.6405,3.6405,3.6405,0.0,3.6405,3.6405,3.6405,3.6405,3.6405,3.6405,3.6468,3.692,3.7098,3.7249,3.7701,3.7927,3.799,3.7889,3.7801,3.7788,3.8059,3.8772,3.9467,3.9413,4.0113,4.1005,4.1717,4.1891,4.2111,4.3076,4.329,4.329,4.329,4.32,4.297,4.2366,4.2141,4.1886,4.1309,4.0666,4.0232,4.0232,3.9768,3.9388,3.9388,3.8811,3.8347,3.8227,3.7734,3.736,3.7255,3.724,3.7195,3.709,3.7816,3.8335,3.8463,3.9847,4.0423,3.9924,4.0637,4.1018,4.1018,4.1018,4.1322,4.1941,4.1941,4.1941,3.1675,3.2428,3.2943,3.2353,3.1599,3.0394,2.816,2.6364,2.4651,2.2703,2.1594,2.0928,2.0665,2.1983,2.3389,2.418,2.5937,2.7795,2.9503,3.0444,3.1273,3.2114,3.2717,3.3124,3.3124,3.3124,3.3124,3.3124,3.3583,3.4135,3.4688,3.5768,3.6405,3.6405,3.6405,3.6405,3.6405,3.6405,3.6405,3.6405,3.6405,3.6405,3.6405,3.6405,3.6405,3.6405,3.6405,0.0,3.6405,3.6405,3.6405,3.6405,3.6405,3.6405,3.6468,3.6973,3.7362,3.7701,3.8266,3.8642,3.8881,3.8881,3.8479,3.8065,3.8366,3.8674,3.8926,3.9249,3.9801,4.0527,4.1711,4.2034,4.2214,4.311,4.329,4.329,4.329,4.329,4.32,4.2925,4.262,4.2306,4.1991,4.1339,4.0786,4.0442,4.0127,3.9798,3.9433,3.9125,3.8931,3.8931,3.8646,3.8317,3.7943,3.7913,3.7778,3.7434,3.8149,3.8594,3.8594,3.9733,4.0427,4.047,4.0868,4.1328,4.1762,4.1762,4.1948,4.2286,4.2286,4.2286,3.1851,3.2365,3.2604,3.2152,3.1047,2.9402,2.6889,2.482,2.2899,2.0918,1.9936,1.9535,1.9761,2.0878,2.2108,2.312,2.4474,2.6214,2.8399,2.9352,3.0344,3.1851,3.2541,0.0,3.3111,3.3124,0.0,3.3124,3.3696,0.0,3.4818,3.5717,3.6292,3.6405,3.6405,3.6405,3.6405,3.6405,3.6405,3.6405,3.6405,3.6405,3.6405,3.6405,3.6405,3.6405,3.6405,0.0,0.0,3.6405,3.6405,3.6405,3.6405,3.6405,3.6493,3.7111,3.7638,3.8103,3.8806,3.9333,3.9697,3.9697,3.9094,3.8454,3.8906,3.873,3.8528,3.9356,3.9786,4.0341,4.1884,4.2367,4.259,4.3184,4.329,4.329,4.329,4.329,4.329,4.329,4.2925,4.2605,4.2605,4.2066,4.1452,4.0905,4.0576,4.0217,3.9694,3.9514,3.9388,3.9388,3.9388,3.92,3.8661,3.8601,3.8392,3.7868,3.8424,3.8778,3.8778,3.9548,4.0208,4.0683,4.1082,4.1602,4.2263,4.2443,4.2608,4.2777,4.2777,4.2777,3.1185,3.1499,3.1537,3.1486,2.9892,2.7871,2.6088,2.3627,2.1368,2.0137,1.9058,1.8643,1.9623,1.9924,2.0878,2.3489,2.4469,2.5661,2.7871,2.9114,3.0218,3.1336,0.0,0.0,3.3074,3.3124,3.3124,3.3124,3.406,0.0,3.5395,3.552,3.5843,3.6392,3.6405,3.6405,3.6405,3.6405,3.6405,3.6405,3.6405,3.6405,3.6405,3.6405,3.6405,3.6405,3.6405,0.0,0.0,3.6405,3.6405,3.6405,3.6405,3.6405,3.6531,3.755,3.7965,3.8165,3.9245,3.9647,3.9697,3.9697,3.9622,3.9546,3.9597,3.9584,3.9485,3.907,3.9827,4.0845,4.1595,4.2174,4.2674,4.3184,4.329,4.329,4.329,4.329,4.329,4.329,4.3245,4.32,4.32,4.2701,4.2291,4.2231,4.116,4.0382,4.0322,3.9783,3.9388,3.9388,3.9388,3.9394,3.9334,3.9334,3.9269,3.9209,3.9301,3.9337,3.9337,4.0159,4.0344,3.9738,4.1294,4.2133,4.2191,4.2953,4.3673,4.4395,4.4395,4.4395,3.0218,3.0896,3.1311,3.0997,2.9503,2.7582,2.5586,2.2987,2.0704,1.9534,1.8468,1.8041,1.9108,1.9309,2.0024,2.2146,2.2673,2.359,2.5812,2.708,2.8485,3.0218,3.1198,0.0,0.0,0.0,3.3124,3.3124,3.3483,0.0,3.4525,3.5491,3.6132,3.6405,3.6405,3.6405,3.6405,3.6405,3.6405,3.6405,3.6405,3.6405,3.6405,3.6405,3.6405,3.6405,3.6405,0.0,0.0,3.6405,3.6405,3.6405,3.6405,3.6405,3.6543,3.76,3.8002,3.8165,3.9295,3.9697,3.9697,3.9697,3.9697,3.9697,3.9697,3.9697,3.9647,3.9433,3.9753,4.0465,4.184,4.2909,4.3667,4.3852,4.3574,4.329,4.329,4.329,4.329,4.329,4.329,4.329,4.329,4.312,4.2821,4.2455,4.1961,4.1482,4.104,4.0771,4.0442,4.0053,3.9649,3.9388,3.9388,3.9388,3.9388,3.9388,3.9388,3.9388,3.9388,3.9737,4.0028,4.0269,4.1454,4.2346,4.2861,4.3714,4.4282,4.4615,4.4615,4.4615,2.9252,3.0093,3.062,3.0419,2.8976,2.7092,2.5046,2.241,2.0126,1.8983,1.7903,1.7413,1.8343,1.8657,1.9246,2.074,2.1405,2.2447,2.4499,2.5774,2.7253,2.9289,0.0,3.1361,0.0,3.288,3.3124,3.3124,0.0,0.0,3.3872,3.5152,3.5956,3.6119,3.6329,3.6405,3.6405,3.6405,3.6405,3.6405,3.6405,3.6405,3.6405,3.6405,3.6405,3.6405,3.6405,0.0,0.0,3.6405,3.6405,3.6405,3.6405,3.6405,3.6543,3.76,3.8002,3.8165,3.9295,3.9697,3.9697,3.9697,3.9697,3.9697,3.9697,3.9697,3.9697,3.9697,4.0224,4.1136,4.243,4.3676,4.4511,4.4122,4.3618,4.329,4.329,4.329,4.329,4.329,4.329,4.329,4.329,4.329,4.314,4.2716,4.2515,4.2231,4.1767,4.1542,4.1205,4.0741,4.0113,3.9634,3.9439,3.9388,3.9388,3.9388,3.9388,3.9388,3.9388,3.9388,3.9702,4.0309,4.1412,4.2284,4.2909,4.4064,4.4615,4.4615,4.4615,4.4615,2.8298,2.8913,2.9051,2.9666,2.8158,2.6084,2.4381,2.1832,1.951,1.843,1.7313,1.671,1.7287,1.784,1.8568,1.9648,2.1217,2.2887,2.455,2.5774,2.7115,0.0,0.0,3.0231,3.1298,3.2416,3.3124,3.3124,0.0,0.0,3.3897,3.4437,3.4944,3.5495,3.6081,3.6405,3.6405,3.6405,3.6405,3.6405,3.6405,3.6405,3.6405,3.6405,3.6405,3.6405,0.0,0.0,0.0,3.6405,3.6405,3.6405,3.6405,3.6405,3.6543,3.76,3.8002,3.8165,3.9295,3.9697,3.9697,3.9697,3.9697,3.9697,3.9697,3.9697,3.9697,3.9697,4.1505,4.3449,4.3394,4.4334,4.496,4.3618,4.3305,4.329,4.329,4.329,4.329,4.329,4.329,4.329,4.329,4.329,4.329,4.329,4.2776,4.2396,4.2396,4.1826,4.1422,4.1407,4.0786,4.0127,3.9448,3.9388,3.9388,3.9388,3.9388,3.9388,3.9388,3.9388,3.9409,3.9409,4.1129,4.1997,4.2029,4.3768,4.4615,4.4615,4.4615,4.4615,2.5259,2.6088,2.6615,2.644,2.5285,2.3853,2.2573,2.0727,1.8933,1.7865,1.7036,1.6685,1.7297,1.7549,1.8391,2.0589,2.1405,2.2472,2.4499,0.0,0.0,2.87,3.0771,3.2206,0.0,0.0,3.3124,0.0,0.0,0.0,3.3332,3.3859,3.4587,3.547,3.5671,3.5981,3.6405,3.6405,3.6405,3.6405,3.6405,3.6405,3.6405,3.6405,3.6405,0.0,0.0,0.0,0.0,3.6405,3.6405,3.6405,3.6405,3.6405,3.6505,3.7174,3.7688,3.8115,3.8868,3.9383,3.9697,3.9697,3.9697,3.9697,3.9697,3.9697,3.9697,3.9697,4.1555,4.3501,4.3487,4.437,4.5185,4.4766,4.3988,4.329,4.329,4.329,4.329,4.329,4.329,4.329,4.329,4.329,4.329,4.329,4.3125,4.303,4.303,4.2851,4.2536,4.2141,4.1901,4.1294,4.0187,3.9679,3.9388,3.9388,3.9388,3.9388,3.9388,3.9388,3.9388,3.9388,4.1129,4.1997,4.1997,4.3739,4.4615,4.4615,4.4615,4.4615,2.2987,2.4155,2.4921,2.4594,2.3785,2.2757,2.1481,2.0062,1.8694,1.7614,1.6923,1.66,1.6986,1.726,1.8039,1.9936,2.0805,2.1882,2.3873,0.0,0.0,2.9001,0.0,0.0,0.0,3.2955,3.3124,0.0,0.0,0.0,3.3124,3.3407,3.3997,3.4856,3.5282,3.5658,3.6056,3.6304,3.6405,3.6405,3.6405,3.6405,3.6405,3.6405,3.6405,0.0,0.0,0.0,0.0,3.6405,3.6405,3.6405,3.6405,3.6405,3.6468,3.6973,3.7525,3.809,3.8668,3.9233,3.9697,3.9697,3.9697,3.9697,3.9697,3.9697,3.9697,3.9697,4.1169,4.2828,4.3072,4.4036,4.4953,4.4952,4.4302,4.3604,4.3349,4.329,4.329,4.329,4.329,4.329,4.329,4.329,4.329,4.329,4.329,4.329,4.329,4.329,4.314,4.2776,4.2545,4.2066,4.1205,4.0307,3.9694,3.9439,3.9388,3.9388,3.9388,3.9388,3.9388,3.9388,4.0808,4.1511,4.1495,4.3259,4.4281,4.4615,4.4615,4.475,0.0,2.2786,2.364,2.3602,2.3188,2.2343,2.0817,1.9648,0.0,1.7539,1.6886,1.6525,1.66,1.7049,1.7637,1.8329,1.9786,2.1383,0.0,2.4782,0.0,0.0,3.0846,0.0,3.2227,3.2754,0.0,0.0,0.0,0.0,3.3124,3.3124,3.3319,3.3822,3.4831,3.542,3.5495,3.6056,3.6367,3.6405,3.6405,3.6405,3.6405,3.6405,3.6405,0.0,0.0,0.0,0.0,3.6405,3.6405,3.6405,3.6405,3.6405,3.6468,3.6935,3.7475,3.8027,3.8617,3.917,3.9647,3.9685,3.9697,3.9697,3.9697,3.9697,3.9697,3.9697,4.0605,4.1767,4.2391,4.3462,4.4385,4.4448,4.4421,4.4212,4.3499,4.3364,4.3349,4.3305,4.329,4.329,4.329,4.329,4.329,4.329,4.329,4.329,4.329,4.329,4.329,4.329,4.2791,4.2455,4.2396,4.119,4.0187,3.9493,3.9448,3.9433,3.9388,3.9388,3.9388,3.9388,4.0239,4.0758,4.0878,4.2569,4.3822,4.4682,4.4733,4.5094,1.8391,0.0,2.0073,1.9673,1.9459,1.9158,0.0,1.7976,1.7576,1.6873,1.6588,1.6763,1.7652,1.7576,1.814,2.0351,2.1393,2.251,2.4161,0.0,0.0,3.0834,3.2001,3.2729,3.2867,3.3006,0.0,0.0,0.0,3.3124,3.3124,3.3124,3.3174,3.3269,3.3935,3.4688,3.5495,3.5621,3.5943,3.6405,3.6405,3.6405,3.6405,3.6405,3.6405,0.0,0.0,0.0,3.6405,3.6405,3.6405,3.6405,3.6405,3.6405,3.643,3.6556,3.6958,3.7462,3.8015,3.858,3.9132,3.9559,3.9697,3.9697,3.9697,3.9697,3.9697,3.9697,4.0605,4.1861,4.3006,4.3832,4.466,4.5607,4.5454,4.4885,4.4227,4.4077,4.3888,4.3394,4.329,4.329,4.329,4.329,4.329,4.329,4.329,4.329,4.329,4.329,4.329,4.329,4.3155,4.2895,4.244,4.1647,4.0876,4.0217,4.0172,3.9948,3.9403,3.9388,3.9388,3.9388,4.0239,4.1379,4.2693,4.368,4.4571,4.5449,4.6007,4.6058,1.6986,1.7955,1.8933,1.8632,1.8556,1.8442,1.789,1.7586,1.7234,1.6613,1.65,1.6763,1.7664,1.779,1.8517,2.0779,2.1782,0.0,0.0,0.0,3.047,3.1298,3.2432,3.3124,0.0,0.0,0.0,0.0,0.0,3.3124,3.3124,3.3124,3.3124,3.3124,3.337,3.3935,3.4776,3.4994,3.5395,3.5994,3.5994,3.6119,3.6405,3.6405,3.6405,0.0,0.0,0.0,3.6405,3.6405,3.6405,3.6405,3.6405,3.6405,3.6405,3.6405,3.6757,3.7262,3.7814,3.8555,3.9295,3.9597,3.9697,3.9697,3.9697,3.9697,3.9697,3.9697,4.0224,4.1032,4.2315,4.3302,4.4212,4.5186,4.5584,4.5589,4.49,4.4526,4.4212,4.3813,4.3499,4.329,4.329,4.329,4.329,4.329,4.329,4.329,4.329,4.329,4.329,4.329,4.329,4.3155,4.2836,4.2476,4.1863,4.0905,4.0846,4.0696,4.0337,4.0322,4.0322,4.0322,4.047,4.1429,4.3164,4.3601,4.4453,4.572,4.6447,4.6769,1.6701,1.7854,1.8945,1.8682,1.8694,1.8607,1.8078,1.7589,1.7112,1.66,1.6563,1.6873,1.7637,1.8204,1.9158,2.0918,0.0,0.0,2.7105,2.9239,3.0721,3.1323,3.2303,0.0,0.0,0.0,0.0,0.0,0.0,3.3124,3.3124,3.3124,3.3124,3.3124,3.3124,3.3307,3.3771,3.4324,3.4831,3.537,3.537,3.5667,3.6153,3.6254,3.6279,3.6292,0.0,0.0,3.6405,3.6405,3.6405,3.6405,3.6405,3.6405,3.6405,3.6405,3.6707,3.7149,3.7789,3.8755,3.9697,3.9697,3.9697,3.9697,3.9697,3.9697,3.9697,3.9697,3.9697,3.9981,4.1269,4.2544,4.3695,4.4398,4.5536,4.6292,4.5603,4.502,4.4586,4.4481,4.3977,4.3589,4.3589,4.3514,4.3439,4.3439,4.3364,4.329,4.329,4.329,4.329,4.329,4.329,4.329,4.329,4.329,4.2826,4.1743,4.1579,4.1527,4.1422,4.1422,4.1422,4.1422,4.0831,4.1418,4.318,4.3194,4.4185,4.6058,4.665,4.7275,1.7689,1.8456,1.8657,1.724,1.7275,1.7488,1.6911,1.6688,1.66,1.6513,1.6911,1.7725,1.9158,1.9925,2.1018,0.0,0.0,2.6524,0.0,0.0,3.0281,3.1273,0.0,0.0,0.0,0.0,0.0,0.0,0.0,3.3124,3.3124,3.3124,3.3124,3.3124,3.3124,3.3162,3.3206,3.3746,3.4299,3.4806,3.4806,3.4889,3.4989,3.5408,3.5621,3.5658,0.0,3.6405,3.6405,3.6405,3.6405,3.6405,3.6405,3.6405,3.6405,3.6405,3.6468,3.6681,3.7651,3.8755,3.9697,3.9697,3.9697,3.9697,3.9697,3.9697,3.9697,3.9697,3.9697,3.9981,4.1269,4.2544,4.3807,4.4955,4.6197,4.698,4.6307,4.6097,4.5843,4.5259,4.5065,4.499,4.499,4.4526,4.4167,4.4167,4.3648,4.329,4.329,4.329,4.329,4.329,4.329,4.329,4.329,4.329,4.3215,4.3006,4.2521,4.1991,4.1399,4.1422,4.1422,4.1422,4.128,4.2107,4.3916,4.378,4.5018,4.7567,4.7495,4.7625,1.7127,1.7702,1.8028,1.7551,1.8066,1.8618,1.8355,1.8055,1.7929,1.8205,1.8505,1.9007,2.0101,2.1217,2.2836,2.536,0.0,2.8059,2.8787,2.9691,3.0419,0.0,0.0,0.0,0.0,0.0,0.0,0.0,0.0,0.0,3.3124,3.3124,3.3124,3.3124,3.3124,3.3124,3.3124,3.3332,3.3734,3.4274,3.4274,3.4437,3.4726,3.4944,3.5219,3.552,0.0,3.6094,3.6405,3.6405,3.6405,3.6405,3.6405,3.6405,3.6405,3.6405,3.6782,3.7324,3.7839,3.8755,3.9697,3.9697,3.9697,3.9697,3.9697,3.9697,3.9697,3.9697,3.9697,3.9839,4.0415,4.1505,4.2786,4.4069,4.5358,4.6373,4.6776,4.6576,4.619,4.5918,4.5544,4.5289,4.5289,4.505,4.4721,4.4362,4.4062,4.3693,4.3349,4.329,4.329,4.329,4.329,4.329,4.329,4.329,4.329,4.329,4.3045,4.2761,4.2447,4.2432,4.2432,4.2432,4.2087,4.2567,4.3886,4.3842,4.496,4.7143,4.7472,4.7913,1.6814,1.7237,1.7762,1.8405,1.9007,1.9522,1.9911,1.9597,1.9371,2.0062,2.03,2.0564,2.1142,2.2811,0.0,2.7105,2.8411,2.9126,2.9126,2.988,3.047,3.0608,0.0,0.0,0.0,0.0,0.0,0.0,0.0,0.0,3.288,3.3006,3.3124,3.3124,3.3124,3.3124,3.3124,3.3124,3.3294,3.3709,3.3709,3.3922,3.4349,3.4474,3.4718,3.5132,3.5382,3.578,3.6182,3.6355,3.6405,3.6405,3.6405,3.6405,3.6405,3.6405,3.7061,3.8002,3.8002,3.8755,3.9697,3.9697,3.9697,3.9697,3.9697,3.9697,3.9697,3.9697,3.9697,3.9697,3.9697,4.0642,4.1936,4.3218,4.4456,4.5734,4.7019,4.692,4.6503,4.6503,4.6127,4.5768,4.5768,4.5633,4.5364,4.487,4.4646,4.4362,4.3813,4.3753,4.3693,4.3544,4.3529,4.3469,4.3305,4.329,4.329,4.329,4.329,4.329,4.329,4.329,4.329,4.329,4.2851,4.3053,4.3948,4.3784,4.4756,4.6766,4.7127,4.7901,1.7802,1.8116,1.8392,1.9434,1.8995,1.8719,2.0277,2.0189,2.0049,2.1142,2.1769,2.2297,2.2832,2.5159,2.7218,2.7934,2.8988,2.9729,2.9729,0.0,0.0,0.0,0.0,0.0,0.0,0.0,0.0,0.0,0.0,0.0,3.2277,3.278,3.3124,3.3124,3.3124,3.3124,3.3124,3.3124,3.3136,3.3174,3.3174,3.3156,3.3219,3.3721,3.3985,3.4073,3.5056,3.552,3.5596,3.6157,3.6405,3.6405,3.6405,3.6405,3.6405,3.6405,3.7061,3.8002,3.8002,3.8755,3.9697,3.9697,3.9697,3.9697,3.9697,3.9697,3.9697,3.9697,3.9697,3.9697,3.9697,4.0642,4.1936,4.3218,4.4456,4.5734,4.7019,4.7264,4.7234,4.7234,4.7189,4.716,4.716,4.6651,4.619,4.6145,4.5633,4.5214,4.5155,4.5155,4.4915,4.4302,4.4242,4.4003,4.3349,4.329,4.329,4.329,4.329,4.329,4.329,4.329,4.329,4.329,4.3245,4.375,4.4734,4.3773,4.4784,4.7507,4.668,4.7273,1.7014,1.7664,1.8392,1.9108,1.9522,2.0101,2.1393,2.1782,2.2255,2.374,2.4205,2.4531,2.5096,2.6339,2.757,2.8473,2.9277,2.9792,2.9792,0.0,0.0,0.0,0.0,0.0,0.0,0.0,0.0,0.0,0.0,0.0,3.17,3.224,3.2541,3.2541,3.288,3.3124,3.3124,3.3124,3.3124,3.3124,3.3124,3.3124,3.3124,3.3294,3.3571,3.3935,3.4655,3.5182,3.5545,3.6132,3.6405,3.6405,3.6405,3.6405,3.6405,3.6405,3.6883,3.755,3.7889,3.8517,3.9245,3.9584,3.9697,3.9697,3.9697,3.9697,3.9697,3.9697,3.9697,3.9697,3.9697,4.0083,4.0932,4.3026,4.3882,4.478,4.6829,4.7309,4.7309,4.7309,4.7309,4.7309,4.7309,4.71,4.68,4.6339,4.6055,4.5783,4.5349,4.5289,4.52,4.4945,4.4556,4.4212,4.3958,4.3529,4.329,4.329,4.329,4.329,4.329,4.329,4.329,4.329,4.329,4.3472,4.3888,4.3472,4.4464,4.6712,4.6349,4.7205,1.65,1.7064,1.789,1.8782,1.9597,2.0627,2.2435,2.3246,2.4098,2.5787,2.6126,2.6251,2.6688,2.7203,0.0,0.0,2.9302,2.9792,0.0,0.0,0.0,0.0,0.0,0.0,0.0,0.0,0.0,0.0,0.0,0.0,0.0,3.1662,3.2039,3.2202,3.2604,3.2893,3.3124,3.3124,3.3124,3.3124,3.3124,3.3124,3.3124,3.3124,3.3282,3.3671,3.4223,3.4731,3.5282,3.5881,3.6207,3.6405,3.6405,3.6405,3.6405,3.6405,3.6757,3.7262,3.7814,3.8391,3.9007,3.9521,3.9697,3.9697,3.9697,3.9697,3.9697,3.9697,3.9697,3.9697,3.9697,3.9697,4.0224,4.2412,4.3218,4.4069,4.6255,4.7019,4.7309,4.7309,4.7309,4.7309,4.7309,4.7309,4.716,4.6696,4.6636,4.6456,4.5992,4.5933,4.5843,4.5648,4.502,4.4541,4.4332,4.3898,4.3514,4.3305,4.329,4.329,4.329,4.329,4.329,4.329,4.329,4.329,4.329,4.329,4.4289,4.6208,4.6208,4.7205,1.65,1.65,1.6926,1.8594,1.902,1.991,2.3251,2.4431,2.5297,2.6954,2.7341,2.7293,2.7329,2.7745,0.0,2.8109,2.9063,0.0,0.0,0.0,0.0,0.0,0.0,0.0,0.0,0.0,0.0,0.0,0.0,0.0,0.0,3.1097,3.1637,3.2177,3.2202,3.2491,3.3111,3.3124,3.3124,3.3124,3.3124,3.3124,3.3124,3.3124,3.3124,3.3106,3.3658,3.4211,3.4718,3.5282,3.5868,3.6405,3.6405,3.6405,3.6405,3.6405,3.6757,3.7262,3.7814,3.8379,3.9007,3.9509,3.9697,3.9697,3.9697,3.9697,3.9697,3.9697,3.9697,3.9697,3.9697,3.9697,4.0032,4.1319,4.2544,4.3834,4.5115,4.6403,4.7309,4.7309,4.7309,4.7309,4.7309,4.7309,4.7309,4.7309,4.7309,4.7309,4.7309,4.7309,4.7055,4.6396,4.5723,4.5035,4.4377,4.4317,4.3992,4.3334,4.329,4.329,4.329,4.329,4.329,4.329,4.329,4.329,4.329,4.329,4.4289,4.6208,4.6208,4.7205,1.65,1.7353,1.8381,1.8882,2.0462,2.2255,2.3678,2.4707,2.595,2.8009,2.8448,2.8323,2.7934,2.831,0.0,2.865,2.9302,0.0,0.0,0.0,0.0,0.0,0.0,0.0,0.0,0.0,0.0,0.0,0.0,0.0,0.0,3.0545,3.0922,3.1085,3.1825,3.2303,3.2466,3.2867,3.3124,3.3124,3.3124,3.3124,3.3124,3.3124,3.3124,3.3106,3.3658,3.4211,3.4788,3.573,3.6267,3.6405,3.6405,3.6405,3.6405,3.6405,3.6518,3.6782,3.7676,3.8115,3.8417,3.9383,3.9697,3.9697,3.9697,3.9697,3.9697,3.9697,3.9697,3.9697,3.9697,3.9697,4.0032,4.1319,4.1887,4.2738,4.4918,4.5689,4.6211,4.7121,4.7309,4.7309,4.7309,4.7309,4.7309,4.7309,4.7309,4.7309,4.7309,4.7309,4.7234,4.704,4.6411,4.5738,4.5065,4.4586,4.3992,4.3334,4.329,4.329,4.329,4.329,4.329,4.329,4.329,4.329,4.329,4.329,4.4289,4.6208,4.6208,4.7205,1.6798,1.7601,1.8581,1.9459,2.1091,2.2924,2.4594,2.5812,2.7042,2.8562,2.8888,2.8787,2.8499,2.8662,0.0,2.8888,0.0,0.0,0.0,0.0,0.0,0.0,0.0,0.0,0.0,0.0,0.0,0.0,0.0,0.0,0.0,3.0105,3.0382,3.0608,3.1235,3.1788,3.2215,3.2554,3.2855,3.3124,3.3124,3.3124,3.3124,3.3124,3.3124,3.3106,3.3658,3.4211,3.4788,3.568,3.6157,3.6405,3.6405,3.6405,3.6405,3.6405,3.6405,3.6531,3.7374,3.7826,3.8153,3.9069,3.9521,3.9697,3.9697,3.9697,3.9697,3.9697,3.9697,3.9697,3.9697,3.9697,3.989,4.0642,4.1604,4.2786,4.4303,4.5448,4.6403,4.7164,4.7309,4.7309,4.7309,4.7309,4.7309,4.7309,4.7309,4.7309,4.7309,4.7309,4.7309,4.7309,4.695,4.6441,4.5753,4.508,4.4421,4.3723,4.3439,4.329,4.329,4.329,4.329,4.329,4.329,4.329,4.329,4.3708,4.4706,4.6208,4.6592,4.7556,1.7212,1.7473,1.8064,2.0163,2.1257,2.2611,2.5783,2.7268,2.8185,2.87,2.8863,2.8888,2.8888,2.8938,2.8963,0.0,0.0,0.0,0.0,0.0,0.0,0.0,0.0,0.0,0.0,0.0,0.0,0.0,0.0,0.0,0.0,2.9792,3.0018,3.052,3.0583,3.1085,3.2064,3.2164,3.2478,3.3006,3.3056,3.3124,3.3124,3.3124,3.3124,3.3106,3.3658,3.4211,3.4718,3.527,3.5868,3.6405,3.6405,3.6405,3.6405,3.6405,3.6405,3.6493,3.6998,3.7513,3.804,3.8668,3.9207,3.9634,3.9685,3.9697,3.9697,3.9697,3.9697,3.9697,3.9697,3.9697,3.9749,3.9839,4.1654,4.3409,4.3646,4.5494,4.7164,4.7266,4.7309,4.7309,4.7309,4.7309,4.7309,4.7309,4.7309,4.7309,4.7309,4.7309,4.7309,4.7309,4.7309,4.704,4.6339,4.5753,4.511,4.4451,4.3798,4.3439,4.3379,4.3319,4.329,4.329,4.329,4.329,4.329,4.4297,4.5285,4.6208,4.7155,4.8112,1.7121,1.8016,1.8995,2.0365,2.2397,2.4519,2.6135,2.7014,2.762,2.8172,2.8624,2.8888,2.8888,2.9302,2.9603,0.0,0.0,0.0,0.0,0.0,0.0,0.0,0.0,0.0,0.0,0.0,0.0,0.0,0.0,0.0,2.9792,2.9792,2.9842,2.9967,3.0394,3.0721,3.0959,3.1788,3.2277,0.0,3.2855,3.3124,3.3124,3.3124,3.3124,3.3106,3.3658,3.4211,3.4718,3.527,3.5868,3.6405,3.6405,3.6405,3.6405,3.6405,3.6405,3.6493,3.6998,3.7262,3.7525,3.8592,3.9007,3.9132,3.9559,3.9697,3.9697,3.9697,3.9697,3.9697,3.9697,3.9697,3.9929,4.0932,4.1604,4.2544,4.4549,4.5403,4.6107,4.7121,4.7309,4.7309,4.7309,4.7309,4.7309,4.7309,4.7309,4.7309,4.7309,4.7309,4.7309,4.7309,4.7309,4.704,4.6339,4.6187,4.5813,4.5125,4.4945,4.4646,4.4122,4.3559,4.329,4.329,4.329,4.329,4.329,4.4297,4.5285,4.6208,4.7155,4.8112,1.74,1.8392,1.9459,2.138,2.3351,2.5034,2.5896,2.6524,2.7002,2.7291,2.7959,2.8612,2.8838,2.9176,0.0,0.0,0.0,0.0,0.0,0.0,0.0,0.0,0.0,0.0,0.0,0.0,0.0,0.0,0.0,2.9792,2.9792,2.9792,2.9792,2.9792,3.0068,3.0357,3.062,3.1173,3.1712,3.2215,3.2516,3.2805,3.3124,3.3124,3.3124,3.3136,3.3382,3.3822,3.4374,3.4881,3.5433,3.5994,3.6304,3.6405,3.6405,3.6405,3.6405,3.6455,3.6732,3.7008,3.7287,3.7877,3.8479,3.8931,3.922,3.9484,3.9697,3.9697,3.9697,3.9697,3.9697,3.9697,4.0173,4.207,4.2509,4.3026,4.4978,4.5869,4.6491,4.7164,4.7309,4.7309,4.7309,4.7309,4.7309,4.7309,4.7309,4.7309,4.7309,4.7309,4.7309,4.7309,4.7309,4.7174,4.683,4.6459,4.613,4.5813,4.5484,4.514,4.4796,4.4451,4.3973,4.3305,4.329,4.329,4.329,4.4781,4.5742,4.6244,4.7622,4.8545,1.7488,1.8593,1.9898,2.2456,2.3885,2.4845,2.546,2.5996,2.6373,2.6474,2.7291,2.8109,2.8561,0.0,0.0,0.0,0.0,0.0,0.0,0.0,0.0,0.0,0.0,0.0,0.0,0.0,0.0,0.0,0.0,2.9792,2.9792,2.9792,2.9792,2.9792,2.9792,3.0018,3.047,3.057,3.106,3.1938,3.2127,3.2516,3.3124,3.3124,3.3124,3.3124,3.3124,3.3382,3.3935,3.45,3.5006,3.5558,3.6144,3.6405,3.6405,3.6405,3.6405,3.6405,3.6405,3.6707,3.7061,3.7149,3.7877,3.8743,3.8894,3.9258,3.9697,3.9697,3.9697,3.9697,3.9697,3.9697,4.0364,4.2882,4.3504,4.3929,4.5403,4.655,4.7309,4.7309,4.7309,4.7309,4.7309,4.7309,4.7309,4.7309,4.7309,4.7309,4.7309,4.7309,4.7309,4.7309,4.7309,4.7309,4.7309,4.68,4.6444,4.6444,4.5963,4.5589,4.5484,4.5469,4.49,4.3663,4.3529,4.3409,4.329,4.5253,4.6208,4.626,4.8129,4.9001,1.64,1.8555,2.0905,2.2656,2.3597,2.4368,2.5372,2.5649,2.585,0.0,2.6989,2.7419,0.0,0.0,0.0,0.0,0.0,0.0,0.0,0.0,0.0,0.0,0.0,0.0,0.0,0.0,0.0,0.0,2.9792,2.9792,2.9792,2.9792,2.9792,2.9792,2.9792,2.9829,2.9905,3.0382,3.0683,3.0834,3.1775,3.2516,3.3124,3.3124,3.3124,3.3124,3.3124,3.3382,3.3935,3.45,3.5006,3.5558,3.6144,3.6405,3.6405,3.6405,3.6405,3.6405,3.6405,3.6455,3.6593,3.7023,3.7613,3.8216,3.8718,3.9258,3.9697,3.9697,3.9697,3.9697,3.9697,3.9697,4.0364,4.2882,4.3504,4.4163,4.6535,4.7164,4.7309,4.7309,4.7309,4.7309,4.7309,4.7309,4.7309,4.7309,4.7309,4.7309,4.7309,4.7309,4.7309,4.7309,4.7309,4.7309,4.7309,4.7219,4.7174,4.7174,4.7085,4.677,4.6217,4.6187,4.5828,4.505,4.4466,4.3898,4.329,4.5253,4.6208,4.626,4.8129,4.9001,1.6911,1.8794,2.0577,2.223,2.307,2.3715,2.4519,2.4946,2.5322,2.5862,2.6163,0.0,0.0,0.0,0.0,0.0,0.0,0.0,0.0,0.0,0.0,0.0,0.0,0.0,0.0,0.0,0.0,0.0,2.9792,2.9792,2.9792,2.9792,2.9792,2.9792,2.9792,2.9792,2.9792,3.003,3.0457,3.106,3.1838,3.2516,3.3124,3.3124,3.3124,3.3124,3.3124,3.3219,3.3508,3.4361,3.4818,3.5119,3.6031,3.6405,3.6405,3.6405,3.6405,3.6405,3.6405,3.6405,3.6455,3.6694,3.7098,3.7651,3.8216,3.8781,3.9295,3.9609,3.9697,3.9697,3.9697,3.9697,4.0173,4.1985,4.2978,4.4022,4.5824,4.6785,4.7309,4.7309,4.7309,4.7309,4.7309,4.7309,4.7309,4.7309,4.7309,4.7309,4.7309,4.7309,4.7309,4.7309,4.7309,4.7309,4.7309,4.7309,4.7309,4.7309,4.7309,4.7174,4.689,4.6875,4.6561,4.5888,4.484,4.4419,4.4639,4.5682,4.6454,4.702,4.837,4.9001,1.7099,1.8468,1.9585,2.1255,2.2167,2.2869,2.3615,0.0,2.4757,0.0,0.0,0.0,0.0,0.0,0.0,0.0,0.0,0.0,0.0,0.0,0.0,0.0,0.0,0.0,0.0,0.0,0.0,0.0,2.9792,2.9792,2.9792,2.9792,2.9792,2.9792,2.9792,2.9792,2.9792,2.9792,3.0269,3.1198,3.1738,3.2303,3.2867,3.3048,3.3124,3.3124,3.3124,3.3124,3.3156,3.4274,3.468,3.4826,3.5931,3.6405,3.6405,3.6405,3.6405,3.6405,3.6405,3.6405,3.6405,3.6405,3.6782,3.7287,3.7839,3.8417,3.8981,3.9534,3.9697,3.9697,3.9697,3.9697,4.0032,4.1319,4.2544,4.3929,4.5539,4.6638,4.7309,4.7309,4.7309,4.7309,4.7309,4.7309,4.7309,4.7309,4.7309,4.7309,4.7309,4.7309,4.7309,4.7309,4.7309,4.7309,4.7309,4.7309,4.7309,4.7309,4.7309,4.7309,4.7309,4.7309,4.707,4.6576,4.5424,4.5218,4.5998,4.6328,4.6953,4.7902,4.8629,4.9001,1.6145,1.7049,1.7926,1.9522,2.0765,2.1857,0.0,0.0,0.0,0.0,0.0,0.0,0.0,0.0,0.0,0.0,0.0,0.0,0.0,0.0,0.0,0.0,0.0,0.0,0.0,0.0,0.0,0.0,2.9792,2.9792,2.9792,2.9792,2.9792,2.9792,2.9792,2.9792,2.9792,2.9792,3.008,3.0658,3.1185,3.1725,3.2277,3.283,3.3124,3.3124,3.3124,3.3124,3.3156,3.4274,3.468,3.4826,3.5931,3.6405,3.6405,3.6405,3.6405,3.6405,3.6405,3.6405,3.6405,3.6405,3.6782,3.7287,3.7839,3.8417,3.8981,3.9534,3.9697,3.9697,3.9697,3.9697,4.0032,4.1319,4.2544,4.4163,4.6682,4.7251,4.7309,4.7309,4.7309,4.7309,4.7309,4.7309,4.7309,4.7309,4.7309,4.7309,4.7309,4.7309,4.7309,4.7309,4.7309,4.7309,4.7309,4.7309,4.7309,4.7309,4.7309,4.7309,4.7309,4.7309,4.7294,4.7249,4.6576,4.6399,4.6827,4.7035,4.7677,4.8644,4.888,4.9001,1.5324,1.6417,1.7624,1.8543,1.9597,2.0602,2.138,2.2259,2.3075,2.3597,0.0,0.0,0.0,0.0,0.0,0.0,0.0,0.0,0.0,0.0,0.0,0.0,0.0,0.0,0.0,0.0,0.0,0.0,0.0,2.9792,2.9792,2.9792,2.9792,2.9792,2.9792,2.9792,2.9792,2.9792,3.0068,3.062,3.1135,3.1675,3.2227,3.2805,3.3124,3.3124,3.3124,3.3124,3.3174,3.3884,3.4399,3.4756,3.5554,3.6056,3.6405,3.6405,3.6405,3.6405,3.6405,3.6405,3.6405,3.6405,3.6782,3.7287,3.7839,3.8417,3.8981,3.9534,3.9697,3.9697,3.9697,3.9697,4.0224,4.2315,4.317,4.421,4.6741,4.7309,4.7309,4.7309,4.7309,4.7309,4.7309,4.7309,4.7309,4.7309,4.7309,4.7309,4.7309,4.7309,4.7309,4.7309,4.7309,4.7309,4.7309,4.7309,4.7309,4.7309,4.7309,4.7309,4.7309,4.7309,4.7309,4.7309,4.707,4.711,4.7406,4.7267,4.769,4.866,4.8897,4.9001,1.4846,1.5839,1.7036,1.7978,1.8744,1.951,2.0478,0.0,2.2184,0.0,0.0,0.0,0.0,0.0,0.0,0.0,0.0,0.0,0.0,0.0,0.0,0.0,0.0,0.0,0.0,0.0,0.0,0.0,0.0,0.0,2.9792,2.9792,2.9792,2.9792,2.9792,2.9792,2.9792,2.9792,2.998,3.0344,3.0884,3.1411,3.1951,3.2528,3.2893,3.3124,3.3124,3.3124,3.3162,3.3671,3.4223,3.4731,3.5282,3.5881,3.6405,3.6405,3.6405,3.6405,3.6405,3.6405,3.6405,3.6405,3.6782,3.7287,3.7839,3.8417,3.8981,3.9534,3.9697,3.9697,3.9697,3.9697,4.0364,4.2882,4.3504,4.421,4.6741,4.7309,4.7309,4.7309,4.7309,4.7309,4.7309,4.7309,4.7309,4.7309,4.7309,4.7309,4.7309,4.7309,4.7309,4.7309,4.7309,4.7309,4.7309,4.7309,4.7309,4.7309,4.7309,4.7309,4.7309,4.7309,4.7309,4.7309,4.7309,4.7382,4.7578,4.7772,4.8384,4.9334,4.9618,4.9746,0.0,0.0,0.0,1.7727,0.0,0.0,2.0226,0.0,2.1581,0.0,0.0,0.0,0.0,0.0,0.0,0.0,0.0,0.0,0.0,0.0,0.0,0.0,0.0,0.0,0.0,0.0,0.0,0.0,2.9792,2.9792,2.9792,2.9792,2.9792,2.9792,2.9792,2.9792,2.9792,2.9792,2.9792,2.9804,3.0357,3.0884,3.1411,3.1964,3.2528,3.3124,3.3124,3.3124,3.3162,3.3658,3.4211,3.4731,3.527,3.5868,3.6405,3.6405,3.6405,3.6405,3.6405,3.6405,3.6405,3.643,3.6807,3.7312,3.7864,3.8442,3.9007,3.9546,3.9697,3.9697,3.9697,3.9697,4.0364,4.2882,4.3504,4.421,4.6741,4.7309,4.7309,4.7309,4.7309,4.7309,4.7309,4.7309,4.7309,4.7309,4.7309,4.7309,4.7309,4.7309,4.7309,4.7309,4.7309,4.7309,4.7309,4.7309,4.7309,4.7309,4.7309,4.7309,4.7309,4.7309,4.7309,4.7309,4.7309,4.7309,4.7294,4.8662,4.981,5.0766,5.1078,5.1202,1.4865,0.0,0.0,0.0,0.0,0.0,0.0,0.0,0.0,0.0,0.0,0.0,0.0,0.0,0.0,0.0,0.0,0.0,0.0,0.0,0.0,0.0,0.0,0.0,0.0,0.0,0.0,0.0,2.9792,2.9792,2.9792,2.9792,2.9792,2.9792,2.9792,2.9792,2.9792,2.9792,2.9792,2.9804,3.0357,3.0884,3.1411,3.1964,3.2528,3.3124,3.3124,3.3124,3.3124,3.3244,3.3872,3.4693,3.4843,3.5529,3.6405,3.6405,3.6405,3.6405,3.6405,3.6405,3.6468,3.6822,3.7324,3.7889,3.8454,3.9019,3.9496,3.9647,3.9697,3.9697,3.9697,3.9697,4.0364,4.2882,4.3504,4.421,4.6741,4.7309,4.7309,4.7309,4.7309,4.7309,4.7309,4.7309,4.7309,4.7309,4.7309,4.7309,4.7309,4.7309,4.7309,4.7309,4.7309,4.7309,4.7309,4.7309,4.7309,4.7309,4.7309,4.7309,4.7309,4.7309,4.7309,4.7309,4.7309,4.7309,4.7294,4.8662,4.9438,4.972,5.076,5.1505,1.5236,1.5856,1.6497,1.6421,0.0,0.0,0.0,1.8229,0.0,0.0,0.0,0.0,0.0,0.0,0.0,0.0,0.0,0.0,0.0,0.0,0.0,0.0,0.0,0.0,0.0,2.9654,2.9792,2.9792,2.9792,2.9792,2.9792,2.9792,2.9792,2.9792,2.9792,2.9792,2.9792,2.9792,2.9792,2.9792,3.0118,3.067,3.1399,3.1725,3.2315,3.3124,3.3124,3.3124,3.3124,3.3124,3.3721,3.468,3.468,3.5391,3.6405,3.6405,3.6405,3.6405,3.6405,3.6556,3.6807,3.7073,3.7713,3.8429,3.8768,3.9258,3.9697,3.9697,3.9697,3.9697,3.9697,4.007,4.0982,4.3026,4.3929,4.4826,4.6873,4.7309,4.7309,4.7309,4.7309,4.7309,4.7309,4.7309,4.7309,4.7309,4.7309,4.7309,4.7309,4.7309,4.7309,4.7309,4.7309,4.7309,4.7309,4.7309,4.7309,4.7309,4.7309,4.7309,4.7309,4.7309,4.7309,4.7309,4.7309,4.7737,4.8584,4.9378,5.0204,5.1064,5.1815,5.2401,1.5781,1.6195,1.6701,1.7174,1.6986,0.0,1.7815,1.8066,1.8405,0.0,0.0,0.0,0.0,0.0,0.0,0.0,0.0,0.0,0.0,0.0,0.0,0.0,0.0,0.0,2.875,2.9365,2.9691,2.9691,2.9754,2.9792,2.9792,2.9792,2.9792,2.9792,2.9792,2.9792,2.9792,2.9792,2.9792,2.9792,2.9792,3.0357,3.1386,3.1386,3.2001,3.3124,3.3124,3.3124,3.3124,3.3124,3.3721,3.468,3.468,3.5391,3.6405,3.6405,3.6405,3.6405,3.6405,3.6769,3.7199,3.7262,3.8002,3.8932,3.8994,3.9308,3.9697,3.9697,3.9697,3.9697,3.9697,4.0642,4.1936,4.3218,4.4456,4.5734,4.7019,4.7309,4.7309,4.7309,4.7309,4.7309,4.7309,4.7309,4.7309,4.7309,4.7309,4.7309,4.7309,4.7309,4.7309,4.7309,4.7309,4.7309,4.7309,4.7309,4.7309,4.7309,4.7309,4.7309,4.7309,4.7309,4.7309,4.7309,4.7309,4.8267,5.0204,5.032,5.1484,5.3501,5.3501,5.3501,1.6337,1.6773,1.7137,1.6773,0.0,0.0,1.6989,1.7212,1.7727,0.0,0.0,0.0,0.0,0.0,0.0,0.0,0.0,0.0,0.0,0.0,0.0,0.0,0.0,0.0,2.821,2.8762,2.9063,2.9063,2.9528,2.9792,2.9792,2.9792,2.9792,2.9792,2.9792,2.9792,2.9792,2.9792,2.9792,2.9792,2.9792,3.0357,3.1386,3.1386,3.2001,3.3124,3.3124,3.3124,3.3124,3.3124,3.3721,3.468,3.468,3.5391,3.6405,3.6405,3.6405,3.6405,3.6405,3.6769,3.7262,3.7701,3.8316,3.9007,3.9396,3.9609,3.9697,3.9697,3.9697,3.9697,3.9697,4.0642,4.1936,4.3218,4.4456,4.5734,4.7019,4.7309,4.7309,4.7309,4.7309,4.7309,4.7309,4.7309,4.7309,4.7309,4.7309,4.7309,4.7309,4.7309,4.7309,4.7309,4.7309,4.7309,4.7309,4.7309,4.7309,4.7309,4.7309,4.7309,4.7309,4.7309,4.7309,4.7309,4.7309,4.7919,4.9094,4.997,5.1484,5.3501,5.3501,5.3501,1.6575,1.6713,1.6948,1.6948,0.0,0.0,0.0,0.0,1.7187,0.0,0.0,0.0,0.0,0.0,0.0,0.0,0.0,0.0,0.0,0.0,0.0,0.0,0.0,0.0,2.767,2.8197,2.8599,2.8863,2.9465,2.9792,2.9792,2.9792,2.9792,2.9792,2.9792,2.9792,2.9792,2.9792,2.9792,2.9792,2.9792,3.0357,3.1386,3.1386,3.2001,3.3124,3.3124,3.3124,3.3124,3.3124,3.3721,3.468,3.468,3.5391,3.6405,3.6405,3.6405,3.6405,3.6405,3.6958,3.7638,3.7914,3.858,3.9333,3.9609,3.9697,3.9697,3.9697,3.9697,3.9697,3.9697,4.1119,4.2689,4.3361,4.4978,4.6535,4.7164,4.7309,4.7309,4.7309,4.7309,4.7309,4.7309,4.7309,4.7309,4.7309,4.7309,4.7309,4.7309,4.7309,4.7309,4.7309,4.7309,4.7309,4.7309,4.7309,4.7309,4.7309,4.7309,4.7309,4.7309,4.7309,4.7309,4.7309,4.7309,4.7792,4.8784,4.9336,5.0397,5.1954,5.1954,5.2222,0.0,0.0,0.0,0.0,0.0,1.7162,0.0,0.0,0.0,0.0,0.0,0.0,0.0,0.0,0.0,0.0,0.0,0.0,0.0,0.0,0.0,0.0,0.0,0.0,2.6942,2.7356,2.7984,2.8825,2.9164,2.9453,2.9779,2.9792,2.9792,2.9792,2.9792,2.9792,2.9792,2.9792,2.9792,2.9792,2.9792,3.0357,3.1386,3.1386,3.2001,3.3124,3.3124,3.3124,3.3124,3.3194,3.3822,3.468,3.468,3.5391,3.6405,3.6405,3.6405,3.6405,3.6405,3.7086,3.8002,3.8002,3.8768,3.9697,3.9697,3.9697,3.9697,3.9697,3.9697,3.9697,3.9697,4.1406,4.3218,4.3456,4.5252,4.7019,4.7251,4.7309,4.7309,4.7309,4.7309,4.7309,4.7309,4.7309,4.7309,4.7309,4.7309,4.7309,4.7309,4.7309,4.7309,4.7309,4.7309,4.7309,4.7309,4.7309,4.7309,4.7309,4.7309,4.7309,4.7309,4.7309,4.7309,4.7309,4.7309,4.7679,4.8527,4.8527,4.915,5.0397,5.0589,5.1117,0.0,0.0,0.0,0.0,1.8781,0.0,0.0,0.0,0.0,0.0,0.0,0.0,0.0,0.0,0.0,0.0,0.0,0.0,0.0,0.0,0.0,0.0,0.0,0.0,0.0,2.585,2.6728,2.8737,2.8084,2.8222,2.9716,2.9792,2.9792,2.9792,2.9792,2.9792,2.9792,2.9792,2.9792,2.9792,2.9792,3.0357,3.1386,3.1386,3.2001,3.3124,3.3124,3.3124,3.3162,3.3608,3.4173,3.468,3.468,3.5391,3.6405,3.6405,3.6405,3.6405,3.6405,3.7086,3.8002,3.8002,3.8768,3.9697,3.9697,3.9697,3.9697,3.9697,3.9697,3.9697,3.9697,4.0743,4.2119,4.3218,4.4595,4.5928,4.7062,4.7309,4.7309,4.7309,4.7309,4.7309,4.7309,4.7309,4.7309,4.7309,4.7309,4.7309,4.7309,4.7309,4.7309,4.7309,4.7309,4.7309,4.7309,4.7309,4.7309,4.7309,4.7309,4.7309,4.7309,4.7309,4.7309,4.7309,4.7309,4.7337,4.7452,4.7452,4.846,5.0397,5.1303,5.1796,0.0,0.0,0.0,0.0,0.0,0.0,1.7375,0.0,1.6911,0.0,0.0,0.0,0.0,0.0,0.0,0.0,0.0,0.0,0.0,0.0,0.0,0.0,0.0,0.0,0.0,0.0,0.0,0.0,2.7544,2.7871,2.9214,2.9616,2.9792,2.9792,2.9792,2.9792,2.9792,2.9792,2.9792,2.9792,2.9792,3.0357,3.1386,3.1386,3.2001,3.3124,3.3124,3.3124,3.3162,3.3671,3.4223,3.4705,3.5031,3.568,3.6405,3.6405,3.6405,3.6455,3.6782,3.7349,3.8115,3.8768,3.9308,3.9697,3.9697,3.9697,3.9697,3.9697,3.9697,3.9697,3.9697,4.0642,4.1936,4.3218,4.4456,4.5734,4.7019,4.7309,4.7309,4.7309,4.7309,4.7309,4.7309,4.7309,4.7309,4.7309,4.7309,4.7309,4.7309,4.7309,4.7309,4.7309,4.7309,4.7309,4.7309,4.7309,4.7309,4.7309,4.7309,4.7309,4.7309,4.7309,4.7309,4.7309,4.7309,4.7309,4.7309,4.7309,4.7737,4.8625,4.9044,4.9891,2.0878,0.0,0.0,0.0,0.0,0.0,0.0,0.0,0.0,0.0,0.0,0.0,0.0,0.0,0.0,0.0,0.0,0.0,0.0,0.0,0.0,0.0,0.0,0.0,0.0,0.0,0.0,0.0,0.0,2.713,2.88,2.9327,2.9628,2.9779,2.9792,2.9792,2.9792,2.9792,2.9792,2.9792,2.9942,3.0495,3.1399,3.1549,3.2152,3.3124,3.3124,3.3124,3.3131,3.3834,3.4361,3.4788,3.5445,3.6006,3.6405,3.6405,3.6405,3.6493,3.6998,3.7651,3.8404,3.9371,3.9697,3.9697,3.9697,3.9697,3.9697,3.9697,3.9697,3.9697,3.9697,4.0642,4.1936,4.3218,4.4456,4.5734,4.7019,4.7309,4.7309,4.7309,4.7309,4.7309,4.7309,4.7309,4.7309,4.7309,4.7309,4.7309,4.7309,4.7309,4.7309,4.7309,4.7309,4.7309,4.7309,4.7309,4.7309,4.7309,4.7309,4.7309,4.7309,4.7309,4.7309,4.7309,4.7309,4.7309,4.7309,4.7309,4.7309,4.7309,4.7566,4.8543,0.0,0.0,0.0,2.0464,0.0,0.0,0.0,0.0,1.8154,0.0,0.0,0.0,0.0,0.0,0.0,0.0,0.0,0.0,0.0,0.0,0.0,0.0,0.0,0.0,0.0,0.0,0.0,0.0,2.4682,0.0,2.8712,2.8913,2.9214,2.9779,2.9792,2.9792,2.9792,2.9792,2.9792,2.9804,3.0331,3.0871,3.1411,3.1938,3.2516,3.3124,3.3124,3.3124,3.3156,3.4248,3.4655,3.4826,3.5906,3.6392,3.6405,3.6405,3.6405,3.6493,3.6998,3.7914,3.8931,3.9509,3.9697,3.9697,3.9697,3.9697,3.9697,3.9697,3.9697,3.9697,3.9697,4.0642,4.1936,4.3218,4.4456,4.5734,4.7019,4.7309,4.7309,4.7309,4.7309,4.7309,4.7309,4.7309,4.7309,4.7309,4.7309,4.7309,4.7309,4.7309,4.7309,4.7309,4.7309,4.7309,4.7309,4.7309,4.7309,4.7309,4.7309,4.7309,4.7309,4.7309,4.7309,4.7309,4.7309,4.7309,4.7309,4.7309,4.7309,4.7309,4.8293,4.8784,0.0,0.0,2.4481,2.2071,0.0,0.0,0.0,0.0,0.0,0.0,0.0,0.0,0.0,0.0,0.0,0.0,0.0,0.0,0.0,0.0,0.0,0.0,0.0,0.0,0.0,0.0,0.0,0.0,2.4544,0.0,2.772,2.8499,2.8976,2.9214,2.9591,2.9792,2.9792,2.9792,2.9792,2.9804,3.0357,3.0884,3.1411,3.1964,3.2528,3.3124,3.3124,3.3124,3.3156,3.4274,3.468,3.4826,3.5931,3.6405,3.6405,3.6405,3.6405,3.6543,3.7412,3.8467,3.9446,3.9634,3.9697,3.9697,3.9697,3.9697,3.9697,3.9697,3.9697,3.9697,3.9697,4.0032,4.0882,4.2978,4.3834,4.4734,4.6829,4.7309,4.7309,4.7309,4.7309,4.7309,4.7309,4.7309,4.7309,4.7309,4.7309,4.7309,4.7309,4.7309,4.7309,4.7309,4.7309,4.7309,4.7309,4.7309,4.7309,4.7309,4.7309,4.7309,4.7309,4.7309,4.7309,4.7309,4.7309,4.7309,4.7309,4.7309,4.7309,4.7309,4.7651,4.8183,2.4838,2.5197,0.0,2.307,2.2305,0.0,1.9535,0.0,0.0,0.0,0.0,0.0,0.0,0.0,0.0,0.0,0.0,0.0,0.0,0.0,0.0,0.0,0.0,0.0,0.0,0.0,2.1829,2.3565,2.381,2.482,0.0,0.0,2.8687,2.8888,2.949,2.9792,2.9792,2.9792,2.9792,2.9804,3.0545,3.1072,3.1411,3.2177,3.2717,3.3124,3.3124,3.3124,3.3156,3.4274,3.468,3.4826,3.5931,3.6405,3.6405,3.6405,3.6656,3.7073,3.799,3.8919,3.9697,3.9697,3.9697,3.9697,3.9697,3.9697,3.9697,3.9697,3.9697,3.9697,3.9697,4.0364,4.1455,4.3122,4.421,4.5298,4.6975,4.7309,4.7309,4.7309,4.7309,4.7309,4.7309,4.7309,4.7309,4.7309,4.7309,4.7309,4.7309,4.7309,4.7309,4.7309,4.7309,4.7309,4.7309,4.7309,4.7309,4.7309,4.7309,4.7309,4.7309,4.7309,4.7309,4.7309,4.7309,4.7309,4.7309,4.7309,4.7309,4.7309,4.7309,4.7834]}]]